[[{"header":{"parameterUnit":"m.s-1","parameterCategory":1,"la1":30.6,"la2":29.2853,"lo1":-89.7004,"lo2":-87.6739,"dy":0.0162,"dx":0.0183,"nx":112,"ny":82,"refTime":"2023-03-02T06:00:00:Z","depth":0,"parameterNumber":2,"parameterNumberName":"U-component_of_WINDS"},"data":[0.0,0.0,0.0,0.0,0.0,0.0,0.0,0.0,0.0,0.0,0.0,0.0,0.0,0.0,0.0,0.0,0.0,0.0,0.0,0.0,0.0,0.0,0.0,0.0,0.0,0.0,0.0,0.0,0.0,0.0,0.0,0.0,0.0,0.0,0.0,0.0,0.0,0.0,0.0,0.0,0.0,0.0,0.0,0.0,0.0,0.0,0.0,0.0,0.0,0.0,0.0,0.0,0.0,0.0,0.0,0.0,0.0,0.0,0.0,0.0,0.0,0.0,0.0,0.0,0.0,0.0,0.0,0.0,0.0,0.0,0.0,0.0,0.0,0.0,0.0,0.0,0.0,0.0,0.0,0.0,0.0,0.0,0.0,0.0,0.0,0.0,0.0,0.0,0.0,0.0,-9.3539,-9.6248,-9.9886,-10.2018,-10.1903,-10.0413,-9.8693,-9.7012,0.0,0.0,0.0,0.0,0.0,0.0,0.0,0.0,0.0,0.0,0.0,0.0,0.0,0.0,0.0,0.0,0.0,0.0,0.0,0.0,0.0,0.0,0.0,0.0,0.0,0.0,0.0,0.0,0.0,0.0,0.0,0.0,0.0,0.0,0.0,0.0,0.0,0.0,0.0,0.0,0.0,0.0,0.0,0.0,0.0,0.0,0.0,0.0,0.0,0.0,0.0,0.0,0.0,0.0,0.0,0.0,0.0,0.0,0.0,0.0,0.0,0.0,0.0,0.0,0.0,0.0,0.0,0.0,0.0,0.0,0.0,0.0,0.0,0.0,0.0,0.0,0.0,0.0,0.0,0.0,0.0,0.0,0.0,0.0,0.0,0.0,0.0,0.0,0.0,0.0,0.0,0.0,0.0,0.0,0.0,0.0,0.0,0.0,0.0,0.0,0.0,0.0,0.0,0.0,-9.572,-9.9465,-10.1674,-10.2705,-10.2018,-10.0413,-9.8693,-9.7012,0.0,0.0,0.0,0.0,0.0,0.0,0.0,0.0,0.0,0.0,0.0,0.0,0.0,0.0,0.0,0.0,0.0,0.0,0.0,0.0,0.0,0.0,0.0,0.0,0.0,0.0,0.0,0.0,0.0,0.0,0.0,0.0,0.0,0.0,0.0,0.0,0.0,0.0,0.0,0.0,0.0,0.0,0.0,0.0,0.0,0.0,0.0,0.0,0.0,0.0,0.0,0.0,0.0,0.0,0.0,0.0,0.0,0.0,0.0,0.0,0.0,0.0,0.0,0.0,0.0,0.0,0.0,0.0,0.0,0.0,0.0,0.0,0.0,0.0,0.0,0.0,0.0,0.0,0.0,0.0,0.0,0.0,0.0,0.0,0.0,0.0,0.0,0.0,0.0,0.0,0.0,0.0,0.0,0.0,0.0,0.0,0.0,0.0,0.0,0.0,0.0,0.0,0.0,-9.6054,-9.8593,-10.1697,-10.3087,-10.3508,-10.2705,-10.0986,-9.9343,-9.7662,-9.4376,0.0,0.0,0.0,0.0,0.0,0.0,0.0,0.0,0.0,0.0,0.0,0.0,0.0,0.0,0.0,0.0,0.0,0.0,0.0,0.0,0.0,0.0,0.0,0.0,0.0,0.0,0.0,0.0,0.0,0.0,0.0,0.0,0.0,0.0,0.0,0.0,0.0,0.0,0.0,0.0,0.0,0.0,0.0,0.0,0.0,0.0,0.0,0.0,0.0,0.0,0.0,0.0,0.0,0.0,0.0,0.0,0.0,0.0,0.0,0.0,0.0,0.0,0.0,0.0,0.0,0.0,0.0,0.0,0.0,0.0,0.0,0.0,0.0,0.0,0.0,0.0,0.0,0.0,0.0,0.0,0.0,0.0,0.0,0.0,0.0,0.0,0.0,0.0,0.0,0.0,0.0,0.0,0.0,0.0,0.0,0.0,0.0,0.0,0.0,0.0,0.0,0.0,-9.8559,-10.1115,-10.3188,-10.4195,-10.4386,-10.3584,-10.1712,-9.9969,-9.841,-9.5188,0.0,0.0,0.0,0.0,0.0,0.0,0.0,0.0,0.0,0.0,0.0,0.0,0.0,0.0,0.0,0.0,0.0,0.0,0.0,0.0,0.0,0.0,0.0,0.0,0.0,0.0,0.0,0.0,0.0,0.0,0.0,0.0,0.0,0.0,0.0,0.0,0.0,0.0,0.0,0.0,0.0,0.0,0.0,0.0,0.0,0.0,0.0,0.0,0.0,0.0,0.0,0.0,0.0,0.0,0.0,0.0,0.0,0.0,0.0,0.0,0.0,0.0,0.0,0.0,0.0,0.0,0.0,0.0,0.0,0.0,0.0,0.0,0.0,0.0,0.0,0.0,0.0,0.0,0.0,0.0,0.0,0.0,0.0,0.0,0.0,0.0,0.0,0.0,0.0,0.0,0.0,0.0,0.0,0.0,0.0,0.0,0.0,0.0,0.0,0.0,0.0,0.0,-9.9823,-10.2423,-10.4119,-10.5112,-10.5303,-10.4386,-10.2018,-10.009,-9.9009,-9.5905,0.0,0.0,0.0,0.0,0.0,0.0,0.0,0.0,0.0,0.0,0.0,0.0,0.0,0.0,0.0,0.0,0.0,0.0,0.0,0.0,0.0,0.0,0.0,0.0,0.0,0.0,0.0,0.0,0.0,0.0,0.0,0.0,0.0,0.0,0.0,0.0,0.0,0.0,0.0,0.0,0.0,0.0,0.0,0.0,0.0,0.0,0.0,0.0,0.0,0.0,0.0,0.0,0.0,0.0,0.0,0.0,0.0,0.0,0.0,0.0,0.0,0.0,0.0,0.0,0.0,0.0,0.0,0.0,0.0,0.0,0.0,0.0,0.0,0.0,0.0,0.0,0.0,0.0,0.0,0.0,0.0,0.0,0.0,0.0,0.0,0.0,0.0,0.0,0.0,0.0,0.0,0.0,0.0,0.0,0.0,0.0,0.0,0.0,0.0,0.0,0.0,0.0,-10.1192,-10.3794,-10.431,-10.5609,-10.5915,-10.4501,-10.2481,-10.0715,-9.9317,0.0,0.0,0.0,0.0,0.0,0.0,0.0,0.0,0.0,0.0,0.0,0.0,0.0,0.0,0.0,0.0,0.0,0.0,0.0,0.0,0.0,0.0,0.0,0.0,0.0,0.0,0.0,0.0,0.0,0.0,0.0,0.0,0.0,0.0,0.0,0.0,0.0,0.0,0.0,0.0,0.0,0.0,0.0,0.0,0.0,0.0,0.0,0.0,0.0,0.0,0.0,0.0,0.0,0.0,0.0,0.0,0.0,0.0,0.0,0.0,0.0,0.0,0.0,0.0,0.0,0.0,0.0,0.0,0.0,0.0,0.0,0.0,0.0,0.0,0.0,0.0,0.0,0.0,0.0,0.0,0.0,0.0,0.0,0.0,0.0,0.0,0.0,0.0,0.0,0.0,0.0,0.0,0.0,0.0,0.0,0.0,0.0,0.0,0.0,0.0,0.0,0.0,-9.8521,-10.1897,-10.4406,-10.5074,-10.6182,-10.6412,-10.5303,-10.3272,-10.1429,-9.9713,0.0,0.0,0.0,0.0,0.0,0.0,0.0,0.0,0.0,0.0,0.0,0.0,0.0,0.0,0.0,0.0,0.0,0.0,0.0,0.0,0.0,0.0,0.0,0.0,0.0,0.0,0.0,0.0,0.0,0.0,0.0,0.0,0.0,0.0,0.0,0.0,0.0,0.0,0.0,0.0,0.0,0.0,0.0,0.0,0.0,0.0,0.0,0.0,0.0,0.0,0.0,0.0,0.0,0.0,0.0,0.0,0.0,0.0,0.0,0.0,0.0,0.0,0.0,0.0,0.0,0.0,0.0,0.0,0.0,0.0,0.0,0.0,0.0,0.0,0.0,0.0,0.0,0.0,0.0,0.0,0.0,0.0,0.0,0.0,0.0,0.0,0.0,0.0,0.0,0.0,0.0,0.0,0.0,0.0,0.0,0.0,0.0,0.0,0.0,0.0,0.0,0.0,-9.9217,-10.1706,-10.4195,-10.6603,-10.6908,-10.6908,-10.6908,-10.4493,-10.2106,0.0,0.0,0.0,0.0,0.0,0.0,0.0,0.0,0.0,0.0,0.0,0.0,0.0,0.0,0.0,0.0,0.0,0.0,0.0,0.0,0.0,0.0,0.0,0.0,0.0,0.0,0.0,0.0,0.0,0.0,0.0,0.0,0.0,0.0,0.0,0.0,0.0,0.0,0.0,0.0,0.0,0.0,0.0,0.0,0.0,0.0,0.0,0.0,0.0,0.0,0.0,0.0,0.0,0.0,0.0,0.0,0.0,0.0,0.0,0.0,0.0,0.0,0.0,0.0,0.0,0.0,0.0,0.0,0.0,0.0,0.0,0.0,0.0,0.0,0.0,0.0,0.0,0.0,0.0,0.0,0.0,0.0,0.0,0.0,0.0,0.0,0.0,0.0,0.0,0.0,0.0,0.0,0.0,0.0,0.0,0.0,0.0,0.0,0.0,0.0,0.0,0.0,0.0,-9.9999,-10.2509,-10.4807,-10.6679,-10.6908,-10.6908,-10.6908,-10.4418,-10.2373,-10.1391,0.0,0.0,0.0,0.0,0.0,0.0,0.0,0.0,0.0,0.0,0.0,0.0,0.0,0.0,0.0,0.0,0.0,0.0,0.0,0.0,0.0,0.0,0.0,0.0,0.0,0.0,0.0,0.0,0.0,0.0,0.0,0.0,0.0,0.0,0.0,0.0,0.0,0.0,0.0,0.0,0.0,0.0,0.0,0.0,0.0,0.0,0.0,0.0,0.0,0.0,0.0,0.0,0.0,0.0,0.0,0.0,0.0,0.0,0.0,0.0,0.0,0.0,0.0,0.0,0.0,0.0,0.0,0.0,0.0,0.0,0.0,0.0,0.0,0.0,0.0,0.0,0.0,0.0,0.0,0.0,0.0,0.0,0.0,0.0,0.0,0.0,0.0,0.0,0.0,0.0,0.0,0.0,0.0,0.0,0.0,0.0,0.0,0.0,0.0,0.0,0.0,0.0,-10.1308,-10.3288,-10.5303,-10.7596,-10.7596,-10.7405,-10.7405,-10.5206,-10.33,-10.1884,0.0,0.0,0.0,0.0,0.0,0.0,0.0,0.0,0.0,0.0,0.0,0.0,0.0,0.0,0.0,0.0,0.0,0.0,0.0,0.0,0.0,0.0,0.0,0.0,0.0,0.0,0.0,0.0,0.0,0.0,0.0,0.0,0.0,0.0,0.0,0.0,0.0,0.0,0.0,0.0,0.0,0.0,0.0,0.0,0.0,0.0,0.0,0.0,0.0,0.0,0.0,0.0,0.0,0.0,0.0,0.0,0.0,0.0,0.0,0.0,0.0,0.0,0.0,0.0,0.0,0.0,0.0,0.0,0.0,0.0,0.0,0.0,0.0,0.0,0.0,0.0,0.0,0.0,0.0,0.0,0.0,0.0,0.0,0.0,0.0,0.0,0.0,0.0,0.0,0.0,0.0,0.0,0.0,0.0,0.0,0.0,0.0,0.0,0.0,0.0,0.0,0.0,-10.2591,-10.389,-10.5686,-10.8895,-10.8589,-10.8207,-10.8284,-10.6617,-10.4519,-10.2116,0.0,0.0,0.0,0.0,0.0,0.0,0.0,0.0,0.0,0.0,0.0,0.0,0.0,0.0,0.0,0.0,0.0,0.0,0.0,0.0,0.0,0.0,0.0,0.0,0.0,0.0,0.0,0.0,0.0,0.0,0.0,0.0,0.0,0.0,0.0,0.0,0.0,0.0,0.0,0.0,0.0,0.0,0.0,0.0,0.0,0.0,0.0,0.0,0.0,0.0,0.0,0.0,0.0,0.0,0.0,0.0,0.0,0.0,0.0,0.0,-9.291,-9.2392,0.0,0.0,0.0,0.0,0.0,0.0,0.0,0.0,0.0,0.0,0.0,0.0,0.0,0.0,0.0,0.0,0.0,0.0,0.0,0.0,0.0,0.0,0.0,0.0,0.0,0.0,0.0,0.0,0.0,0.0,0.0,0.0,0.0,0.0,0.0,0.0,0.0,0.0,0.0,0.0,-10.1712,-10.3508,-10.5418,-10.8207,-10.8284,-10.8513,-10.9124,-10.6897,-10.5002,-10.388,-10.1294,0.0,0.0,0.0,0.0,0.0,0.0,0.0,0.0,0.0,0.0,0.0,0.0,0.0,0.0,0.0,0.0,0.0,0.0,0.0,0.0,0.0,0.0,0.0,0.0,0.0,0.0,0.0,0.0,0.0,0.0,0.0,0.0,0.0,0.0,0.0,0.0,0.0,0.0,0.0,0.0,0.0,0.0,0.0,0.0,0.0,0.0,0.0,0.0,0.0,0.0,0.0,0.0,0.0,0.0,0.0,0.0,0.0,0.0,0.0,-9.4073,-9.3443,0.0,0.0,0.0,0.0,0.0,0.0,0.0,0.0,0.0,0.0,0.0,0.0,0.0,0.0,0.0,0.0,0.0,0.0,0.0,0.0,0.0,0.0,0.0,0.0,0.0,0.0,0.0,0.0,0.0,0.0,0.0,0.0,0.0,0.0,0.0,0.0,0.0,0.0,0.0,0.0,-10.282,-10.4616,-10.6412,-10.8513,-10.8398,-10.8398,-10.8819,-10.6795,-10.5077,-10.389,-10.2002,0.0,0.0,0.0,0.0,0.0,0.0,0.0,0.0,0.0,0.0,0.0,0.0,0.0,0.0,0.0,0.0,0.0,0.0,0.0,0.0,0.0,0.0,0.0,0.0,0.0,0.0,0.0,0.0,0.0,0.0,0.0,0.0,0.0,0.0,0.0,0.0,0.0,0.0,0.0,0.0,0.0,0.0,0.0,0.0,0.0,0.0,0.0,0.0,0.0,0.0,0.0,0.0,0.0,-9.4338,-9.5102,-9.6019,-9.6019,-9.6019,-9.5981,-9.538,-9.4543,-9.374,-9.5347,0.0,0.0,0.0,0.0,0.0,0.0,0.0,0.0,0.0,0.0,0.0,0.0,0.0,0.0,0.0,0.0,0.0,0.0,0.0,0.0,0.0,0.0,-9.8961,-10.0718,-10.11,-10.0718,-9.9305,0.0,0.0,0.0,0.0,0.0,0.0,0.0,0.0,0.0,0.0,0.0,-10.4004,-10.58,-10.7481,-10.901,-10.8704,-10.8398,-10.8398,-10.6908,-10.5303,-10.3699,-10.282,-10.1502,0.0,0.0,0.0,0.0,0.0,0.0,0.0,0.0,0.0,0.0,0.0,0.0,0.0,0.0,0.0,0.0,0.0,0.0,0.0,0.0,0.0,0.0,0.0,0.0,0.0,0.0,0.0,0.0,0.0,0.0,0.0,0.0,-8.4289,-8.4308,0.0,0.0,0.0,0.0,0.0,0.0,0.0,0.0,0.0,0.0,0.0,0.0,0.0,-9.3075,-9.3701,-9.3838,-9.4723,-9.6401,-9.5751,-9.6248,-9.7776,-9.7776,-9.7776,-9.7776,-9.7662,0.0,-9.5353,-9.6347,0.0,0.0,0.0,0.0,0.0,0.0,0.0,0.0,0.0,0.0,0.0,0.0,0.0,0.0,0.0,0.0,0.0,0.0,0.0,0.0,0.0,0.0,-10.0718,-10.24,-10.2896,-10.2782,-10.2591,-10.1292,-10.0298,-10.0298,-9.9114,-9.812,0.0,0.0,0.0,0.0,0.0,0.0,-10.3087,-10.538,-10.729,-10.8284,-10.8895,-10.9201,-10.9201,-10.7711,-10.6297,-10.5418,-10.4616,-10.3282,-10.1405,-10.0405,0.0,0.0,0.0,0.0,0.0,0.0,0.0,0.0,0.0,0.0,0.0,0.0,0.0,0.0,0.0,0.0,0.0,0.0,0.0,0.0,0.0,0.0,0.0,0.0,0.0,0.0,0.0,0.0,0.0,-8.5091,-8.5511,-8.5015,-8.6505,-8.7536,0.0,0.0,0.0,0.0,0.0,0.0,0.0,0.0,0.0,-9.2215,-9.358,-9.4228,-9.4082,-9.5104,-9.6036,-9.6898,-9.6974,-9.7394,-9.812,-9.812,-9.8388,-9.8846,-9.8846,-9.8426,-9.7776,-9.8158,-9.8006,-9.7547,0.0,0.0,0.0,0.0,-9.6741,-9.7156,-9.75,-9.7669,-9.7776,-9.8044,0.0,0.0,0.0,0.0,0.0,0.0,0.0,-10.0413,-10.11,-10.1712,-10.24,-10.3584,-10.389,-10.4004,-10.4501,-10.3584,-10.2514,-10.1521,-10.0718,-10.0222,-10.0222,-10.0222,0.0,0.0,0.0,-10.3011,-10.3813,-10.5609,-10.7214,-10.8093,-10.8093,-10.8207,-10.8704,-10.7214,-10.5915,-10.4998,-10.4504,-10.368,-10.2296,-10.1826,-10.0796,0.0,0.0,0.0,0.0,0.0,0.0,0.0,0.0,0.0,0.0,0.0,0.0,0.0,0.0,0.0,0.0,0.0,0.0,0.0,0.0,0.0,0.0,0.0,0.0,0.0,0.0,0.0,0.0,-8.555,-8.6237,-8.5588,-8.7231,-8.8415,0.0,0.0,0.0,0.0,0.0,0.0,-9.1778,-9.3038,-9.3638,-9.3411,-9.4914,-9.5485,-9.501,-9.6324,-9.7295,-9.7853,-9.8464,-9.8884,-9.9075,-9.9075,-9.9419,-9.9992,-9.9992,-10.0183,-10.0298,-9.9649,-9.9037,-9.8426,-9.8426,-9.8174,-9.7769,-9.7623,-9.8021,-9.8686,-9.8709,-9.9152,-9.9649,-9.9458,-9.9419,-9.9343,-9.8884,0.0,0.0,0.0,0.0,-10.2018,-10.24,-10.3011,-10.3699,-10.4501,-10.4692,-10.4921,-10.5609,-10.5189,-10.431,-10.282,-10.24,-10.2209,-10.2209,-10.2209,0.0,-10.3087,-10.389,-10.4386,-10.4386,-10.6106,-10.7481,-10.8093,-10.7596,-10.7481,-10.8093,-10.6717,-10.5418,-10.4807,-10.4607,-10.41,-10.3108,-10.271,-10.1817,-10.0213,0.0,0.0,0.0,0.0,0.0,0.0,0.0,0.0,0.0,0.0,0.0,0.0,0.0,0.0,0.0,0.0,0.0,0.0,0.0,0.0,0.0,0.0,0.0,0.0,0.0,0.0,0.0,0.0,0.0,-8.5511,-8.7727,0.0,0.0,0.0,0.0,-9.0555,-9.2045,-9.2618,-9.1854,-9.4146,-9.5417,-9.528,-9.618,-9.6981,-9.7706,-9.7782,-9.873,-10.0413,-10.0489,-10.0909,-10.1712,-10.1712,-10.1712,-10.1788,-10.1788,-10.2209,-10.2782,-10.0375,-9.9381,-9.9343,-9.9343,-9.9693,-10.0094,-9.9488,-9.9693,-10.0323,-10.0404,-10.0489,-10.0795,-10.24,-10.2896,-10.2591,-10.0986,-10.11,0.0,0.0,-10.1826,-10.2323,-10.389,-10.431,-10.4616,-10.5418,-10.5609,-10.5609,-10.5724,-10.5686,-10.5418,-10.4501,-10.3699,-10.3087,-10.3087,0.0,-10.3087,-10.3202,-10.389,-10.4386,-10.4386,-10.6603,-10.8207,-10.8207,-10.8207,-10.8207,-10.8207,-10.6717,-10.5724,-10.5609,-10.5523,-10.5015,-10.3983,-10.3015,-10.2007,-10.1085,-9.9455,0.0,0.0,0.0,0.0,0.0,0.0,0.0,0.0,0.0,0.0,0.0,0.0,0.0,0.0,0.0,0.0,0.0,0.0,0.0,0.0,0.0,0.0,0.0,0.0,0.0,0.0,0.0,0.0,-8.7116,-8.9308,0.0,-9.0899,-9.1637,-9.2111,-9.2198,-9.2771,-9.3421,-9.4185,-9.5102,-9.605,-9.6981,-9.8354,-9.9231,-9.9498,-10.0604,-10.1516,-10.2285,-10.1712,-10.1903,-10.2705,-10.2209,-10.2209,-10.2705,-10.2705,-10.2896,-10.3087,-10.2209,-10.1483,-10.0986,-10.0986,-10.0801,-10.0375,-10.0901,-10.1082,-10.129,-10.2008,-10.2285,-10.24,-10.3011,-10.3202,-10.3087,-10.2476,-10.2514,-10.2705,-10.2705,-10.3087,-10.3813,-10.4921,-10.5609,-10.6182,-10.7099,-10.729,-10.729,-10.729,-10.6908,-10.6412,-10.6106,-10.4883,-10.4004,-10.4004,-10.4004,-10.4195,-10.4692,-10.5112,-10.5189,-10.5189,-10.5991,-10.6794,-10.729,-10.6908,-10.6794,-10.729,-10.6297,-10.5674,-10.56,-10.5396,-10.5087,-10.4687,-10.4209,-10.3301,-10.1881,-10.1079,-9.9982,0.0,0.0,0.0,0.0,0.0,0.0,0.0,0.0,0.0,0.0,0.0,0.0,0.0,0.0,0.0,0.0,0.0,0.0,0.0,0.0,0.0,0.0,0.0,0.0,0.0,-8.6696,-8.7651,-8.8797,-9.0525,-9.174,-9.2198,-9.2624,-9.306,-9.3513,-9.3803,-9.4567,-9.5942,-9.6554,-9.7463,-9.8768,-9.9889,-10.0715,-10.1287,-10.2203,-10.3015,-10.3584,-10.3011,-10.3011,-10.3584,-10.3011,-10.3087,-10.3584,-10.3584,-10.3813,-10.4004,-10.4004,-10.3508,-10.2705,-10.239,-10.1797,-10.1317,-10.1887,-10.2295,-10.2576,-10.3615,-10.4018,-10.4004,-10.4004,-10.4004,-10.4004,-10.3699,-10.3584,-10.3584,-10.3584,-10.4195,-10.4998,-10.5915,-10.6717,-10.7481,-10.8093,-10.822,-10.8119,-10.8207,-10.7495,-10.682,-10.6908,-10.58,-10.4807,-10.4807,-10.4807,-10.5112,-10.5991,-10.5915,-10.58,-10.6106,-10.6412,-10.6717,-10.729,-10.7099,-10.7099,-10.729,-10.6476,-10.5892,-10.5485,-10.5304,-10.5094,-10.4985,-10.4487,-10.3577,-10.2289,-10.1284,-10.0104,-9.8621,0.0,0.0,0.0,0.0,0.0,0.0,0.0,0.0,0.0,0.0,0.0,0.0,0.0,0.0,0.0,0.0,0.0,0.0,0.0,0.0,0.0,0.0,0.0,-8.6696,-8.7575,-8.8759,-9.0402,-9.125,-9.2084,-9.3055,-9.3082,-9.3441,-9.443,-9.5255,-9.6057,-9.6936,-9.8502,-9.9763,-10.0604,-10.0718,-10.1483,-10.3202,-10.24,-10.282,-10.4386,-10.4386,-10.4386,-10.4386,-10.4386,-10.4386,-10.4386,-10.4386,-10.4921,-10.5724,-10.5724,-10.5189,-10.4425,-10.34,-10.2893,-10.2803,-10.2803,-10.322,-10.3976,-10.5104,-10.56,-10.5724,-10.5724,-10.5724,-10.5609,-10.4807,-10.4501,-10.4501,-10.4501,-10.5112,-10.5915,-10.6794,-10.7596,-10.8207,-10.8284,-10.822,-10.8105,-10.8195,-10.7495,-10.6808,-10.6922,-10.6297,-10.5724,-10.5724,-10.5724,-10.5991,-10.6679,-10.6182,0.0,-10.6794,-10.7596,-10.8093,-10.8207,-10.8895,-10.901,-10.8207,-10.7279,-10.6401,-10.5498,-10.5224,-10.4985,-10.5023,-10.3909,-10.2979,-10.2109,-10.0193,-9.9045,-9.8708,0.0,0.0,0.0,0.0,0.0,0.0,0.0,0.0,0.0,0.0,0.0,0.0,0.0,0.0,0.0,0.0,0.0,0.0,0.0,0.0,0.0,-8.6467,-8.6543,-8.6772,-8.8071,-8.937,-9.0478,-9.2319,-9.3861,-9.4834,-9.5372,-9.6036,-9.699,-9.728,-9.7776,-9.8655,-9.9152,-9.9763,-10.0604,-10.1788,-10.2705,-10.3202,-10.4195,-10.4921,-10.5303,-10.4692,-10.4692,-10.5303,-10.4692,-10.4692,-10.5303,-10.5303,-10.5495,-10.5724,-10.6297,-10.6412,-10.6106,-10.5293,-10.4493,-10.3909,-10.4621,-10.5002,-10.5193,-10.5497,-10.5699,-10.58,-10.6412,-10.6603,-10.6603,-10.6985,-10.6604,-10.621,-10.6998,-10.6795,-10.6783,-10.8297,-10.8895,-10.9201,-10.9889,-10.99,-10.9795,-10.9886,-10.8715,-10.7697,-10.7711,-10.6604,-10.5724,-10.5724,-10.5724,-10.58,-10.5991,-10.58,-10.58,-10.5991,-10.622,-10.6603,-10.7214,-10.7481,-10.7495,-10.7088,-10.7418,-10.6895,-10.5197,-10.561,-10.5575,-10.4922,-10.461,-10.3869,-10.2802,-10.1694,-10.1007,0.0,0.0,0.0,0.0,0.0,0.0,0.0,0.0,0.0,0.0,0.0,0.0,0.0,0.0,0.0,0.0,0.0,0.0,0.0,0.0,0.0,0.0,-8.7727,-8.8395,-8.8395,-8.9218,-9.0287,-9.151,-9.3463,-9.5082,-9.6057,-9.6784,-9.76,-9.8556,-9.8655,-9.919,-10.0413,-10.0413,-10.0986,-10.2209,-10.2782,-10.3508,-10.4195,-10.4883,-10.5303,-10.5724,-10.5189,-10.5189,-10.5724,-10.5189,-10.5418,-10.6182,-10.6182,-10.6412,-10.6794,-10.6908,-10.7099,-10.7405,0.0,0.0,0.0,0.0,-10.5905,-10.5587,-10.5587,-10.5904,-10.6297,-10.6679,-10.7099,-10.7481,-10.8016,-10.7813,-10.7495,-10.7991,-10.8004,-10.8106,-10.9099,-10.9697,-11.0118,-11.0576,-11.0611,-11.0401,-11.052,-10.9383,-10.8415,-10.851,-10.7392,0.0,-10.6197,-10.5802,-10.5917,-10.6604,-10.6413,-10.6375,-10.7189,-10.7214,-10.7405,-10.7902,-10.8195,-10.8195,-10.78,-10.8087,0.0,0.0,0.0,-10.5795,-10.4789,-10.441,0.0,0.0,0.0,-10.1799,-10.2005,-10.1896,0.0,0.0,-9.9982,-10.0124,0.0,0.0,0.0,0.0,0.0,0.0,0.0,0.0,0.0,0.0,0.0,0.0,0.0,0.0,0.0,0.0,-8.9141,-9.0669,-9.0861,-9.0975,-9.1625,-9.3191,-9.4707,-9.5998,-9.7089,-9.7723,-9.8501,-9.961,-9.9687,-10.0413,-10.2018,-10.2018,0.0,0.0,0.0,-10.4081,-10.5724,-10.4921,-10.4998,-10.58,-10.5724,-10.5724,-10.5724,-10.5724,-10.6106,-10.6908,-10.6908,-10.7405,-10.8093,-10.7481,-10.7711,-10.8513,-10.8118,-10.799,-10.7914,-10.7021,-10.6323,-10.5816,-10.5816,0.0,0.0,-10.7176,-10.7711,-10.8398,-10.8513,-10.8398,-10.8297,-10.8398,-10.8908,-10.9405,-10.9481,-11.0118,-11.0691,-11.0691,-11.0481,-11.0395,-11.0504,-10.9589,-10.8907,-10.9078,-10.8289,-10.7398,-10.6921,-10.6108,-10.6096,-10.7583,-10.7189,-10.7317,-10.8984,-10.9315,-10.9315,-10.9392,-10.9988,0.0,-10.9196,-10.899,-10.8214,-10.6401,-10.6098,-10.5575,-10.4702,-10.3878,-10.35,-10.35,-10.2411,-10.2093,-10.2601,-10.2202,-10.2694,-10.37,-10.2505,-10.2202,0.0,0.0,0.0,0.0,0.0,0.0,0.0,0.0,0.0,0.0,0.0,0.0,0.0,0.0,0.0,-8.9523,-9.0287,-9.109,-9.2427,-9.3229,-9.4032,-9.4987,-9.5996,-9.7219,-9.877,-9.9014,-9.974,-10.1292,-10.1406,-10.1903,-10.2896,-10.2896,-10.3087,-10.3393,-10.389,-10.4692,-10.5724,-10.5495,-10.5915,-10.6679,-10.5991,0.0,-10.5724,-10.5724,-10.6106,-10.6908,-10.6908,-10.7405,-10.8207,-10.8704,-10.9392,-11.008,-10.8717,-10.822,-10.8081,-10.7902,-10.7813,-10.7699,-10.7699,-10.78,-10.8093,-10.8704,-10.901,-10.9315,-11.0003,-10.9582,0.0,-11.0016,-10.9697,-10.9416,-11.0207,-11.0576,-11.0691,-11.0691,-11.0599,-11.0401,-11.0395,-10.9616,-10.8886,-10.8907,-10.7707,-10.6887,-10.73,-10.6891,-10.6591,-10.6897,-10.6884,-10.7189,-10.8322,-10.8398,-10.8704,-10.9315,-10.9416,-10.9284,-10.91,-10.9505,-10.8688,-10.6297,-10.551,-10.4989,-10.4809,-10.4619,-10.4505,-10.4505,-10.3995,-10.4025,-10.4307,-10.4017,-10.4092,-10.4496,-10.3382,-10.3412,0.0,0.0,0.0,0.0,0.0,0.0,0.0,0.0,0.0,0.0,0.0,-8.6275,-8.6734,0.0,-8.9141,-9.0402,-9.2007,-9.3268,-9.3688,-9.5216,-9.6095,-9.5637,-9.6706,-9.8006,-9.9266,-10.0183,-10.0986,-10.1826,-10.2285,-10.2896,-10.3813,-10.3813,-10.4004,-10.4386,-10.4807,-10.5303,-10.5724,-10.6106,-10.6488,-10.6908,-10.6908,-10.6985,-10.6985,-10.6985,-10.7405,-10.8207,-10.8207,-10.8589,-10.9506,-10.9889,-11.0118,-11.0003,-10.9583,-10.9201,-10.8819,-10.8819,-10.8513,-10.8207,-10.8207,-10.8513,-10.8895,-10.9315,-10.9697,-11.0118,-11.0576,-11.0296,-11.0117,-11.0614,-11.0296,-11.0117,-11.0614,-11.0691,-11.0691,-11.0691,-11.0587,-11.0493,-11.0373,-10.9921,-10.9505,-10.9505,-10.8516,-10.7804,-10.8128,-10.7583,-10.7287,-10.7783,-10.79,-10.8283,-10.929,-10.9086,-10.9086,-11.0003,-10.9097,-10.8594,-10.8997,-10.8394,-10.7805,-10.7377,-10.5709,-10.4989,-10.5406,-10.5482,-10.5482,-10.5482,-10.5715,-10.5904,-10.6012,-10.5488,-10.5299,-10.5406,-10.439,-10.4277,0.0,0.0,0.0,0.0,0.0,0.0,0.0,-8.5167,-8.5588,-8.4938,-8.6008,-8.7154,-8.7498,-8.9218,-9.0784,-9.1243,-9.3726,-9.5446,-9.4949,-9.6745,-9.7662,-9.6477,-9.7547,-9.877,-9.9801,-10.11,-10.2018,-10.24,-10.3011,-10.3813,-10.4616,-10.4692,-10.4998,-10.5686,-10.5915,-10.5991,-10.622,-10.6794,-10.7214,-10.7405,-10.7902,-10.8207,-10.8207,-10.8207,-10.8589,-10.9392,-10.9621,-11.0118,-11.0691,-11.0691,-11.0309,-10.9697,-11.0385,-11.0309,-10.9697,-10.9697,-10.9201,-10.8704,-10.8704,-10.9086,-10.9697,-10.9697,-11.0118,-11.0691,-11.0691,-11.0691,-11.0691,-11.0691,-11.0691,-11.0691,-11.0691,-11.0691,-11.0691,-11.0691,-11.0613,-11.0508,-11.0481,-11.0291,-11.0113,-11.0208,-10.9505,-10.8926,-10.9021,-10.8402,-10.8094,-10.8703,-10.8883,-10.9295,-11.0092,-10.9889,-10.9889,-11.0385,-10.9006,-10.8311,-10.8904,-10.7208,-10.6808,-10.8514,-10.6391,-10.5406,-10.6277,-10.6277,-10.6277,-10.6277,-10.6998,-10.7301,-10.7301,-10.6505,-10.6088,-10.6088,-10.5178,-10.4799,-8.9554,-8.8385,-8.7178,-8.693,-8.626,-8.5628,0.0,-8.6046,-8.6658,-8.6543,-8.7307,-8.8415,-8.9905,-9.0402,-9.1319,-9.3535,-9.4834,-9.5828,-9.6515,-9.7471,-9.8311,-9.8923,-9.9152,-9.9878,-10.1521,-10.1788,-10.2514,-10.4004,-10.4195,-10.4616,-10.5495,-10.5609,-10.5609,-10.5724,-10.6412,-10.7099,-10.7902,-10.8016,-10.8398,-10.9124,-10.8513,-10.8207,-10.8207,-10.8207,-10.8589,-10.943,-11.0194,-11.0614,-11.0691,-11.0691,-11.0614,-11.0576,-11.0691,-11.0614,-11.0576,-11.0576,-11.05,-11.0385,-11.0385,-11.05,-11.0576,-11.0576,-11.0614,-11.0691,-11.0691,-11.0691,-11.0691,-11.0691,-11.0691,-11.0691,-11.0691,-11.0691,-11.0691,-11.0691,-11.0691,-11.0601,-11.0508,-11.0493,-11.0412,-11.0123,-10.9495,-10.9087,-10.9596,-10.9192,-10.8589,-10.8018,-10.8583,-10.8982,-10.8488,-10.9697,-11.0309,-10.9621,-10.9199,-10.9013,-10.8812,-10.7084,-10.6808,-10.8514,-10.6884,-10.6277,-10.7111,-10.7225,-10.7225,-10.7225,-10.7301,-10.7301,-10.7301,-10.6505,-10.6088,-10.6088,-10.5178,-10.4799,-8.8175,-8.7485,-8.6968,-8.6852,-8.6603,-8.6335,-8.6275,-8.6925,-8.7422,-8.6925,-8.8262,-8.9791,-9.0478,-9.2198,-9.3841,-9.4911,-9.6592,-9.7776,-9.7623,-9.8732,-9.9343,-9.8732,-9.9496,-10.0604,-10.1788,-10.24,-10.3087,-10.431,-10.4921,-10.5303,-10.5724,-10.6106,-10.6412,-10.6412,-10.7214,-10.7787,-10.8207,-10.8704,-10.9124,-10.9392,-10.9583,-10.9697,-10.9697,-10.9697,-10.9812,-11.0194,-11.05,-11.0691,-11.0691,-11.0691,-11.0691,-11.0691,-11.0691,-11.0691,-11.0691,-11.0691,-11.0691,-11.0691,-11.0691,-11.0691,-11.0691,-11.0691,-11.0691,-11.0691,-11.0691,-11.0691,-11.0691,-11.0691,-11.0691,-11.0691,-11.0691,-11.0691,-11.0691,-11.0691,-11.0691,-11.0703,-11.0508,-11.0481,-11.0401,-11.0094,-10.9505,-10.9229,-10.971,-10.9296,-10.8782,-10.8485,-10.9307,-10.9886,-10.9697,-10.9812,-10.9596,-10.8717,-10.8811,-10.8886,-10.8784,-10.7615,-10.749,-10.9196,-10.7718,-10.7187,-10.8021,-10.8097,-10.8097,-10.8097,-10.8514,-10.8817,-10.8817,-10.7415,-10.6808,-10.6808,-10.5406,-10.4799,-8.8194,-8.783,-8.7599,-8.7598,-8.7367,-8.7194,-8.7194,-8.8015,-8.8606,-8.7995,-8.9676,-9.1357,-9.1625,-9.3803,-9.5675,-9.5904,-9.7891,-9.919,-9.8541,-9.9496,-9.984,-9.8617,-9.9534,-10.0604,-10.1521,-10.2514,-10.3584,-10.4692,-10.5303,-10.5724,-10.5724,-10.6488,-10.6908,-10.6908,-10.8016,-10.8513,-10.8513,-10.9315,-10.9812,-10.9812,-11.0385,-11.0691,-11.0691,-11.0691,-11.0691,-11.0691,-11.0691,-11.0691,-11.0691,-11.0691,-11.0691,-11.0691,-11.0691,-11.0691,-11.0691,-11.0691,-11.0691,-11.0691,-11.0691,-11.0882,-11.1111,-11.1111,-11.1111,-11.1111,-11.1111,-11.0882,-11.0691,-11.0691,-11.0691,-11.0691,-11.0691,-11.0882,-11.1111,-11.1111,-11.1188,-11.1315,-11.0889,-11.0889,-11.0721,-11.0094,-10.9685,-10.9485,-10.9786,-10.9495,-10.9211,-10.9284,-10.9992,-11.0382,-11.0118,-10.9596,-10.9098,-10.841,-10.8599,-10.8812,-10.8878,-10.791,-10.8021,-10.9689,-10.8514,-10.8021,-10.8893,-10.8893,-10.8893,-10.8893,-10.9499,-10.9802,-10.9802,-10.8097,-10.7415,-10.7604,-10.5898,-10.5292,-9.0742,-9.0109,-8.9438,-8.9497,-8.8845,-8.8155,-8.8155,-8.9414,-9.0517,-9.0517,-9.1854,-9.3268,-9.4146,-9.5025,-9.5866,-9.6706,-9.8273,-9.9381,-9.9343,-9.9381,-9.9419,-9.9381,-9.9419,-9.9763,-10.0604,-10.2209,-10.389,-10.5495,-10.5724,-10.5724,-10.5724,-10.6488,-10.6908,-10.6908,-10.8513,-10.9392,-10.9392,-11.0194,-11.0691,-11.0691,-11.0691,-11.0691,-11.0691,-11.0691,-11.0691,-11.0691,-11.0691,-11.0691,-11.0691,-11.0691,-11.0691,-11.0691,-11.0691,-11.0691,-11.0691,-11.0691,-11.0691,-11.0691,-11.0691,-11.1302,-11.199,-11.199,-11.199,-11.199,-11.199,-11.1379,-11.0691,-11.0691,-11.0691,-11.0691,-11.0691,-11.1302,-11.199,-11.199,-11.2601,-11.2893,-11.1919,-11.1809,-11.1591,-11.0275,-11.0187,-11.0308,-10.9929,-11.0104,-11.0301,-11.0301,-11.0373,-11.0,-10.8488,-10.8805,-10.9185,-10.9185,-10.8876,-10.8878,-10.898,-10.8005,-10.8021,-10.9689,-10.9006,-10.8893,-10.9689,-10.9802,-10.9802,-10.9802,-10.9802,-10.9802,-10.9802,-10.8097,-10.7718,-10.8514,-10.6808,-10.6505,-9.0168,-9.0244,-9.0455,-9.0547,-9.0373,-9.0431,-9.1584,-9.1759,-9.1643,-9.1541,-9.2355,-9.3022,-9.2839,-9.4343,-9.5888,-9.6795,-9.8318,-9.9572,-10.0107,-10.0183,-9.9992,-9.9458,-9.9878,-10.0489,-10.1406,-10.2018,-10.3011,-10.4692,-10.4807,-10.5112,-10.5686,-10.6985,-10.7787,-10.7787,-10.9392,-11.0309,-11.0309,-11.0576,-11.0691,-11.0691,-11.0691,-11.0691,-11.0691,-11.0691,-11.0691,-11.0691,-11.0691,-11.0691,-11.0691,-11.0691,-11.0691,-11.0691,-11.0691,-11.0691,-11.0691,-11.0691,-11.0691,-11.0691,-11.0691,-11.1302,-11.199,-11.199,-11.241,-11.2792,-11.2792,-11.2601,-11.241,-11.241,-11.199,-11.1684,-11.2219,-11.2181,-11.2105,-11.2716,-11.2904,-11.2797,-11.1821,-11.1713,-11.1408,-11.017,-11.0208,-11.0301,-11.0008,-10.9999,-11.018,-11.0412,-11.0496,-11.0422,-10.9798,-10.9818,-10.99,-10.99,-10.9686,-10.9495,-10.9676,-10.92,-10.9196,-10.9802,-10.9499,-10.9499,-10.9802,-10.9802,-10.9802,-10.9802,-10.9802,-10.9802,-10.9802,-10.8703,-10.8324,-10.8589,-10.7415,-10.6998,-9.0685,-9.1203,-9.1931,-9.2088,-9.2105,-9.2357,-9.3474,-9.3423,-9.3025,-9.2581,-9.311,-9.3353,-9.2574,-9.3948,-9.5533,-9.6401,-9.7697,-9.8953,-10.0023,-9.9939,-9.9649,-9.9419,-10.0107,-10.0795,-10.1406,-10.2018,-10.3087,-10.4692,-10.4921,-10.5189,-10.6106,-10.7405,-10.8284,-10.8589,-11.0003,-11.0691,-11.0691,-11.0691,-11.0691,-11.0691,-11.0997,-11.1188,-11.1188,-11.1493,-11.1608,-11.1608,-11.1302,-11.1188,-11.1111,-11.0806,-11.0691,-11.0691,-11.0691,-11.0691,-11.0691,-11.0691,-11.0882,-11.1188,-11.1188,-11.1684,-11.2487,-11.2792,-11.3213,-11.3709,-11.3709,-11.3404,-11.3213,-11.3213,-11.2792,-11.2487,-11.3098,-11.3022,-11.2983,-11.3518,-11.3782,-11.3598,-11.2278,-11.2094,-11.1789,-11.0408,-11.018,-11.0208,-10.999,-11.0094,-11.0208,-11.0493,-11.0613,-11.0575,-11.0504,-11.0395,-11.0312,-11.018,-10.9988,-10.99,-10.9999,-10.9891,-10.9802,-10.9802,-10.9802,-10.9802,-10.9802,-10.9802,-10.9802,-10.9802,-10.9802,-10.9802,-10.9802,-10.9006,-10.8703,-10.9006,-10.821,-10.7907,-9.2353,-9.3005,-9.3733,-9.4012,-9.399,-9.3885,-9.3924,-9.4415,-9.4559,-9.362,-9.3941,-9.4088,-9.3246,-9.3799,-9.4718,-9.5657,-9.6516,-9.7626,-9.931,-9.88,-9.8541,-9.9419,-10.0183,-10.0718,-10.0795,-10.2285,-10.4004,-10.5609,-10.5724,-10.6106,-10.6908,-10.7787,-10.8589,-10.9392,-11.0194,-11.0691,-11.0691,-11.0691,-11.0691,-11.0691,-11.1493,-11.199,-11.199,-11.2792,-11.3098,-11.3098,-11.2296,-11.199,-11.1914,-11.1111,-11.0806,-11.0806,-11.0806,-11.0806,-11.0806,-11.0806,-11.1379,-11.2105,-11.2105,-11.2601,-11.3404,-11.4206,-11.4512,-11.4588,-11.4588,-11.4015,-11.3327,-11.3327,-11.3289,-11.3289,-11.3289,-11.39,-11.4474,-11.4588,-11.5123,-11.5184,-11.3407,-11.3183,-11.2687,-11.0776,-11.0378,-11.0312,-11.0104,-11.0218,-11.0395,-11.052,-11.0613,-11.0587,-11.0291,-11.0301,-11.0208,-10.9999,-10.9891,-10.99,-11.0008,-10.9891,-10.9802,-10.9802,-10.9802,-10.9802,-10.9802,-10.9802,-10.9802,-10.9802,-10.9802,-10.9802,-10.9802,-10.9006,-10.912,-10.9802,-10.9006,-10.912,-9.3174,-9.3982,-9.4708,-9.4998,-9.5038,-9.5208,-9.5763,-9.5036,-9.4111,-9.3639,-9.3081,-9.2386,-9.1623,-9.2574,-9.3982,-9.5521,-9.6948,-9.8395,-10.0115,-10.0092,-10.0298,-10.1215,-10.1406,-10.2094,-10.3317,-10.3813,-10.4807,-10.6488,-10.5991,-10.6106,-10.6908,-10.8284,-10.9201,-10.9392,-11.0194,-11.0691,-11.0691,-11.0691,-11.0691,-11.0691,-11.0882,-11.1379,-11.199,-11.2181,-11.2296,-11.2296,-11.2105,-11.1608,-11.1111,-11.1493,-11.1684,-11.1684,-11.2296,-11.2601,-11.2601,-11.2601,-11.2716,-11.3022,-11.3595,-11.3977,-11.4206,-11.4397,-11.4894,-11.5391,-11.5391,-11.52,-11.5085,-11.5085,-11.4588,-11.4283,-11.4894,-11.4779,-11.4703,-11.5314,-11.5501,-11.5304,-11.4208,-11.3979,-11.3598,-11.2513,-11.18,-11.1097,-11.0388,-11.0281,-11.052,-11.0575,-11.0587,-11.052,-11.0329,-11.0301,-11.0189,-10.9891,-10.9794,-10.9802,-10.9824,-10.9794,-10.9794,-10.9903,-10.99,-10.9824,-10.9903,-10.99,-10.9802,-10.9802,-10.9802,-10.9802,-10.9802,-10.9613,-10.9613,-10.9802,-10.9613,-10.9613,-9.4187,-9.4937,-9.57,-9.5965,-9.6057,-9.6057,-9.6074,-9.5308,-9.4342,-9.3326,-9.2584,-9.1874,-9.1088,-9.1872,-9.3266,-9.5054,-9.6351,-9.7856,-9.9922,-10.0489,-10.1017,-10.1788,-10.2514,-10.3508,-10.4807,-10.5303,-10.5991,-10.7405,-10.6717,-10.6717,-10.7902,-10.8895,-10.9812,-11.05,-11.0614,-11.0882,-11.1302,-11.1302,-11.1302,-11.1302,-11.1608,-11.2105,-11.2601,-11.3289,-11.3595,-11.3595,-11.3289,-11.2792,-11.241,-11.2487,-11.2487,-11.2601,-11.3022,-11.3213,-11.3213,-11.3213,-11.3404,-11.3786,-11.4283,-11.4703,-11.5008,-11.5008,-11.5314,-11.5696,-11.5696,-11.5696,-11.5696,-11.5696,-11.5391,-11.5085,-11.5582,-11.5391,-11.5085,-11.5582,-11.5588,-11.5287,-11.4409,-11.4181,-11.3799,-11.2693,-11.2007,-11.1408,-11.0488,-11.0504,-11.0496,-11.0703,-11.0601,-11.0508,-11.0291,-11.0208,-11.0104,-10.9794,-10.9802,-10.9802,-10.9802,-10.9802,-10.99,-10.9999,-10.9891,-10.99,-10.9999,-10.9891,-10.9802,-10.9802,-10.9802,-10.9802,-10.9802,-10.9802,-10.9802,-10.9802,-10.9802,-10.9802,-9.5413,-9.6047,-9.6772,-9.6901,-9.6845,-9.6575,-9.5594,-9.5193,-9.4589,-9.3012,-9.2484,-9.2065,-9.1297,-9.1855,-9.2987,-9.4657,-9.5654,-9.7107,-9.9675,-10.0601,-10.1293,-10.2094,-10.3508,-10.4807,-10.58,-10.6488,-10.729,-10.8284,-10.7711,-10.7902,-10.9315,-10.9621,-11.05,-11.2105,-11.1417,-11.1379,-11.2181,-11.2181,-11.2181,-11.2181,-11.2907,-11.3289,-11.3404,-11.4894,-11.5505,-11.5505,-11.4779,-11.4397,-11.4283,-11.3595,-11.3404,-11.3404,-11.3518,-11.3518,-11.3518,-11.3518,-11.4015,-11.4703,-11.4703,-11.5085,-11.5696,-11.5696,-11.5696,-11.5696,-11.5696,-11.5696,-11.5696,-11.5696,-11.5696,-11.5696,-11.5696,-11.5696,-11.5696,-11.5696,-11.5588,-11.5314,-11.4486,-11.4409,-11.3914,-11.2312,-11.2083,-11.1805,-11.0977,-11.0813,-11.079,-11.0971,-11.092,-11.0702,-11.0509,-11.0189,-11.0008,-10.9802,-10.9802,-10.9802,-10.9802,-10.9802,-10.99,-11.0189,-10.9997,-10.9891,-11.0189,-10.9891,-10.9832,-10.9802,-10.9802,-10.9802,-10.9802,-10.9802,-10.9802,-10.9802,-10.9802,-10.9802,-9.7031,-9.7819,-9.8335,-9.7842,-9.7241,-9.6545,-9.5554,-9.4257,-9.3315,-9.3474,-9.2869,-9.2257,-9.2103,-9.3294,-9.4558,-9.5557,-9.6912,-9.878,-10.1307,-10.169,-10.2309,-10.3813,-10.4195,-10.4998,-10.6488,-10.6794,-10.7481,-10.9124,-10.9124,-10.9124,-10.9392,-11.0806,-11.199,-11.3022,-11.2792,-11.2792,-11.3022,-11.3022,-11.3022,-11.3022,-11.3098,-11.3595,-11.4283,-11.4588,-11.4703,-11.4703,-11.4588,-11.4091,-11.3518,-11.4015,-11.4283,-11.4283,-11.5008,-11.5314,-11.5314,-11.5314,-11.5391,-11.5505,-11.5505,-11.5582,-11.5696,-11.5696,-11.5696,-11.5696,-11.5696,-11.5696,-11.5696,-11.5696,-11.5696,-11.5696,-11.5696,-11.5696,-11.5696,-11.5696,-11.5708,-11.5577,-11.5314,-11.5287,-11.4981,-11.399,-11.3908,-11.3706,-11.2682,-11.2114,-11.2002,-11.2716,-11.2114,-11.1473,-11.1522,-11.0699,-11.0123,-10.9794,-10.9802,-10.9802,-10.9802,-10.9802,-11.0203,-11.1025,-11.0388,-11.0312,-11.0987,-11.0388,-10.9883,-10.9802,-10.9802,-10.9802,-10.9802,-10.9802,-10.9802,-10.9802,-10.9802,-10.9802,-9.8071,-9.8664,-9.8811,-9.8096,-9.7341,-9.6429,-9.4959,-9.3978,-9.3213,-9.2532,-9.2713,-9.2907,-9.2484,-9.3678,-9.5041,-9.5944,-9.6994,-9.8636,-10.1307,-10.1804,-10.2608,-10.4291,-10.5199,-10.6182,-10.7481,-10.8016,-10.8895,-11.0614,-11.0806,-11.0806,-11.0806,-11.241,-11.3289,-11.3213,-11.4015,-11.4321,-11.39,-11.39,-11.39,-11.39,-11.39,-11.4091,-11.4474,-11.4894,-11.5085,-11.5085,-11.5085,-11.4894,-11.4512,-11.5008,-11.5085,-11.52,-11.5505,-11.5696,-11.5696,-11.5696,-11.5696,-11.5696,-11.5696,-11.5696,-11.5696,-11.5696,-11.5696,-11.5696,-11.5696,-11.5696,-11.5696,-11.5696,-11.5696,-11.5696,-11.5696,-11.5696,-11.5696,-11.5696,-11.5604,-11.5599,-11.5505,-11.5515,-11.5314,-11.4519,-11.4523,-11.418,-11.3324,-11.2778,-11.2792,-11.3098,-11.2396,-11.182,-11.1702,-11.0896,-11.0301,-10.9912,-11.0173,-11.0485,-11.0485,-11.0902,-11.1303,-11.1898,-11.1101,-11.0911,-11.1291,-11.0493,-10.9874,-10.9802,-10.9802,-10.9992,-11.0485,-11.0485,-11.0485,-11.0485,-11.0485,-11.0219,-9.8975,-9.9376,-9.9386,-9.8405,-9.748,-9.6336,-9.465,-9.3985,-9.3395,-9.2245,-9.3056,-9.3787,-9.3133,-9.4176,-9.5387,-9.6154,-9.6808,-9.8204,-10.1091,-10.18,-10.2792,-10.4906,-10.6203,-10.7315,-10.841,-10.8972,-11.0118,-11.1914,-11.2296,-11.2487,-11.2487,-11.3595,-11.4091,-11.3709,-11.5008,-11.5391,-11.4779,-11.4779,-11.4779,-11.4779,-11.4779,-11.4779,-11.4779,-11.5391,-11.5696,-11.5696,-11.5696,-11.5696,-11.5696,-11.5696,-11.5696,-11.5696,-11.5696,-11.5696,-11.5696,-11.5696,-11.5696,-11.5696,-11.5696,-11.5696,-11.5696,-11.5696,-11.5696,-11.5696,-11.5696,-11.5696,-11.5696,-11.5696,-11.5696,-11.5696,-11.5696,-11.5696,-11.5696,-11.5696,-11.5588,-11.5477,-11.5505,-11.5505,-11.5418,-11.4905,-11.4779,-11.4512,-11.39,-11.3595,-11.3518,-11.3709,-11.3098,-11.2499,-11.229,-11.1691,-11.1097,-11.0693,-11.0899,-11.1189,-11.1417,-11.1993,-11.2327,-11.2485,-11.1679,-11.1291,-11.1299,-11.0388,-10.9874,-10.9802,-10.9802,-11.0106,-11.0788,-11.0788,-11.0796,-11.0803,-11.0803,-11.05,-9.9861,-10.0709,-10.0918,-9.9448,-9.7897,-9.6452,-9.539,-9.3946,-9.3164,-9.44,-9.4749,-9.4864,-9.4788,-9.5518,-9.6192,-9.6288,-9.6808,-9.8396,-10.18,-10.2095,-10.3182,-10.6591,-10.7002,-10.7607,-10.9298,-10.9391,-11.0118,-11.1914,-11.3404,-11.4283,-11.4283,-11.3709,-11.4015,-11.5391,-11.562,-11.5696,-11.5582,-11.5582,-11.5582,-11.5582,-11.5582,-11.5582,-11.5582,-11.5696,-11.5696,-11.5696,-11.5696,-11.5696,-11.5696,-11.5696,-11.5696,-11.5696,-11.5696,-11.5696,-11.5696,-11.5696,-11.5696,-11.5696,-11.5696,-11.5696,-11.5696,-11.5696,-11.5696,-11.5696,-11.5696,-11.5696,-11.5696,-11.5696,-11.5696,-11.5696,-11.5696,-11.5696,-11.5696,-11.5696,-11.5588,-11.5505,-11.5681,-11.5599,-11.5495,-11.5593,-11.5582,-11.5582,-11.5505,-11.4894,-11.4588,-11.5391,-11.4779,-11.4283,-11.418,-11.4072,-11.3591,-11.2585,-11.1796,-11.1603,-11.2287,-11.2319,-11.2304,-11.2296,-11.1696,-11.1194,-11.1083,-11.0405,-10.9874,-10.9802,-10.9802,-10.9802,-10.9916,-10.9916,-10.9894,-10.9704,-10.9704,-10.9989,-10.0499,-10.121,-10.1318,-10.0115,-9.8621,-9.717,-9.6255,-9.5103,-9.4244,-9.4208,-9.5057,-9.5634,-9.5095,-9.5711,-9.6288,-9.6288,-9.6444,-9.7422,-9.9865,-9.9943,-10.1307,-10.5421,-10.6101,-10.7193,-10.9495,-11.0088,-11.0997,-11.2601,-11.3786,-11.4703,-11.52,-11.4894,-11.5008,-11.5696,-11.5696,-11.5696,-11.5696,-11.5696,-11.5696,-11.5696,-11.5696,-11.5696,-11.5696,-11.5696,-11.5696,-11.5696,-11.5696,-11.5696,-11.5696,-11.5696,-11.5696,-11.5696,-11.5696,-11.5696,-11.5696,-11.5696,-11.5696,-11.5696,-11.5696,-11.5696,-11.5696,-11.5696,-11.5696,-11.5696,-11.5696,-11.5696,-11.5696,-11.5696,-11.5696,-11.5696,-11.5696,-11.5696,-11.5696,-11.5696,-11.5681,-11.5577,-11.5669,-11.5681,-11.5577,-11.5696,-11.5696,-11.5696,-11.5696,-11.5391,-11.5314,-11.5696,-11.5008,-11.4474,-11.4474,-11.4,-11.3717,-11.3778,-11.3289,-11.3003,-11.3304,-11.3789,-11.3895,-11.3401,-11.2709,-11.1986,-11.1425,-11.0579,-11.0094,-10.9912,-10.9794,-11.0106,-11.0598,-11.0507,-11.0605,-11.0996,-11.111,-11.1192,-10.0709,-10.1287,-10.1283,-10.0487,-9.9056,-9.7683,-9.7016,-9.6034,-9.5097,-9.4593,-9.5441,-9.6095,-9.548,-9.5903,-9.6288,0.0,-9.6194,-9.6713,-9.8538,-9.8744,-10.019,-10.4107,-10.5202,-10.6607,-10.9213,-11.0798,-11.2105,-11.3188,-11.4309,-11.5008,-11.5314,-11.5582,-11.5696,-11.5696,-11.5696,-11.5696,-11.5696,-11.5696,-11.5696,-11.5696,-11.5696,-11.5696,-11.5696,-11.5696,-11.5696,-11.5696,-11.5696,-11.5696,-11.5696,-11.5696,-11.5696,-11.5696,-11.5696,-11.5696,-11.5696,-11.5696,-11.5696,-11.5696,-11.5696,-11.5696,-11.5696,-11.5696,-11.5696,-11.5696,-11.5696,-11.5696,-11.5696,-11.5696,-11.5696,-11.5696,-11.5696,-11.5696,-11.5696,-11.5696,-11.5696,-11.5696,-11.5696,-11.5696,-11.5696,-11.5696,-11.5696,-11.5696,-11.5696,-11.5696,-11.5696,-11.5696,-11.52,-11.4894,-11.4894,-11.4321,-11.418,-11.4688,-11.46,-11.4422,-11.4287,-11.4916,-11.4907,-11.4108,-11.3279,-11.2621,-11.19,-11.0778,-11.0303,-11.0379,-11.0005,-11.0106,-11.0712,-11.078,-11.1097,-11.1715,-11.198,-11.2207,-10.0119,-10.0786,-10.1097,-10.0491,-9.9008,-9.7704,-9.7704,-9.6338,-9.5319,-9.6114,-9.6288,-9.6288,-9.6288,-9.6288,-9.6288,-9.6288,0.0,-9.6713,-9.8538,-9.9304,-10.0701,-10.3615,-10.439,-10.5799,-10.8481,-11.1497,-11.3418,-11.3418,-11.482,-11.5314,-11.4588,-11.5314,-11.5696,-11.5696,-11.5696,-11.5696,-11.5696,-11.5696,-11.5696,-11.5696,-11.5696,-11.5696,-11.5696,-11.5696,-11.5696,-11.5696,-11.5696,-11.5696,-11.5696,-11.5696,-11.5696,-11.5696,-11.5696,-11.5696,-11.5696,-11.5696,-11.5696,-11.5696,-11.5696,-11.5696,-11.5696,-11.5696,-11.5696,-11.5696,-11.5696,-11.5696,-11.5696,-11.5696,-11.5696,-11.5696,-11.5696,-11.5696,-11.5696,-11.5696,-11.5696,-11.5696,-11.5696,-11.5696,-11.5696,-11.5696,-11.5696,-11.5696,-11.5696,-11.5696,-11.5696,-11.5696,-11.5696,-11.5696,-11.5696,-11.5696,-11.5604,-11.5505,-11.5615,-11.5604,-11.5477,-11.5412,-11.4907,-11.4108,-11.3194,-11.2775,-11.2775,-11.0997,-11.0379,-11.1291,-11.0309,-10.9802,-10.9802,-11.0712,-11.1,-11.0807,-11.1715,-11.2509,-9.9162,-9.9514,-9.9593,-9.9396,-9.8492,-9.7704,-9.7704,-9.6818,-9.605,-9.6268,-9.6288,-9.6288,-9.6288,-9.6288,-9.6288,-9.6288,-9.6251,-9.6443,-9.7019,-9.8173,-10.0207,-10.35,-10.7488,-11.0119,-11.0209,-11.2776,-11.4081,-11.3291,-11.4885,-11.5688,-11.5276,-11.5582,-11.5696,-11.5696,-11.5696,-11.5696,-11.5696,-11.5696,-11.5696,-11.5696,-11.5696,-11.5696,-11.5696,-11.5696,-11.5696,-11.5696,-11.5696,-11.5696,-11.5696,-11.5696,-11.5696,-11.5696,-11.5696,-11.5696,-11.5696,-11.5696,-11.5696,-11.5696,-11.5696,-11.5696,-11.5696,-11.5696,-11.6117,-11.6499,-11.5887,-11.5696,-11.5696,-11.5696,-11.5696,-11.5696,-11.5696,-11.5696,-11.5696,-11.5696,-11.5696,-11.5696,-11.5696,-11.5696,-11.5696,-11.5696,-11.5696,-11.5696,-11.5696,-11.5696,-11.5696,-11.5696,-11.5696,-11.5696,-11.5696,-11.5696,-11.5708,-11.5604,-11.5708,-11.5604,-11.5477,-11.5495,-11.5217,-11.4377,-11.411,-11.3385,-11.2316,-11.1527,-11.1197,-11.1397,-11.0907,-11.1015,-11.1508,-11.1688,-11.2005,-11.2509,-11.3379,-11.3908,-9.8327,-9.8703,-9.8862,-9.8898,-9.8264,-9.7611,-9.7611,-9.6957,-9.6361,-9.6306,-9.6288,-9.6288,-9.6288,-9.6325,-9.6325,-9.6288,-9.6325,-9.644,-9.6711,-9.8154,-10.0403,-10.3921,-10.8311,-11.1001,-11.0999,-11.3093,-11.4386,-11.4286,-11.5307,-11.579,-11.5696,-11.5696,-11.5696,-11.5696,-11.5696,-11.5696,-11.5696,-11.5696,-11.5696,-11.5696,-11.5696,-11.5696,-11.5696,-11.5696,-11.5696,-11.5696,-11.5696,-11.5696,0.0,-11.5696,-11.5696,-11.5696,-11.5696,-11.5696,-11.5696,-11.5696,-11.5696,-11.5696,-11.5696,-11.5696,-11.5696,-11.5696,-11.6308,-11.6995,-11.669,-11.6193,-11.5696,-11.5696,-11.5696,-11.5696,-11.5696,-11.5696,-11.5696,-11.5696,-11.5696,-11.5696,-11.5696,-11.5696,-11.5696,-11.5696,-11.5696,-11.5696,-11.5696,-11.5696,-11.5696,-11.5696,-11.5696,-11.5696,-11.5696,-11.5696,-11.5696,-11.5696,-11.5696,-11.5708,-11.5599,-11.5681,-11.5505,-11.5008,-11.4703,-11.4206,-11.3404,-11.2503,-11.2185,-11.2395,-11.1869,-11.1796,-11.2304,-11.2515,-11.3096,-11.3891,-11.4383,-11.461,0.0,-9.8198,-9.8615,-9.8726,-9.8055,-9.7403,-9.7403,-9.6826,0.0,-9.6288,-9.6288,-9.6288,-9.6288,-9.6361,-9.6358,-9.6306,-9.6379,-9.6666,-9.7422,-9.9211,-10.1596,-10.4701,-10.7318,-10.952,-11.1093,-11.2805,-11.4421,-11.5891,-11.5906,-11.579,-11.5696,-11.5696,-11.5696,-11.5696,-11.5696,-11.5696,-11.5696,-11.5696,-11.5696,-11.5696,-11.5696,-11.5696,-11.5696,-11.5696,-11.5696,-11.5696,-11.5696,-11.5696,-11.5696,-11.5696,-11.5696,-11.5696,-11.5696,-11.5696,-11.5696,-11.5811,-11.5811,-11.5811,-11.5811,-11.5811,-11.5887,-11.6002,-11.6499,-11.7301,-11.8103,-11.7186,-11.5811,-11.5811,-11.5696,-11.5696,-11.5696,-11.5696,-11.5696,-11.5696,-11.5696,-11.5696,-11.5811,-11.5696,-11.5696,-11.5887,-11.5811,-11.5696,-11.5811,-11.5696,-11.5696,-11.5696,-11.5696,-11.5696,-11.5696,-11.5696,-11.5696,-11.5696,-11.5696,-11.5696,-11.5696,-11.5696,-11.5696,-11.5696,-11.5008,-11.4894,-11.5582,-11.3996,-11.3401,-11.3993,-11.3097,-11.2607,-11.2493,-11.3289,-11.4085,-11.4805,-11.4805,-11.4805,-9.666,0.0,-9.6903,-9.6902,-9.6768,-9.6596,0.0,-9.6442,-9.6288,-9.6288,-9.6288,-9.6288,-9.6288,-9.6361,-9.6358,-9.6306,-9.6379,-9.6666,-9.7422,-10.1095,-10.4488,-10.649,-11.0088,-11.2019,-11.1104,-11.3682,-11.5407,-11.5077,-11.5588,-11.579,-11.5696,-11.5696,-11.5696,-11.5696,-11.5696,-11.5696,-11.5696,-11.5696,-11.5696,-11.5696,-11.5696,-11.5696,-11.5696,-11.5696,-11.5696,-11.5696,-11.5696,-11.5696,-11.5696,-11.5696,-11.5696,-11.5696,-11.5696,-11.5696,-11.5811,-11.6422,-11.669,-11.669,-11.669,-11.711,-11.7798,-11.8409,-11.8294,-11.8103,-11.8982,-11.7989,-11.669,-11.669,-11.6193,-11.5696,-11.5696,-11.5696,-11.5696,-11.5696,-11.5696,-11.5887,-11.6613,-11.6193,-11.6117,-11.7377,-11.6613,-11.5887,-11.6613,-11.6117,-11.5696,-11.5696,-11.5696,-11.5696,-11.5696,-11.5696,-11.5696,-11.5696,-11.5696,-11.5696,-11.5696,-11.5696,-11.5696,-11.5696,-11.5505,-11.52,-11.4779,-11.4301,-11.4011,-11.3993,-11.4223,-11.4192,-11.4199,-11.4389,-11.4578,-11.4805,-11.4805,-11.4805,-9.6361,-9.6325,-9.6288,-9.6288,-9.6288,-9.6288,-9.6288,-9.6288,-9.6288,-9.6288,-9.6288,-9.6403,-9.6788,-9.6592,-9.6628,-9.7345,-9.7169,-9.7668,-9.9577,-10.2804,-10.5695,-10.7724,-11.061,-11.2403,-11.2177,-11.418,-11.5522,-11.532,-11.5715,-11.579,-11.5696,-11.5696,-11.5696,-11.5696,-11.5696,-11.5696,-11.5696,-11.5696,-11.5696,-11.5696,-11.5696,-11.5696,-11.5696,-11.5696,-11.5696,-11.5696,-11.5696,-11.5696,-11.5696,-11.5696,-11.5696,-11.5696,-11.6117,-11.6117,-11.5887,-11.711,-11.711,-11.6499,-11.6919,-11.7301,-11.7912,-11.9097,-11.9211,-11.8982,-11.9785,-11.9211,-11.7989,-11.7225,-11.6422,-11.5811,-11.6193,-11.6308,-11.6384,-11.6804,-11.6881,-11.6995,-11.7492,-11.7186,-11.711,-11.7607,-11.6919,-11.6308,-11.6422,-11.6002,-11.5696,-11.5696,-11.5696,-11.5696,-11.5696,-11.5696,-11.5696,-11.5696,-11.5696,-11.5696,-11.5696,-11.5696,-11.5696,-11.5696,-11.5696,-11.5505,-11.5085,-11.5004,-11.4791,-11.4602,-11.4725,-11.4805,-11.4805,-11.4805,-11.4805,-11.4805,-11.4805,-11.4805,-9.6288,-9.6288,-9.6288,-9.6288,-9.6288,-9.6288,-9.6288,-9.6403,-9.6442,-9.6326,-9.6519,-9.6826,-9.725,-9.7015,-9.7167,-9.8384,-9.8401,-9.9305,-10.2424,-10.4188,-10.6122,-10.8311,-11.0196,-11.1813,-11.3309,-11.4281,-11.519,-11.5792,-11.5881,-11.579,-11.5696,-11.5696,-11.5696,-11.5696,-11.5696,-11.5696,-11.5696,-11.5696,-11.5696,-11.5696,-11.5696,-11.5696,-11.5696,-11.5696,-11.5696,-11.5696,-11.5696,-11.5696,-11.5696,-11.5696,-11.5696,-11.5811,-11.6499,-11.6422,-11.6117,-11.7607,-11.7301,-11.6384,-11.7301,-11.7492,-11.7607,-11.9211,-11.9708,-11.9785,-12.0587,-12.0205,-11.9211,-11.7798,-11.6804,-11.6308,-11.6995,-11.7186,-11.7416,-11.8103,-11.8294,-11.8294,-11.8485,-11.8409,-11.818,-11.7683,-11.7301,-11.6804,-11.6193,-11.5887,-11.5696,-11.5696,-11.5696,-11.5696,-11.5696,-11.5696,-11.5696,-11.5696,-11.5696,-11.5696,-11.5696,-11.5696,-11.5696,-11.5696,-11.5696,-11.5696,-11.5696,-11.5708,-11.5609,-11.5288,-11.499,-11.4799,-11.4805,-11.4805,-11.4805,-11.4805,-11.4805,-11.4805,-9.6288,-9.6288,-9.6288,-9.6288,-9.6288,-9.6288,-9.6288,-9.6826,-9.7134,-9.6442,-9.7442,-9.8019,-9.6711,-9.7593,-9.8323,-9.7807,-9.9404,-10.1424,-10.3405,-10.5686,-10.7176,-10.7582,-11.0311,-11.2197,-11.2503,-11.3901,-11.509,-11.5792,-11.5802,-11.5723,-11.5696,-11.5696,-11.5696,-11.5696,-11.5696,-11.5696,-11.5696,-11.5696,-11.5696,-11.5696,-11.5696,-11.5696,-11.5696,-11.5696,-11.5696,-11.5696,-11.5696,-11.5696,-11.5696,-11.5696,-11.5696,-11.5696,-11.5811,-11.6308,-11.6804,-11.711,-11.7912,-11.902,-11.9899,-11.9708,-11.9288,-12.032,-12.0587,-12.0587,-12.0816,-12.0205,-11.9403,-11.9211,-11.8485,-11.7912,-11.8103,-11.8103,-11.8103,-11.8294,-11.8294,-11.8485,-11.9211,-11.8791,-11.8677,-12.0014,-11.8485,-11.7186,-11.7798,-11.669,-11.5696,-11.5696,-11.5696,-11.5696,-11.5696,-11.5696,-11.5696,-11.5696,-11.5696,-11.5696,-11.5696,-11.5696,-11.5696,-11.5696,-11.5696,-11.5696,-11.5696,-11.5626,-11.5497,-11.5288,-11.5111,-11.4922,-11.4805,-11.4805,-11.4805,-11.4805,-11.4805,-11.4805,-9.6288,-9.6288,-9.6288,-9.6288,-9.6288,-9.6288,-9.6288,-9.6596,-9.6865,-9.6942,-9.7557,-9.8038,-9.7747,-9.8324,-9.8999,-9.9481,-10.1289,-10.3097,-10.4405,-10.5903,-10.7206,-10.809,-11.0391,-11.1991,-11.2273,-11.3797,-11.4885,-11.5114,-11.5494,-11.5696,-11.5696,-11.5696,-11.5696,-11.5696,-11.5696,-11.5696,-11.5696,-11.5696,-11.5696,-11.5696,-11.5696,-11.5696,-11.5696,-11.5696,-11.5696,-11.5696,-11.5696,-11.5696,-11.5696,-11.5696,-11.5696,-11.5696,-11.6193,-11.6613,-11.711,-11.7492,-11.8485,-11.9594,-12.0014,-11.9785,-11.9594,-12.0511,-12.0816,-12.0816,-12.0816,-12.0511,-12.0205,-12.0205,-11.9288,-11.8409,-11.8791,-11.8906,-11.9097,-11.9517,-11.9708,-11.9785,-12.009,-11.9899,-11.9708,-12.0014,-11.9211,-11.8294,-11.8294,-11.7607,-11.711,-11.711,-11.669,-11.6422,-11.6422,-11.6002,-11.5696,-11.5696,-11.5696,-11.5696,-11.5696,-11.6117,-11.6193,-11.5696,-11.5696,-11.5696,-11.5696,-11.5599,-11.5393,-11.5288,-11.5103,-11.4884,-11.4805,-11.4805,-11.4805,-11.4805,-11.4805,-11.4805,-9.6288,-9.6442,-9.6596,-9.6596,-9.6596,-9.6596,-9.6596,-9.6903,-9.7326,-9.7711,-9.8134,-9.8499,-9.8805,-9.9153,-9.9942,-10.1597,-10.3212,-10.4482,-10.5597,-10.6405,-10.75,-10.8979,-11.0517,-11.1698,-11.2211,-11.372,-11.4502,-11.45,-11.52,-11.5696,-11.5696,-11.5696,-11.5696,-11.5696,-11.5696,-11.5696,-11.5696,-11.5696,-11.5696,-11.5696,-11.5696,-11.5696,-11.5696,-11.5696,-11.5696,-11.5696,-11.5696,-11.5696,-11.5696,-11.5696,-11.5696,-11.5811,-11.669,-11.711,-11.7416,-11.8485,-11.9097,-11.9517,-11.9708,-11.9785,-11.9899,-12.0587,-12.0816,-12.0816,-12.0816,-12.0816,-12.0816,-12.0816,-11.9899,-11.8982,-11.9594,-11.9785,-12.0014,-12.0587,-12.0816,-12.0816,-12.0816,-12.0816,-12.0587,-11.9899,-11.9594,-11.9288,-11.8677,-11.8409,-11.8294,-11.8294,-11.7683,-11.7225,-11.6995,-11.6422,-11.5887,-11.5696,-11.5696,-11.5811,-11.6002,-11.6804,-11.6919,-11.6117,-11.6002,-11.5887,-11.5696,-11.5588,-11.5487,-11.5288,-11.5094,-11.5021,-11.4805,-11.4805,-11.4805,-11.4805,-11.4805,-11.4805,-9.6288,-9.6865,-9.7403,-9.7403,-9.7403,-9.7403,-9.7403,-9.8673,-9.9596,-9.8865,-9.9942,-10.0596,-9.9077,-10.0096,-10.1712,-10.3405,-10.4405,-10.5597,-10.729,-10.8213,-10.9017,-10.9793,-11.0715,-11.1485,-11.209,-11.2997,-11.3789,-11.4424,-11.52,-11.5696,-11.5696,-11.5696,-11.5696,-11.5696,-11.5696,-11.5696,-11.5696,-11.5696,-11.5696,-11.5696,-11.5696,-11.5696,-11.5696,-11.5696,-11.5696,-11.5696,-11.5696,-11.5696,-11.5696,-11.5696,-11.5696,-11.5811,-11.669,-11.7492,-11.8409,-12.0014,-12.009,-11.9594,-12.0396,-12.0702,-12.0702,-12.0816,-12.0816,-12.0816,-12.0816,-12.0816,-12.0816,-12.0816,-12.0702,-12.0587,-12.0702,-12.0702,-12.0702,-12.0816,-12.0816,-12.0816,-12.0816,-12.0816,-12.0816,-12.0702,-12.009,-11.9517,-11.9403,-11.8791,-11.8294,-11.8294,-11.818,-11.7912,-11.711,-11.6919,-11.6613,-11.5811,-11.5696,-11.6002,-11.6804,-11.7683,-11.7798,-11.6995,-11.6919,-11.6499,-11.5696,-11.5696,-11.5599,-11.5288,-11.5288,-11.5073,-11.4805,-11.4805,-11.4805,-11.4805,-11.4805,-11.4805,-9.6288,-9.6519,-9.6865,-9.7365,-9.7904,-9.8288,-9.8288,-9.925,-10.0096,-10.0289,-10.1289,-10.1904,-10.1289,-10.1693,-10.2598,-10.3694,-10.5482,-10.6905,-10.7598,-10.8906,-10.9786,-11.0024,-11.0808,-11.1293,-11.1414,-11.2193,-11.2909,-11.3595,-11.4512,-11.52,-11.5696,-11.5696,-11.5696,-11.5696,-11.5696,-11.5696,-11.5696,-11.5696,-11.5696,-11.5696,-11.5696,-11.5696,-11.5696,-11.5696,-11.5696,-11.5696,-11.5696,-11.5696,-11.5696,-11.5696,-11.5696,-11.5811,-11.7301,-11.7989,-11.8485,-12.0205,-12.0587,-12.0396,-12.0702,-12.0816,-12.0816,-12.0816,-12.0816,-12.0816,-12.0816,-12.0816,-12.0816,-12.0816,-12.0816,-12.0816,-12.0816,-12.0816,-12.0816,-12.0816,-12.0816,-12.0816,-12.0816,-12.0816,-12.0816,-12.0816,-12.0511,-12.032,-12.032,-12.009,-11.9899,-11.9899,-11.9403,-11.8906,-11.86,-11.8103,-11.7683,-11.7377,-11.7301,-11.7683,-11.8485,-11.8906,-11.8677,-11.7912,-11.7301,-11.6613,-11.5696,-11.5696,-11.5615,-11.5393,-11.5307,-11.52,-11.4884,-11.4792,-11.4805,-11.4805,-11.4805,-11.4805,-9.6288,-9.6673,-9.7173,-9.7442,-9.8557,-9.9596,-9.9596,-10.0289,-10.1096,-10.202,-10.2597,-10.2981,-10.2981,-10.331,-10.3599,-10.4194,-10.6213,-10.7808,-10.8017,-10.9188,-11.0183,-11.0295,-11.0794,-11.1108,-11.0881,-11.1709,-11.2411,-11.2792,-11.39,-11.4703,-11.5314,-11.5582,-11.5696,-11.5696,-11.5696,-11.5696,-11.5696,-11.5696,-11.5696,-11.5696,-11.5696,-11.5696,-11.5696,-11.5696,-11.5696,-11.5696,-11.5696,-11.5696,-11.5696,-11.5696,-11.5887,-11.6308,-11.7989,-11.8677,-11.8906,-12.032,-12.0816,-12.0816,-12.0816,-12.0816,-12.0816,-12.0816,-12.0816,-12.0816,-12.0816,-12.0816,-12.0816,-12.0816,-12.0816,-12.0816,-12.0816,-12.0816,-12.0816,-12.0816,-12.0816,-12.0816,-12.0816,-12.0816,-12.0816,-12.0816,-12.0816,-12.0816,-12.0816,-12.0816,-12.0816,-12.0816,-12.032,-11.9785,-11.9517,-11.8982,-11.86,-11.8294,-11.8485,-11.8906,-11.9479,-11.9517,-11.9211,-11.8371,-11.7683,-11.6919,-11.5696,-11.5696,-11.5577,-11.5515,-11.5412,-11.52,-11.5013,-11.4898,-11.4805,-11.4805,-11.4805,-11.4805,-9.6306,-9.7519,-9.8596,-9.775,-9.9442,-10.1289,-10.1289,-10.202,-10.2904,-10.3712,-10.3905,-10.3905,-10.3905,-10.4597,-10.5097,-10.5097,-10.6597,-10.8017,-10.858,-10.9502,-11.0218,-11.0802,-11.1013,-11.0989,-11.0678,-11.1583,-11.222,-11.199,-11.3595,-11.4474,-11.4474,-11.5314,-11.5696,-11.5696,-11.5696,-11.5696,-11.5696,-11.5696,-11.5696,-11.5696,-11.5696,-11.5696,-11.5696,-11.5696,-11.5696,-11.5696,-11.5696,-11.5696,-11.5696,-11.5696,-11.6193,-11.7186,-11.8791,-11.9517,-11.9594,-12.0511,-12.0816,-12.0816,-12.0816,-12.0816,-12.0816,-12.0816,-12.0816,-12.0816,-12.0816,-12.0816,-12.0816,-12.0816,-12.0816,-12.0816,-12.0816,-12.0816,-12.0816,-12.0816,-12.0816,-12.0816,-12.0816,-12.0816,-12.0816,-12.0816,-12.0816,-12.0816,-12.0816,-12.0816,-12.0816,-12.0816,-12.0816,-12.0511,-11.9594,-11.9517,-11.9211,-11.8409,-11.8982,-11.9517,-11.9517,-11.9517,-11.9211,-11.8409,-11.8294,-11.7492,-11.5811,-11.5696,-11.5719,-11.5477,-11.5412,-11.52,-11.5013,-11.4898,-11.4805,-11.4805,-11.4805,-11.4805,-9.7134,-9.7519,-9.8134,-9.9096,-9.9904,-10.0904,-10.2712,-10.3289,-10.3905,-10.5405,-10.5213,-10.4713,-10.4713,-10.5405,-10.602,-10.602,-10.7982,-10.9521,-10.9709,-11.0391,-11.1201,-11.1804,-11.1909,-11.2002,-11.2372,-11.2704,-11.3112,-11.3709,-11.4206,-11.4703,-11.5314,-11.5582,-11.5696,-11.5696,-11.5696,-11.5696,-11.5696,-11.5696,-11.5696,-11.5696,-11.5696,-11.5696,-11.5696,-11.5696,-11.5696,-11.5696,-11.5696,-11.5696,-11.5696,-11.5696,-11.5887,-11.6308,-11.7989,-11.8677,-11.8791,-12.0281,-12.0816,-12.0816,-12.0816,-12.0816,-12.0816,-12.0816,-12.0816,-12.0816,-12.0816,-12.0816,-12.0816,-12.0816,-12.0816,-12.0816,-12.0816,-12.0816,-12.0816,-12.0816,-12.0816,-12.0816,-12.0816,-12.0816,-12.0816,-12.0816,-12.0816,-12.0816,-12.0816,-12.0816,-12.0816,-12.0816,-12.0816,-12.0702,-12.0396,-12.0396,-12.032,-12.009,-12.032,-12.0396,-12.0396,-12.0396,-12.009,-11.9211,-11.9097,-11.8409,-11.669,-11.7186,-11.7503,-11.7514,-11.6612,-11.6096,-11.6104,-11.5226,-11.4805,-11.4805,-11.4805,-11.4805,-9.7092,-9.7287,-9.775,-9.8788,-9.9827,-10.1212,-10.3789,-10.4905,-10.5597,-10.629,-10.629,-10.6097,-10.6097,-10.6597,-10.7021,-10.729,-10.8983,-11.0192,-11.0084,-11.0709,-11.1515,-11.209,-11.2092,-11.2399,-11.3098,-11.3213,-11.3404,-11.39,-11.4283,-11.4703,-11.52,-11.5505,-11.5696,-11.5696,-11.5696,-11.5696,-11.5696,-11.5696,-11.5696,-11.5696,-11.5696,-11.5696,-11.5696,-11.5696,-11.5696,-11.5696,-11.5696,-11.5696,-11.5696,-11.6117,-11.6002,-11.5887,-11.7989,-11.86,-11.8485,-12.0205,-12.0816,-12.0816,-12.0816,-12.0816,-12.0816,-12.0816,-12.0816,-12.0816,-12.0816,-12.0816,-12.0816,-12.0816,-12.0816,-12.0816,-12.0816,-12.0816,-12.0816,-12.0816,-12.0816,-12.0816,-12.0816,-12.0816,-12.0816,-12.0816,-12.0816,-12.0816,-12.0816,-12.0816,-12.0816,-12.0816,-12.0816,-12.0816,-12.0816,-12.0816,-12.0816,-12.0816,-12.0816,-12.0816,-12.0816,-12.0511,-12.009,-11.9517,-11.9517,-11.902,-11.7989,-11.818,-11.8294,-11.8294,-11.7518,-11.7,-11.7,-11.6174,-11.5791,-11.5791,-11.5791,-11.5791,-9.6737,-9.7188,-9.7673,-9.7922,-9.9827,-10.2289,-10.4789,-10.6597,-10.7598,-10.6713,-10.7213,-10.779,-10.779,-10.7905,-10.8213,-10.8906,-10.9713,-11.0205,-11.0019,-11.0625,-11.1296,-11.2003,-11.2105,-11.2487,-11.3289,-11.3404,-11.3518,-11.3518,-11.4283,-11.4779,-11.4779,-11.5505,-11.5887,-11.5887,-11.5887,-11.5811,-11.5811,-11.5696,-11.5696,-11.5696,-11.5696,-11.5696,-11.5696,-11.5696,-11.5696,-11.5696,-11.5696,-11.5696,-11.5811,-11.6613,-11.6422,-11.5887,-11.8409,-11.8906,-11.8485,-12.0205,-12.0816,-12.0816,-12.0816,-12.0816,-12.0816,-12.0816,-12.0816,-12.0816,-12.0816,-12.0816,-12.0816,-12.0893,-12.0893,-12.0816,-12.0893,-12.0893,-12.0893,-12.0816,-12.0816,-12.0816,-12.0816,-12.0816,-12.0816,-12.0816,-12.0816,-12.0816,-12.0816,-12.0816,-12.0816,-12.0816,-12.0816,-12.0816,-12.0816,-12.0816,-12.0816,-12.0816,-12.0816,-12.0816,-12.0816,-12.009,-11.9594,-11.9594,-11.9594,-11.9594,-11.9594,-11.8906,-11.8485,-11.8485,-11.8127,-11.7914,-11.7914,-11.7503,-11.7307,-11.7307,-11.7307,-11.7307,-9.9064,-9.8995,-9.9,-10.1077,-10.2886,-10.4789,-10.6713,-10.7905,-10.8406,-10.7598,-10.8098,-10.8598,-10.8598,-10.9213,-10.9713,-10.9906,-11.0611,-11.0984,-11.1016,-11.0984,-11.1491,-11.2909,-11.2997,-11.3518,-11.5008,-11.52,-11.5391,-11.6117,-11.6384,-11.6804,-11.7377,-11.7607,-11.7683,-11.7683,-11.711,-11.669,-11.669,-11.6002,-11.5696,-11.5696,-11.5696,-11.5696,-11.5696,-11.5696,-11.5696,-11.5696,-11.5696,-11.5696,-11.5696,-11.5887,-11.5887,-11.5887,-11.7798,-11.8485,-11.8485,-12.0205,-12.0816,-12.0816,-12.0816,-12.0816,-12.0816,-12.0816,-12.0816,-12.0816,-12.0816,-12.0816,-12.0893,-12.158,-12.1313,-12.0893,-12.158,-12.1695,-12.158,-12.1007,-12.0816,-12.0816,-12.0816,-12.0816,-12.0816,-12.0816,-12.0816,-12.0816,-12.0816,-12.0816,-12.0816,-12.0816,-12.0816,-12.0816,-12.0816,-12.0816,-12.0816,-12.0816,-12.0816,-12.0816,-12.0816,-12.0587,-12.0511,-12.0511,-12.0511,-12.0511,-12.0511,-12.0396,-12.0281,-12.0281,-11.928,-11.8713,-11.8713,-11.78,-11.7307,-11.7307,-11.7307,-11.7307,-9.8769,-9.9008,-9.963,-10.2597,-10.4215,-10.5405,-10.679,-10.8021,-10.879,-10.8406,-10.8906,-10.9483,-10.9483,-10.9906,-11.0291,-11.0791,-11.1127,-11.1285,-11.1201,-11.1013,-11.1518,-11.3087,-11.3201,-11.39,-11.5505,-11.5696,-11.5887,-11.6308,-11.6804,-11.7186,-11.7683,-11.8103,-11.8103,-11.7683,-11.7225,-11.6804,-11.6422,-11.5887,-11.5696,-11.5696,-11.5696,-11.5696,-11.5696,-11.5696,-11.5696,-11.5696,-11.5696,-11.5696,-11.5696,-11.5696,-11.5887,-11.6499,-11.7798,-11.8485,-11.8982,-12.032,-12.0816,-12.0816,-12.0816,-12.0816,-12.0893,-12.1198,-12.1389,-12.1504,-12.1886,-12.1695,-12.1504,-12.1886,-12.1389,-12.0893,-12.1313,-12.1389,-12.1313,-12.0893,-12.1084,-12.1313,-12.0893,-12.0816,-12.0816,-12.0816,-12.0816,-12.0816,-12.0816,-12.0816,-12.0816,-12.0816,-12.0816,-12.0816,-12.0816,-12.0816,-12.0816,-12.0816,-12.0816,-12.0816,-12.0816,-12.0816,-12.0816,-12.0816,-12.0816,-12.0816,-12.0816,-12.0816,-12.0816,-12.0816,-12.0004,-11.9588,-11.9626,-11.8907,-11.8482,-11.8482,-11.8482,-11.8482,-9.8257,-9.9244,-10.0582,-10.3289,-10.4696,-10.5579,-10.6405,-10.7713,-10.879,-10.9098,-10.979,-11.0406,-11.0406,-11.0406,-11.0714,-11.1406,-11.1413,-11.1201,-11.1108,-11.0979,-11.1391,-11.2983,-11.3213,-11.39,-11.5505,-11.5696,-11.5811,-11.5887,-11.669,-11.7186,-11.7186,-11.818,-11.8294,-11.7301,-11.7186,-11.6804,-11.5887,-11.5811,-11.5696,-11.5696,-11.5696,-11.5696,-11.5696,-11.5696,-11.5696,-11.5696,-11.5696,-11.5696,-11.5696,-11.5696,-11.6193,-11.711,-11.7989,-11.8791,-11.9594,-12.0511,-12.0816,-12.0816,-12.0816,-12.0816,-12.0893,-12.158,-12.181,-12.2001,-12.2803,-12.2497,-12.1886,-12.2306,-12.1619,-12.0893,-12.1198,-12.1198,-12.1198,-12.1007,-12.1695,-12.2115,-12.1007,-12.0816,-12.0816,-12.0816,-12.0816,-12.0816,-12.0816,-12.0816,-12.0816,-12.0816,-12.0816,-12.0816,-12.0816,-12.0816,-12.0816,-12.0816,-12.0816,-12.0816,-12.0816,-12.0816,-12.0816,-12.0816,-12.0816,-12.0816,-12.0816,-12.0816,-12.0816,-12.0816,-12.0491,-12.0304,-12.0312,-12.0001,-11.9803,-11.9809,-11.9809,-11.9809,-10.0914,-10.2505,-10.3718,-10.3906,-10.5216,-10.6487,-10.7311,-10.7713,-10.829,-10.9713,-11.0714,-11.1291,-11.1291,-11.1291,-11.1406,-11.1522,-11.1307,-11.1108,-11.1085,-11.0906,-11.129,-11.3022,-11.3213,-11.39,-11.5505,-11.5696,-11.6002,-11.6804,-11.7607,-11.8103,-11.8103,-11.9594,-11.9708,-11.818,-11.8103,-11.7683,-11.6804,-11.6117,-11.5696,-11.5696,-11.5696,-11.5696,-11.5696,-11.5696,-11.5696,-11.5696,-11.5696,-11.5696,-11.5696,-11.5696,-11.6193,-11.711,-11.7989,-11.8791,-11.9594,-12.0511,-12.0816,-12.0816,-12.0816,-12.0816,-12.0816,-12.0893,-12.1007,-12.1084,-12.1886,-12.158,-12.1389,-12.3605,-12.2497,-12.1122,-12.2612,-12.2994,-12.2803,-12.2001,-12.2994,-12.3491,-12.1313,-12.0816,-12.0816,-12.0816,-12.0816,-12.0816,-12.0816,-12.0816,-12.0816,-12.0816,-12.0816,-12.0816,-12.0816,-12.0816,-12.0816,-12.0816,-12.0816,-12.0816,-12.0816,-12.0816,-12.0816,-12.0816,-12.0816,-12.0816,-12.0816,-12.0816,-12.0816,-12.0816,-12.0607,-12.0423,-12.0312,-12.0089,-11.99,-11.9809,-11.9809,-11.9809,-10.1409,-10.261,-10.3612,-10.4612,-10.5427,-10.6006,-10.6814,-10.7408,-10.7905,-10.8598,-10.9906,-11.0906,-11.1406,-11.1522,-11.1522,-11.1522,-11.1285,-11.1085,-11.1085,-11.0906,-11.1302,-11.3022,-11.3213,-11.39,-11.5505,-11.5696,-11.5887,-11.6193,-11.711,-11.7607,-11.7607,-11.8715,-11.8791,-11.7607,-11.7607,-11.7186,-11.6308,-11.5887,-11.5696,-11.5696,-11.5696,-11.5696,-11.5696,-11.5696,-11.5696,-11.5696,-11.5696,-11.5696,-11.5696,-11.6193,-11.6919,-11.7798,-11.86,-11.9479,-12.032,-12.0702,-12.0816,-12.0816,-12.0816,-12.1084,-12.1504,-12.1504,-12.2115,-12.2918,-12.33,-12.2803,-12.2421,-12.3491,-12.2421,-12.1007,-12.1695,-12.2192,-12.2497,-12.2077,-12.2918,-12.3491,-12.2421,-12.181,-12.1313,-12.0893,-12.1198,-12.1313,-12.0893,-12.1198,-12.1313,-12.0893,-12.0816,-12.0816,-12.0816,-12.0816,-12.0816,-12.0816,-12.0816,-12.1007,-12.1389,-12.1084,-12.1198,-12.2115,-12.1313,-12.1007,-12.1504,-12.1007,-12.0816,-12.0816,-12.0598,-12.0385,-12.0312,-12.012,-11.9894,-11.9809,-11.9809,-11.9809,-10.1502,-10.24,-10.3205,-10.4585,-10.5114,-10.5486,-10.6122,-10.6794,-10.7405,-10.7713,-10.8906,-11.0098,-11.1021,-11.1406,-11.1522,-11.1522,-11.1285,-11.1085,-11.1085,-11.0906,-11.1302,-11.3022,-11.3213,-11.39,-11.5505,-11.5696,-11.5696,-11.5696,-11.6499,-11.6919,-11.669,-11.7683,-11.7798,-11.669,-11.711,-11.6804,-11.5696,-11.5696,-11.5696,-11.5696,-11.5696,-11.5696,-11.5696,-11.5887,-11.5887,-11.5696,-11.5696,-11.5696,-11.5811,-11.6613,-11.7492,-11.8409,-11.9211,-12.0014,-12.0816,-12.0816,-12.0816,-12.0816,-12.0816,-12.1313,-12.2001,-12.2001,-12.2994,-12.4217,-12.4217,-12.3605,-12.2994,-12.3185,-12.2115,-12.0893,-12.1313,-12.1886,-12.2383,-12.2612,-12.33,-12.3797,-12.3414,-12.2803,-12.2077,-12.1313,-12.181,-12.2077,-12.1198,-12.181,-12.2115,-12.1504,-12.1389,-12.1389,-12.1122,-12.1313,-12.1313,-12.0816,-12.1198,-12.1619,-12.2001,-12.1695,-12.2001,-12.3185,-12.1886,-12.1389,-12.2001,-12.1198,-12.0893,-12.1084,-12.0779,-12.052,-12.0312,-12.0113,-11.9995,-11.9809,-11.9809,-11.9809,-10.1889,-10.2492,-10.3211,-10.3091,-10.4318,-10.5407,-10.539,-10.5909,-10.6713,-10.7521,-10.8406,-10.9213,-11.0098,-11.0906,-11.1522,-11.1522,-11.1285,-11.1085,-11.1085,-11.0906,-11.1302,-11.3022,-11.3213,-11.39,-11.5505,-11.5696,-11.5696,-11.5696,-11.6499,-11.6613,-11.5811,-11.7377,-11.7492,-11.5811,-11.7377,-11.7377,-11.5696,-11.5696,-11.5696,-11.5696,-11.5696,-11.5696,-11.5696,-11.6613,-11.6499,-11.5696,-11.5696,-11.5696,-11.5811,-11.6613,-11.7492,-11.8409,-11.9211,-12.0014,-12.0816,-12.0816,-12.0816,-12.0816,-12.0816,-12.1313,-12.2001,-12.2001,-12.2612,-12.3414,-12.3414,-12.2803,-12.2192,-12.3109,-12.2115,-12.1198,-12.2803,-12.3185,-12.3414,-12.4217,-12.4981,-12.521,-12.3605,-12.33,-12.2994,-12.2077,-12.2612,-12.2994,-12.2077,-12.2688,-12.3185,-12.3185,-12.3185,-12.288,-12.2001,-12.2688,-12.2612,-12.1007,-12.2192,-12.288,-12.2077,-12.2688,-12.3185,-12.33,-12.2383,-12.2001,-12.2001,-12.1198,-12.1198,-12.1886,-12.1198,-12.0607,-12.0312,-12.0312,-12.0089,-11.9809,-11.9809,-11.9809,-10.1793,-10.1992,-10.2284,-10.2985,-10.352,-10.4093,-10.5098,-10.5486,-10.579,-10.6713,-10.7982,-10.8983,-10.929,-11.0521,-11.1522,-11.1522,-11.1285,-11.1085,-11.1085,-11.0906,-11.1302,-11.3022,-11.3213,-11.39,-11.5505,-11.5696,-11.5696,-11.5696,-11.6002,-11.6002,-11.5696,-11.6308,-11.6308,-11.5696,-11.6308,-11.6308,-11.5696,-11.5696,-11.5696,-11.5696,-11.5696,-11.5696,-11.5696,-11.6613,-11.6804,-11.6613,-11.711,-11.711,-11.6613,-11.7492,-11.8294,-11.9211,-12.0014,-12.0511,-12.0816,-12.0816,-12.0816,-12.0816,-12.0816,-12.1695,-12.2688,-12.2192,-12.33,-12.4714,-12.3605,-12.3109,-12.288,-12.3185,-12.2497,-12.181,-12.2994,-12.372,-12.4293,-12.5096,-12.5592,-12.5592,-12.4981,-12.4484,-12.3797,-12.2994,-12.3491,-12.3797,-12.2994,-12.3491,-12.3911,-12.3414,-12.33,-12.3185,-12.288,-12.3109,-12.3109,-12.2497,-12.2918,-12.3414,-12.3605,-12.3414,-12.3797,-12.479,-12.3109,-12.2306,-12.2803,-12.2001,-12.1695,-12.2001,-12.2306,-12.201,-12.1111,-12.0616,-12.0089,-11.9809,-11.9809,-11.9809,-10.2079,-10.1886,-10.1886,-10.2908,-10.3211,-10.3707,-10.5096,-10.5525,-10.5713,-10.629,-10.7713,-10.8906,-10.8906,-11.0291,-11.1522,-11.1522,-11.1285,-11.1085,-11.1085,-11.0906,-11.1188,-11.2601,-11.3022,-11.3786,-11.52,-11.5505,-11.5696,-11.5696,-11.5696,-11.5696,-11.5696,-11.5696,-11.5811,-11.6117,-11.5887,-11.5811,-11.6117,-11.5811,-11.5696,-11.5696,-11.5696,-11.5887,-11.6193,-11.6995,-11.7416,-11.7492,-11.8294,-11.818,-11.7492,-11.8409,-11.8982,-11.9594,-12.0511,-12.0816,-12.0816,-12.0816,-12.0816,-12.0816,-12.1084,-12.2115,-12.3185,-12.2918,-12.4179,-12.5478,-12.4102,-12.372,-12.3605,-12.3414,-12.288,-12.2612,-12.3491,-12.4293,-12.5096,-12.5707,-12.5783,-12.5783,-12.5783,-12.5287,-12.4714,-12.3911,-12.4408,-12.4714,-12.3797,-12.4408,-12.479,-12.4217,-12.4102,-12.3988,-12.372,-12.3988,-12.3911,-12.3414,-12.3797,-12.4217,-12.4522,-12.4293,-12.4599,-12.5707,-12.3911,-12.3109,-12.372,-12.288,-12.2612,-12.2803,-12.3109,-12.3002,-12.2291,-12.1187,-12.0469,-12.0225,-11.9922,-11.9809,0.0,0.0,0.0,-10.2803,-10.3623,-10.4324,-10.5212,-10.589,-10.6405,-10.6405,-10.779,-10.8906,-10.8906,-11.0291,-11.1522,-11.1522,-11.1285,-11.1085,-11.1085,-11.0906,-11.0997,-11.1914,-11.2716,-11.3518,-11.4397,-11.52,-11.5696,-11.5696,-11.5696,-11.5696,-11.5696,-11.5696,-11.6117,-11.6919,-11.6117,-11.6117,-11.6995,-11.6117,-11.5696,-11.5696,-11.5696,-11.6117,-11.6995,-11.7912,-11.8294,-11.8294,-11.9211,-11.9097,-11.8409,-11.9211,-11.9517,-11.9594,-12.0511,-12.0816,-12.0816,-12.0816,-12.0816,-12.0893,-12.1695,-12.2612,-12.3491,-12.4217,-12.5096,-12.5592,-12.479,-12.4522,-12.4293,-12.3605,-12.33,-12.3491,-12.4293,-12.521,-12.5783,-12.5783,-12.5783,-12.5783,-12.5783,-12.5783,-12.5478,-12.4714,-12.521,-12.5478,-12.4714,-12.521,-12.5783,-12.5783,-12.5783,-12.5478,-12.4599,-12.5287,-12.521,-12.3491,-12.479,-12.5478,-12.4599,-12.5287,-12.5783,-12.5783,-12.4981,-12.4522,-12.4522,-12.3797,-12.372,-12.4522,-12.3797,-12.3613,-12.4004,-12.2405,-12.1413,-12.1021,-12.0188,-11.9809,-10.3713,0.0,0.0,0.0,0.0,0.0,-10.4291,-10.4889,-10.579,-10.7098,-10.8213,-10.9098,-10.9713,-11.0714,-11.1522,-11.1522,-11.139,-11.1178,-11.1108,-11.0979,-11.1098,-11.1901,-11.2716,-11.3518,-11.4397,-11.52,-11.5696,-11.5696,-11.5696,-11.5696,-11.5696,-11.5696,-11.5811,-11.6117,-11.5811,-11.5811,-11.6117,-11.5811,-11.5696,-11.5696,-11.5696,-11.5811,-11.6117,-11.7607,-11.8294,-11.8409,-11.9785,-12.032,-12.009,-11.9708,-11.9899,-12.0511,-12.0702,-12.0816,-12.0816,-12.0816,-12.1198,-12.1695,-12.1886,-12.2994,-12.4217,-12.4408,-12.5096,-12.5592,-12.479,-12.4522,-12.4522,-12.4217,-12.4217,-12.4408,-12.521,-12.5592,-12.5783,-12.5783,-12.5783,-12.5783,-12.5783,-12.5783,-12.5707,-12.5478,-12.5592,-12.5707,-12.5478,-12.5592,-12.5783,-12.5783,-12.5783,-12.5707,-12.5478,-12.5707,-12.5592,-12.521,-12.5478,-12.5707,-12.5478,-12.5707,-12.5783,-12.5783,-12.4981,-12.4522,-12.4522,-12.4293,-12.4293,-12.4522,-12.4905,-12.5101,-12.4879,-12.328,-12.1907,-12.1021,-12.0188,-11.9809,-10.4504,-10.4176,-10.4002,-10.3904,0.0,0.0,-10.4985,-10.5408,-10.602,-10.7405,-10.829,-10.9213,-10.9983,-11.0902,-11.1418,-11.1418,-11.1307,-11.1216,-11.1085,-11.1185,-11.1494,-11.1875,-11.2983,-11.39,-11.4474,-11.52,-11.5696,-11.5696,-11.5696,-11.5696,-11.5696,-11.5696,-11.5696,-11.5696,-11.5696,-11.5696,-11.5696,-11.5696,-11.5696,-11.5696,-11.6117,-11.6384,-11.6804,-11.818,-11.8982,-11.9403,-12.0396,-12.0816,-12.0816,-12.0281,-12.032,-12.0816,-12.0816,-12.0816,-12.0816,-12.1198,-12.158,-12.2077,-12.2803,-12.372,-12.4599,-12.4905,-12.5401,-12.5707,-12.521,-12.5019,-12.5019,-12.5019,-12.5019,-12.521,-12.5707,-12.5783,-12.5783,-12.5783,-12.5783,-12.5783,-12.5783,-12.5783,-12.5783,-12.5783,-12.5783,-12.5783,-12.5783,-12.5783,-12.5783,-12.5783,-12.5783,-12.5783,-12.5783,-12.5783,-12.5783,-12.5783,-12.5783,-12.5783,-12.5783,-12.5783,-12.5783,-12.5783,-12.5287,-12.5019,-12.5019,-12.5019,-12.5019,-12.5019,-12.5478,-12.5598,-12.5298,-12.4004,-12.2515,-12.1021,-12.0908,-12.0486,-10.529,-10.4792,-10.4388,-10.5082,-10.539,0.0,-10.6199,-10.6389,-10.679,-10.7713,-10.8482,-10.929,-11.0214,-11.0875,-11.1307,-11.1285,-11.1193,-11.1099,-11.1099,-11.1594,-11.2016,-11.199,-11.348,-11.4474,-11.4474,-11.52,-11.5696,-11.5696,-11.5696,-11.5696,-11.5696,-11.5696,-11.5696,-11.5696,-11.5696,-11.5696,-11.5696,-11.5696,-11.5696,-11.5696,-11.6613,-11.7416,-11.818,-11.9097,-11.9899,-12.0702,-12.0816,-12.0816,-12.0816,-12.0816,-12.0816,-12.0816,-12.0816,-12.0816,-12.0893,-12.1695,-12.2077,-12.2383,-12.3988,-12.4599,-12.479,-12.5478,-12.5783,-12.5783,-12.5783,-12.5783,-12.5783,-12.5783,-12.5783,-12.5783,-12.5783,-12.5783,-12.5783,-12.5783,-12.5783,-12.5783,-12.5783,-12.5783,-12.5783,-12.5783,-12.5783,-12.5783,-12.5783,-12.5783,-12.5783,-12.5783,-12.5783,-12.5783,-12.5783,-12.5783,-12.5783,-12.5783,-12.5783,-12.5783,-12.5783,-12.5783,-12.5783,-12.5783,-12.5783,-12.5783,-12.5783,-12.5783,-12.5783,-12.5783,-12.5792,-12.5606,-12.5298,-12.4391,-12.2983,-12.1325,-12.2007,-12.1499,-10.629,-10.5982,-10.581,-10.5291,-10.5715,0.0,-10.5522,-10.6387,-10.7713,-10.8482,-10.929,-11.0192,-11.0913,-11.1214,-11.1323,-11.1208,-11.1013,-11.0878,-11.0878,-11.1619,-11.2118,-11.2016,-11.348,-11.4474,-11.4474,-11.52,-11.5696,-11.5696,-11.5696,-11.5696,-11.5696,-11.5696,-11.5696,-11.5696,-11.5696,-11.5696,-11.5696,-11.5696,-11.5696,-11.5696,-11.6613,-11.711,-11.7301,-11.8791,-11.9594,-11.9785,-12.0511,-12.0816,-12.0816,-12.0816,-12.0816,-12.0816,-12.0816,-12.0816,-12.0893,-12.1695,-12.2383,-12.3185,-12.4217,-12.4981,-12.5592,-12.5707,-12.5783,-12.5783,-12.5783,-12.5783,-12.5783,-12.5783,-12.5783,-12.5783,-12.5783,-12.5783,-12.5783,-12.5783,-12.5783,-12.5783,-12.5783,-12.5783,-12.5783,-12.5783,-12.5783,-12.5783,-12.5783,-12.5783,-12.5783,-12.5783,-12.5783,-12.5783,-12.5783,-12.5783,-12.5783,-12.5783,-12.5783,-12.5783,-12.5783,-12.5783,-12.5783,-12.5783,-12.5783,-12.5783,-12.5783,-12.5783,-12.5783,-12.5783,-12.5507,-12.5399,-12.5298,-12.4172,-12.34,-12.2992,-12.25,-12.1802,-10.6521,-10.6405,-10.629,-10.5905,-10.6405,0.0,0.0,-10.7405,-10.8482,-10.9406,-10.9786,-11.0298,-11.1214,-11.1216,-11.1214,-11.1627,-11.148,-11.1596,-11.2016,-11.2399,-11.2794,-11.3174,-11.4283,-11.5085,-11.5085,-11.5505,-11.5696,-11.5696,-11.5696,-11.5696,-11.5696,-11.5696,-11.5696,-11.5696,-11.5696,-11.5696,-11.5696,-11.5696,-11.5887,-11.6384,-11.7186,-11.7912,-11.8294,-11.9594,-12.009,-12.0205,-12.0587,-12.0816,-12.0816,-12.0816,-12.0816,-12.0816,-12.1198,-12.1389,-12.1504,-12.2306,-12.3185,-12.3988,-12.4408,-12.5096,-12.5783,-12.5783,-12.5783,-12.5783,-12.5783,-12.5783,-12.5783,-12.5783,-12.5783,-12.5783,-12.5783,-12.5783,-12.5783,-12.5783,-12.5783,-12.5783,-12.5783,-12.5783,-12.5783,-12.5783,-12.5783,-12.5783,-12.5783,-12.5783,-12.5783,-12.5783,-12.5783,-12.5783,-12.5783,-12.5783,-12.5783,-12.5783,-12.5783,-12.5783,-12.5783,-12.5783,-12.5783,-12.5783,-12.5783,-12.5783,-12.5783,-12.5783,-12.5783,-12.5783,-12.5522,-12.5298,-12.5298,-12.4486,-12.3902,-12.3485,-12.3485,-12.3016,-10.6521,-10.6597,-10.679,-10.6713,-10.729,-10.7905,0.0,0.0,0.0,-11.0098,-11.0205,-11.0501,-11.1093,-11.1214,-11.1428,-11.2092,-11.222,-11.2487,-11.3289,-11.3518,-11.3709,-11.4397,-11.52,-11.5696,-11.5696,-11.5696,-11.5696,-11.5696,-11.5696,-11.5696,-11.5696,-11.5696,-11.5696,-11.5696,-11.5696,-11.5696,-11.5696,-11.5696,-11.6117,-11.6804,-11.7798,-11.86,-11.9288,-12.032,-12.0816,-12.0816,-12.0816,-12.0816,-12.0816,-12.0816,-12.0816,-12.0893,-12.1695,-12.2001,-12.2077,-12.3185,-12.3911,-12.4522,-12.4714,-12.521,-12.5783,-12.5783,-12.5783,-12.5783,-12.5783,-12.5783,-12.5783,-12.5783,-12.5783,-12.5783,-12.5783,-12.5783,-12.5783,-12.5783,-12.5783,-12.5783,-12.5783,-12.5783,-12.5783,-12.5783,-12.5783,-12.5783,-12.5783,-12.5783,-12.5783,-12.5783,-12.5783,-12.5783,-12.5783,-12.5783,-12.5783,-12.5783,-12.5783,-12.5783,-12.5783,-12.5783,-12.5783,-12.5783,-12.5783,-12.5783,-12.5783,-12.5783,-12.5783,-12.5783,-12.5522,-12.5298,-12.5298,-12.4979,-12.4395,-12.3788,-12.4508,-12.4116,-10.7021,-10.7521,-10.8406,-10.7713,-10.8213,-10.879,-10.879,0.0,-11.0098,-11.0214,0.0,-11.1093,-11.1093,0.0,0.0,-11.2003,-11.2601,-11.3404,-11.4206,-11.4397,-11.4397,-11.4474,-11.52,-11.5696,-11.5696,-11.5696,-11.5696,-11.5696,-11.5696,-11.5696,-11.5696,-11.5696,-11.5696,-11.5696,-11.5696,-11.5696,-11.5696,-11.5696,-11.5696,-11.5887,-11.7492,-11.8294,-11.8485,-12.009,-12.0816,-12.0816,-12.0816,-12.0816,-12.0816,-12.0816,-12.0816,-12.0893,-12.1695,-12.2001,-12.2192,-12.3797,-12.4408,-12.4599,-12.5401,-12.5707,-12.5783,-12.5783,-12.5783,-12.5783,-12.5783,-12.5783,-12.5783,-12.5783,-12.5783,-12.5783,-12.5783,-12.5783,-12.5783,-12.5783,-12.5783,-12.5783,-12.5783,-12.5783,-12.5783,-12.5783,-12.5783,-12.5783,-12.5783,-12.5783,-12.5783,-12.5783,-12.5783,-12.5783,-12.5783,-12.5783,-12.5783,-12.5783,-12.5783,-12.5783,-12.5783,-12.5783,-12.5783,-12.5783,-12.5783,-12.5783,-12.5783,-12.5783,-12.5783,-12.5783,-12.5522,-12.5298,-12.5298,-12.4979,-12.4698,-12.4698,-12.4812,-12.442,-10.8811,-10.9414,-11.0115,-10.859,-10.9402,-11.0308,-10.9705,-11.0183,-11.0798,-11.0709,0.0,0.0,0.0,0.0,0.0,0.0,-11.3709,-11.4206,-11.5085,-11.52,-11.52,-11.52,-11.5505,-11.5696,-11.5696,-11.5696,-11.5696,-11.5696,-11.5696,-11.5696,-11.5696,-11.5696,-11.5696,-11.5696,-11.5696,-11.5696,-11.5696,-11.5696,-11.6193,-11.7186,-11.7989,-11.8791,-11.9785,-12.0511,-12.0816,-12.0816,-12.0816,-12.0816,-12.0816,-12.0816,-12.1084,-12.158,-12.2383,-12.2803,-12.288,-12.4102,-12.479,-12.521,-12.5096,-12.5401,-12.5783,-12.5783,-12.5783,-12.5783,-12.5783,-12.5783,-12.5783,-12.5783,-12.5783,-12.5783,-12.5783,-12.6204,-12.6395,-12.5898,-12.6204,-12.6395,-12.5898,-12.5783,-12.5783,-12.5783,-12.5783,-12.5974,-12.6509,-12.6089,-12.5783,-12.5783,-12.5783,-12.5783,-12.5783,-12.5783,-12.5783,-12.5783,-12.5783,-12.5783,-12.5783,-12.5783,-12.5783,-12.5783,-12.5783,-12.5783,-12.5783,-12.5783,-12.5783,-12.5783,-12.5522,-12.5298,-12.5298,-12.4979,-12.4812,-12.4812,-12.4812,-12.458,-11.0518,-11.1108,-11.1726,-10.9908,-11.0606,-11.1495,-11.06,-11.0785,-11.1201,-11.1108,-11.1219,0.0,0.0,0.0,-11.3098,-11.4283,0.0,-11.5008,-11.562,-11.5696,-11.5696,-11.5696,-11.5696,-11.5696,-11.5696,-11.5696,-11.5696,-11.5696,-11.5696,-11.5696,-11.5696,-11.5696,-11.5696,-11.5696,-11.5696,-11.5696,-11.5696,-11.5696,-11.6499,-11.7912,-11.818,-11.9097,-12.0511,-12.0702,-12.0816,-12.0816,-12.0816,-12.0816,-12.0816,-12.0816,-12.1313,-12.2077,-12.2994,-12.3414,-12.372,-12.4599,-12.5287,-12.5707,-12.5096,-12.5287,-12.5783,-12.5783,-12.5783,-12.5783,-12.5783,-12.5974,-12.6204,-12.6204,-12.628,-12.6509,-12.6509,-12.6777,-12.6891,-12.628,-12.6509,-12.6586,-12.5898,-12.5783,-12.5898,-12.6089,-12.5974,-12.6089,-12.7197,-12.67,-12.6204,-12.6204,-12.6204,-12.6089,-12.5783,-12.5783,-12.5783,-12.5783,-12.5783,-12.5783,-12.5783,-12.5783,-12.5783,-12.5783,-12.5783,-12.5783,-12.5783,-12.5783,-12.5783,-12.5783,-12.5522,-12.5298,-12.5298,-12.4979,-12.4812,-12.4812,-12.4812,-12.4812,-11.1492,-11.2406,-11.3305,-11.1592,-11.1807,-11.229,-11.1384,-11.1216,-11.1085,-11.1085,-11.1717,-11.2193,-11.2193,-11.3393,-11.4397,-11.4474,-11.52,0.0,0.0,-11.5696,-11.5696,-11.5696,-11.5696,-11.5696,-11.5696,-11.5696,-11.5696,-11.5696,-11.5696,-11.5696,-11.5696,-11.5696,-11.5696,-11.5696,-11.5696,-11.5696,-11.5696,-11.5696,-11.6193,-11.711,-11.7912,-11.8677,-11.9594,-12.0396,-12.0816,-12.0816,-12.0816,-12.0816,-12.0816,-12.0816,-12.1313,-12.2077,-12.2994,-12.3797,-12.4599,-12.5401,-12.5783,-12.5783,-12.5783,-12.5783,-12.5783,-12.5783,-12.5783,-12.5783,-12.5783,-12.6395,-12.7082,-12.7082,-12.7617,-12.8191,-12.8191,-12.7694,-12.7082,-12.7082,-12.6395,-12.5783,-12.5783,-12.5783,-12.6013,-12.6891,-12.6395,-12.628,-12.7999,-12.7617,-12.7082,-12.7082,-12.7082,-12.6777,-12.5898,-12.5783,-12.5783,-12.5783,-12.5783,-12.5783,-12.5783,-12.5783,-12.5783,-12.5783,-12.5783,-12.5783,-12.5783,-12.5783,-12.5783,-12.5783,-12.5522,-12.5298,-12.5298,-12.4979,-12.4812,-12.4812,-12.4812,-12.4812,-11.3725,-11.4706,-11.562,-11.3299,-11.3807,-11.4507,-11.2992,-11.2713,-11.2601,-11.2488,-11.2705,-11.3023,-11.3597,-11.408,-11.4703,-11.52,-11.5505,-11.5696,0.0,-11.5696,-11.5696,-11.5696,-11.5696,-11.5696,-11.5696,-11.5696,-11.5696,-11.5696,-11.5696,-11.5696,-11.5696,-11.5696,-11.5696,-11.5696,-11.5696,-11.6002,-11.6613,-11.6002,-11.669,-11.8715,-11.8409,-11.8982,-12.0396,-12.0702,-12.0816,-12.0816,-12.0816,-12.0816,-12.0816,-12.1389,-12.2115,-12.2918,-12.3797,-12.4599,-12.5401,-12.5707,-12.5783,-12.5783,-12.5783,-12.5783,-12.5783,-12.5783,-12.5783,-12.5898,-12.6509,-12.6509,-12.6509,-12.7617,-12.7694,-12.7617,-12.8191,-12.8496,-12.8496,-12.7388,-12.7694,-12.7885,-12.6204,-12.628,-12.6586,-12.628,-12.5974,-12.6204,-12.7312,-12.7694,-12.7694,-12.7197,-12.7579,-12.7388,-12.5974,-12.628,-12.6395,-12.5898,-12.5783,-12.5783,-12.5783,-12.5783,-12.5783,-12.5783,-12.5783,-12.5783,-12.5783,-12.5783,-12.5783,-12.5783,-12.5522,-12.5298,-12.5298,-12.4979,-12.4812,-12.4812,-12.4812,-12.4812,-11.6006,-11.6799,-11.7273,-11.532,-11.5383,-11.5587,-11.4184,-11.3597,-11.3317,-11.3174,-11.3404,-11.3786,-11.4397,-11.4703,-11.5085,-11.562,-11.5696,-11.5696,0.0,-11.5696,-11.5696,-11.5696,-11.5696,-11.5696,-11.5696,-11.5696,-11.5696,-11.5696,-11.5696,-11.5696,-11.5696,-11.5696,-11.5696,-11.5696,-11.5696,-11.6002,-11.6499,-11.6308,-11.711,-11.9097,-11.8791,-11.9479,-12.0816,-12.0816,-12.0816,-12.0816,-12.0816,-12.0816,-12.0893,-12.1695,-12.2497,-12.3414,-12.4217,-12.5019,-12.5783,-12.5783,-12.5783,-12.5783,-12.5783,-12.5783,-12.5783,-12.5783,-12.5783,-12.5898,-12.6509,-12.67,-12.6891,-12.7999,-12.8382,-12.8496,-12.9108,-12.9184,-12.8878,-12.7808,-12.7885,-12.7808,-12.6204,-12.6204,-12.6586,-12.628,-12.5974,-12.6204,-12.7312,-12.7999,-12.7999,-12.7197,-12.7808,-12.7694,-12.5974,-12.628,-12.6395,-12.5898,-12.5783,-12.5783,-12.5783,-12.6089,-12.6089,-12.5783,-12.6089,-12.6089,-12.5783,-12.5783,-12.5898,-12.628,-12.5599,-12.5488,-12.5792,-12.5093,-12.4812,-12.4812,-12.4812,-12.4812]},{"header":{"parameterUnit":"m.s-1","parameterCategory":1,"la1":30.6,"la2":29.2853,"lo1":-89.7004,"lo2":-87.6739,"dy":0.0162,"dx":0.0183,"nx":112,"ny":82,"refTime":"2023-03-02T06:00:00:Z","depth":0,"parameterNumber":3,"parameterNumberName":"V-component_of_WINDS"},"data":[0.0,0.0,0.0,0.0,0.0,0.0,0.0,0.0,0.0,0.0,0.0,0.0,0.0,0.0,0.0,0.0,0.0,0.0,0.0,0.0,0.0,0.0,0.0,0.0,0.0,0.0,0.0,0.0,0.0,0.0,0.0,0.0,0.0,0.0,0.0,0.0,0.0,0.0,0.0,0.0,0.0,0.0,0.0,0.0,0.0,0.0,0.0,0.0,0.0,0.0,0.0,0.0,0.0,0.0,0.0,0.0,0.0,0.0,0.0,0.0,0.0,0.0,0.0,0.0,0.0,0.0,0.0,0.0,0.0,0.0,0.0,0.0,0.0,0.0,0.0,0.0,0.0,0.0,0.0,0.0,0.0,0.0,0.0,0.0,0.0,0.0,0.0,0.0,0.0,0.0,1.85,1.9691,2.1004,2.1684,2.166,2.1343,2.0978,2.0621,0.0,0.0,0.0,0.0,0.0,0.0,0.0,0.0,0.0,0.0,0.0,0.0,0.0,0.0,0.0,0.0,0.0,0.0,0.0,0.0,0.0,0.0,0.0,0.0,0.0,0.0,0.0,0.0,0.0,0.0,0.0,0.0,0.0,0.0,0.0,0.0,0.0,0.0,0.0,0.0,0.0,0.0,0.0,0.0,0.0,0.0,0.0,0.0,0.0,0.0,0.0,0.0,0.0,0.0,0.0,0.0,0.0,0.0,0.0,0.0,0.0,0.0,0.0,0.0,0.0,0.0,0.0,0.0,0.0,0.0,0.0,0.0,0.0,0.0,0.0,0.0,0.0,0.0,0.0,0.0,0.0,0.0,0.0,0.0,0.0,0.0,0.0,0.0,0.0,0.0,0.0,0.0,0.0,0.0,0.0,0.0,0.0,0.0,0.0,0.0,0.0,0.0,0.0,0.0,1.9149,2.0915,2.1611,2.1831,2.1684,2.1343,2.0978,2.0621,0.0,0.0,0.0,0.0,0.0,0.0,0.0,0.0,0.0,0.0,0.0,0.0,0.0,0.0,0.0,0.0,0.0,0.0,0.0,0.0,0.0,0.0,0.0,0.0,0.0,0.0,0.0,0.0,0.0,0.0,0.0,0.0,0.0,0.0,0.0,0.0,0.0,0.0,0.0,0.0,0.0,0.0,0.0,0.0,0.0,0.0,0.0,0.0,0.0,0.0,0.0,0.0,0.0,0.0,0.0,0.0,0.0,0.0,0.0,0.0,0.0,0.0,0.0,0.0,0.0,0.0,0.0,0.0,0.0,0.0,0.0,0.0,0.0,0.0,0.0,0.0,0.0,0.0,0.0,0.0,0.0,0.0,0.0,0.0,0.0,0.0,0.0,0.0,0.0,0.0,0.0,0.0,0.0,0.0,0.0,0.0,0.0,0.0,0.0,0.0,0.0,0.0,0.0,1.8671,1.9723,2.15,2.1912,2.2001,2.1831,2.1465,2.1116,2.0759,2.006,0.0,0.0,0.0,0.0,0.0,0.0,0.0,0.0,0.0,0.0,0.0,0.0,0.0,0.0,0.0,0.0,0.0,0.0,0.0,0.0,0.0,0.0,0.0,0.0,0.0,0.0,0.0,0.0,0.0,0.0,0.0,0.0,0.0,0.0,0.0,0.0,0.0,0.0,0.0,0.0,0.0,0.0,0.0,0.0,0.0,0.0,0.0,0.0,0.0,0.0,0.0,0.0,0.0,0.0,0.0,0.0,0.0,0.0,0.0,0.0,0.0,0.0,0.0,0.0,0.0,0.0,0.0,0.0,0.0,0.0,0.0,0.0,0.0,0.0,0.0,0.0,0.0,0.0,0.0,0.0,0.0,0.0,0.0,0.0,0.0,0.0,0.0,0.0,0.0,0.0,0.0,0.0,0.0,0.0,0.0,0.0,0.0,0.0,0.0,0.0,0.0,0.0,1.9493,2.0457,2.1816,2.2147,2.2188,2.2017,2.162,2.1363,2.1367,2.0559,0.0,0.0,0.0,0.0,0.0,0.0,0.0,0.0,0.0,0.0,0.0,0.0,0.0,0.0,0.0,0.0,0.0,0.0,0.0,0.0,0.0,0.0,0.0,0.0,0.0,0.0,0.0,0.0,0.0,0.0,0.0,0.0,0.0,0.0,0.0,0.0,0.0,0.0,0.0,0.0,0.0,0.0,0.0,0.0,0.0,0.0,0.0,0.0,0.0,0.0,0.0,0.0,0.0,0.0,0.0,0.0,0.0,0.0,0.0,0.0,0.0,0.0,0.0,0.0,0.0,0.0,0.0,0.0,0.0,0.0,0.0,0.0,0.0,0.0,0.0,0.0,0.0,0.0,0.0,0.0,0.0,0.0,0.0,0.0,0.0,0.0,0.0,0.0,0.0,0.0,0.0,0.0,0.0,0.0,0.0,0.0,0.0,0.0,0.0,0.0,0.0,0.0,2.0536,2.1654,2.2131,2.2342,2.2383,2.2188,2.1684,2.1732,2.2631,2.1481,0.0,0.0,0.0,0.0,0.0,0.0,0.0,0.0,0.0,0.0,0.0,0.0,0.0,0.0,0.0,0.0,0.0,0.0,0.0,0.0,0.0,0.0,0.0,0.0,0.0,0.0,0.0,0.0,0.0,0.0,0.0,0.0,0.0,0.0,0.0,0.0,0.0,0.0,0.0,0.0,0.0,0.0,0.0,0.0,0.0,0.0,0.0,0.0,0.0,0.0,0.0,0.0,0.0,0.0,0.0,0.0,0.0,0.0,0.0,0.0,0.0,0.0,0.0,0.0,0.0,0.0,0.0,0.0,0.0,0.0,0.0,0.0,0.0,0.0,0.0,0.0,0.0,0.0,0.0,0.0,0.0,0.0,0.0,0.0,0.0,0.0,0.0,0.0,0.0,0.0,0.0,0.0,0.0,0.0,0.0,0.0,0.0,0.0,0.0,0.0,0.0,0.0,2.0473,2.1589,2.2172,2.2448,2.2513,2.2212,2.2134,2.1982,2.1791,0.0,0.0,0.0,0.0,0.0,0.0,0.0,0.0,0.0,0.0,0.0,0.0,0.0,0.0,0.0,0.0,0.0,0.0,0.0,0.0,0.0,0.0,0.0,0.0,0.0,0.0,0.0,0.0,0.0,0.0,0.0,0.0,0.0,0.0,0.0,0.0,0.0,0.0,0.0,0.0,0.0,0.0,0.0,0.0,0.0,0.0,0.0,0.0,0.0,0.0,0.0,0.0,0.0,0.0,0.0,0.0,0.0,0.0,0.0,0.0,0.0,0.0,0.0,0.0,0.0,0.0,0.0,0.0,0.0,0.0,0.0,0.0,0.0,0.0,0.0,0.0,0.0,0.0,0.0,0.0,0.0,0.0,0.0,0.0,0.0,0.0,0.0,0.0,0.0,0.0,0.0,0.0,0.0,0.0,0.0,0.0,0.0,0.0,0.0,0.0,0.0,0.0,1.9485,2.0731,2.1716,2.2334,2.257,2.2618,2.2383,2.254,2.237,2.1992,0.0,0.0,0.0,0.0,0.0,0.0,0.0,0.0,0.0,0.0,0.0,0.0,0.0,0.0,0.0,0.0,0.0,0.0,0.0,0.0,0.0,0.0,0.0,0.0,0.0,0.0,0.0,0.0,0.0,0.0,0.0,0.0,0.0,0.0,0.0,0.0,0.0,0.0,0.0,0.0,0.0,0.0,0.0,0.0,0.0,0.0,0.0,0.0,0.0,0.0,0.0,0.0,0.0,0.0,0.0,0.0,0.0,0.0,0.0,0.0,0.0,0.0,0.0,0.0,0.0,0.0,0.0,0.0,0.0,0.0,0.0,0.0,0.0,0.0,0.0,0.0,0.0,0.0,0.0,0.0,0.0,0.0,0.0,0.0,0.0,0.0,0.0,0.0,0.0,0.0,0.0,0.0,0.0,0.0,0.0,0.0,0.0,0.0,0.0,0.0,0.0,0.0,2.0186,2.1271,2.2147,2.2659,2.2724,2.2724,2.2724,2.2807,2.3104,0.0,0.0,0.0,0.0,0.0,0.0,0.0,0.0,0.0,0.0,0.0,0.0,0.0,0.0,0.0,0.0,0.0,0.0,0.0,0.0,0.0,0.0,0.0,0.0,0.0,0.0,0.0,0.0,0.0,0.0,0.0,0.0,0.0,0.0,0.0,0.0,0.0,0.0,0.0,0.0,0.0,0.0,0.0,0.0,0.0,0.0,0.0,0.0,0.0,0.0,0.0,0.0,0.0,0.0,0.0,0.0,0.0,0.0,0.0,0.0,0.0,0.0,0.0,0.0,0.0,0.0,0.0,0.0,0.0,0.0,0.0,0.0,0.0,0.0,0.0,0.0,0.0,0.0,0.0,0.0,0.0,0.0,0.0,0.0,0.0,0.0,0.0,0.0,0.0,0.0,0.0,0.0,0.0,0.0,0.0,0.0,0.0,0.0,0.0,0.0,0.0,0.0,0.0,2.0459,2.1438,2.2277,2.2675,2.2724,2.2724,2.2724,2.3149,2.3165,2.2362,0.0,0.0,0.0,0.0,0.0,0.0,0.0,0.0,0.0,0.0,0.0,0.0,0.0,0.0,0.0,0.0,0.0,0.0,0.0,0.0,0.0,0.0,0.0,0.0,0.0,0.0,0.0,0.0,0.0,0.0,0.0,0.0,0.0,0.0,0.0,0.0,0.0,0.0,0.0,0.0,0.0,0.0,0.0,0.0,0.0,0.0,0.0,0.0,0.0,0.0,0.0,0.0,0.0,0.0,0.0,0.0,0.0,0.0,0.0,0.0,0.0,0.0,0.0,0.0,0.0,0.0,0.0,0.0,0.0,0.0,0.0,0.0,0.0,0.0,0.0,0.0,0.0,0.0,0.0,0.0,0.0,0.0,0.0,0.0,0.0,0.0,0.0,0.0,0.0,0.0,0.0,0.0,0.0,0.0,0.0,0.0,0.0,0.0,0.0,0.0,0.0,0.0,2.1072,2.1719,2.2383,2.287,2.287,2.283,2.283,2.3203,2.3138,2.2121,0.0,0.0,0.0,0.0,0.0,0.0,0.0,0.0,0.0,0.0,0.0,0.0,0.0,0.0,0.0,0.0,0.0,0.0,0.0,0.0,0.0,0.0,0.0,0.0,0.0,0.0,0.0,0.0,0.0,0.0,0.0,0.0,0.0,0.0,0.0,0.0,0.0,0.0,0.0,0.0,0.0,0.0,0.0,0.0,0.0,0.0,0.0,0.0,0.0,0.0,0.0,0.0,0.0,0.0,0.0,0.0,0.0,0.0,0.0,0.0,0.0,0.0,0.0,0.0,0.0,0.0,0.0,0.0,0.0,0.0,0.0,0.0,0.0,0.0,0.0,0.0,0.0,0.0,0.0,0.0,0.0,0.0,0.0,0.0,0.0,0.0,0.0,0.0,0.0,0.0,0.0,0.0,0.0,0.0,0.0,0.0,0.0,0.0,0.0,0.0,0.0,0.0,2.1806,2.2082,2.2464,2.3146,2.3081,2.3,2.3016,2.3149,2.3052,2.2522,0.0,0.0,0.0,0.0,0.0,0.0,0.0,0.0,0.0,0.0,0.0,0.0,0.0,0.0,0.0,0.0,0.0,0.0,0.0,0.0,0.0,0.0,0.0,0.0,0.0,0.0,0.0,0.0,0.0,0.0,0.0,0.0,0.0,0.0,0.0,0.0,0.0,0.0,0.0,0.0,0.0,0.0,0.0,0.0,0.0,0.0,0.0,0.0,0.0,0.0,0.0,0.0,0.0,0.0,0.0,0.0,0.0,0.0,0.0,0.0,1.785,1.7855,0.0,0.0,0.0,0.0,0.0,0.0,0.0,0.0,0.0,0.0,0.0,0.0,0.0,0.0,0.0,0.0,0.0,0.0,0.0,0.0,0.0,0.0,0.0,0.0,0.0,0.0,0.0,0.0,0.0,0.0,0.0,0.0,0.0,0.0,0.0,0.0,0.0,0.0,0.0,0.0,2.162,2.2001,2.2407,2.3,2.3016,2.3065,2.3195,2.3332,2.3038,2.2317,2.3153,0.0,0.0,0.0,0.0,0.0,0.0,0.0,0.0,0.0,0.0,0.0,0.0,0.0,0.0,0.0,0.0,0.0,0.0,0.0,0.0,0.0,0.0,0.0,0.0,0.0,0.0,0.0,0.0,0.0,0.0,0.0,0.0,0.0,0.0,0.0,0.0,0.0,0.0,0.0,0.0,0.0,0.0,0.0,0.0,0.0,0.0,0.0,0.0,0.0,0.0,0.0,0.0,0.0,0.0,0.0,0.0,0.0,0.0,0.0,1.8819,1.8587,0.0,0.0,0.0,0.0,0.0,0.0,0.0,0.0,0.0,0.0,0.0,0.0,0.0,0.0,0.0,0.0,0.0,0.0,0.0,0.0,0.0,0.0,0.0,0.0,0.0,0.0,0.0,0.0,0.0,0.0,0.0,0.0,0.0,0.0,0.0,0.0,0.0,0.0,0.0,0.0,2.1855,2.2237,2.2618,2.3065,2.3041,2.3041,2.313,2.3066,2.2694,2.2082,2.2496,0.0,0.0,0.0,0.0,0.0,0.0,0.0,0.0,0.0,0.0,0.0,0.0,0.0,0.0,0.0,0.0,0.0,0.0,0.0,0.0,0.0,0.0,0.0,0.0,0.0,0.0,0.0,0.0,0.0,0.0,0.0,0.0,0.0,0.0,0.0,0.0,0.0,0.0,0.0,0.0,0.0,0.0,0.0,0.0,0.0,0.0,0.0,0.0,0.0,0.0,0.0,0.0,0.0,2.0052,2.0214,2.0409,2.0409,2.0409,2.0401,1.9839,1.945,1.9285,1.9615,0.0,0.0,0.0,0.0,0.0,0.0,0.0,0.0,0.0,0.0,0.0,0.0,0.0,0.0,0.0,0.0,0.0,0.0,0.0,0.0,0.0,0.0,2.1035,2.1408,2.149,2.1408,2.1108,0.0,0.0,0.0,0.0,0.0,0.0,0.0,0.0,0.0,0.0,0.0,2.2107,2.2489,2.2846,2.3171,2.3106,2.3041,2.3041,2.2724,2.2383,2.2042,2.1855,2.2038,0.0,0.0,0.0,0.0,0.0,0.0,0.0,0.0,0.0,0.0,0.0,0.0,0.0,0.0,0.0,0.0,0.0,0.0,0.0,0.0,0.0,0.0,0.0,0.0,0.0,0.0,0.0,0.0,0.0,0.0,0.0,0.0,1.7916,1.7824,0.0,0.0,0.0,0.0,0.0,0.0,0.0,0.0,0.0,0.0,0.0,0.0,0.0,2.0528,2.0773,2.0696,2.0675,2.0491,2.0353,2.0458,2.0783,2.0783,2.0783,2.0783,2.0759,0.0,2.0159,2.0369,0.0,0.0,0.0,0.0,0.0,0.0,0.0,0.0,0.0,0.0,0.0,0.0,0.0,0.0,0.0,0.0,0.0,0.0,0.0,0.0,0.0,0.0,2.1408,2.1766,2.1871,2.1847,2.1806,2.153,2.1319,2.1319,2.1067,2.0856,0.0,0.0,0.0,0.0,0.0,0.0,2.1912,2.2399,2.2805,2.3016,2.3146,2.3211,2.3211,2.2895,2.2594,2.2407,2.2237,2.2307,2.2481,2.2834,0.0,0.0,0.0,0.0,0.0,0.0,0.0,0.0,0.0,0.0,0.0,0.0,0.0,0.0,0.0,0.0,0.0,0.0,0.0,0.0,0.0,0.0,0.0,0.0,0.0,0.0,0.0,0.0,0.0,1.8087,1.8176,1.807,1.8387,1.8606,0.0,0.0,0.0,0.0,0.0,0.0,0.0,0.0,0.0,2.0972,2.096,2.1106,2.1396,2.1302,2.1071,2.0596,2.0612,2.0702,2.0856,2.0856,2.0913,2.101,2.101,2.0921,2.0783,2.0864,2.0832,2.0734,0.0,0.0,0.0,0.0,2.0012,2.0319,2.0391,2.0537,2.0783,2.084,0.0,0.0,0.0,0.0,0.0,0.0,0.0,2.1343,2.149,2.162,2.1766,2.2017,2.2082,2.2107,2.2212,2.2017,2.179,2.1579,2.1408,2.1303,2.1303,2.1303,0.0,0.0,0.0,2.1896,2.2066,2.2448,2.2789,2.2976,2.2976,2.3,2.3106,2.2789,2.2513,2.2318,2.2571,2.2867,2.3147,2.3625,2.4083,0.0,0.0,0.0,0.0,0.0,0.0,0.0,0.0,0.0,0.0,0.0,0.0,0.0,0.0,0.0,0.0,0.0,0.0,0.0,0.0,0.0,0.0,0.0,0.0,0.0,0.0,0.0,0.0,1.8184,1.833,1.8192,1.8541,1.8793,0.0,0.0,0.0,0.0,0.0,0.0,1.9508,1.9776,2.0331,2.1351,2.1259,2.1387,2.1717,2.1575,2.1347,2.0799,2.0929,2.1019,2.1059,2.1059,2.1132,2.1254,2.1254,2.1295,2.1319,2.1181,2.1051,2.0921,2.0921,2.0979,2.1004,2.0751,2.0947,2.1201,2.1094,2.1075,2.1181,2.114,2.1132,2.1116,2.1019,0.0,0.0,0.0,0.0,2.1684,2.1766,2.1896,2.2042,2.2212,2.2253,2.2302,2.2448,2.2359,2.2172,2.1855,2.1766,2.1725,2.1725,2.1725,0.0,2.1912,2.2082,2.2188,2.2188,2.2553,2.2846,2.2976,2.287,2.2846,2.2976,2.2683,2.2407,2.2277,2.2832,2.3317,2.3804,2.4303,2.4679,2.4986,0.0,0.0,0.0,0.0,0.0,0.0,0.0,0.0,0.0,0.0,0.0,0.0,0.0,0.0,0.0,0.0,0.0,0.0,0.0,0.0,0.0,0.0,0.0,0.0,0.0,0.0,0.0,0.0,0.0,1.8176,1.8647,0.0,0.0,0.0,0.0,1.9248,1.9565,1.9687,1.9524,2.0011,2.0608,2.1232,2.1323,2.15,2.1661,2.1678,2.1549,2.1343,2.136,2.1449,2.162,2.162,2.162,2.1636,2.1636,2.1725,2.1847,2.1335,2.1124,2.1116,2.1116,2.1532,2.2076,2.1374,2.1532,2.2126,2.1571,2.136,2.1425,2.1766,2.1871,2.1806,2.1465,2.149,0.0,0.0,2.1644,2.1749,2.2082,2.2172,2.2237,2.2407,2.2448,2.2448,2.2472,2.2464,2.2407,2.2212,2.2042,2.1912,2.1912,0.0,2.1912,2.1936,2.2082,2.2188,2.2188,2.2659,2.3,2.3,2.3,2.3,2.3,2.2683,2.2472,2.2448,2.3032,2.3522,2.4006,2.4375,2.4725,2.5203,2.4797,0.0,0.0,0.0,0.0,0.0,0.0,0.0,0.0,0.0,0.0,0.0,0.0,0.0,0.0,0.0,0.0,0.0,0.0,0.0,0.0,0.0,0.0,0.0,0.0,0.0,0.0,0.0,0.0,1.8517,1.9289,0.0,1.9321,1.9792,1.9999,1.9597,1.9719,1.9857,2.002,2.0214,2.0635,2.15,2.1805,2.1999,2.2058,2.2303,2.2157,2.1741,2.162,2.166,2.1831,2.1725,2.1725,2.1831,2.1831,2.1871,2.1912,2.1725,2.1571,2.1465,2.1465,2.1771,2.2253,2.1677,2.1947,2.2456,2.1915,2.1741,2.1766,2.1896,2.1936,2.1912,2.1782,2.179,2.1831,2.1831,2.1912,2.2066,2.2302,2.2448,2.257,2.2765,2.2805,2.2805,2.2805,2.2724,2.2618,2.2553,2.2294,2.2107,2.2107,2.2107,2.2147,2.2253,2.2342,2.2359,2.2359,2.2529,2.27,2.2805,2.2724,2.27,2.2805,2.2594,2.2703,2.3049,2.3607,2.4261,2.4771,2.5259,2.5517,2.5402,2.6023,2.5741,0.0,0.0,0.0,0.0,0.0,0.0,0.0,0.0,0.0,0.0,0.0,0.0,0.0,0.0,0.0,0.0,0.0,0.0,0.0,0.0,0.0,0.0,0.0,0.0,0.0,1.8428,1.8631,1.8874,1.9758,2.0233,1.9597,2.0216,2.0418,1.9984,1.9938,2.0101,2.0393,2.0523,2.0939,2.1558,2.1916,2.1982,2.2107,2.2307,2.2249,2.2017,2.1896,2.1896,2.2017,2.1896,2.1912,2.2017,2.2017,2.2066,2.2107,2.2107,2.2001,2.1831,2.1997,2.2335,2.2694,2.2471,2.2795,2.3328,2.2615,2.2228,2.2107,2.2107,2.2107,2.2107,2.2042,2.2017,2.2017,2.2017,2.2147,2.2318,2.2513,2.2683,2.2846,2.2976,2.3126,2.3228,2.3,2.2971,2.2949,2.2724,2.2489,2.2277,2.2277,2.2277,2.2342,2.2529,2.2513,2.2489,2.2553,2.2618,2.2683,2.2805,2.2765,2.2765,2.2805,2.2875,2.2991,2.3386,2.419,2.4746,2.5205,2.593,2.6185,2.5859,2.6784,2.6355,2.4589,0.0,0.0,0.0,0.0,0.0,0.0,0.0,0.0,0.0,0.0,0.0,0.0,0.0,0.0,0.0,0.0,0.0,0.0,0.0,0.0,0.0,0.0,0.0,1.8428,1.8615,1.8866,1.9216,1.9917,2.0309,1.9886,2.0316,2.0502,2.0179,2.0247,2.0418,2.0604,2.0937,2.1205,2.1384,2.1408,2.1571,2.1936,2.1766,2.1855,2.2188,2.2188,2.2188,2.2188,2.2188,2.2188,2.2188,2.2188,2.2302,2.2472,2.2472,2.2359,2.2196,2.2687,2.3164,2.3734,2.3734,2.4186,2.4723,2.3662,2.3049,2.2472,2.2472,2.2472,2.2448,2.2277,2.2212,2.2212,2.2212,2.2342,2.2513,2.27,2.287,2.3,2.3016,2.3497,2.3843,2.3244,2.3339,2.3557,2.2849,2.2594,2.2472,2.2472,2.2472,2.2529,2.2675,2.257,0.0,2.27,2.287,2.2976,2.3,2.3146,2.3171,2.3,2.3415,2.3588,2.3509,2.4535,2.5205,2.5214,2.6148,2.6632,2.6407,2.7081,2.6539,2.4725,0.0,0.0,0.0,0.0,0.0,0.0,0.0,0.0,0.0,0.0,0.0,0.0,0.0,0.0,0.0,0.0,0.0,0.0,0.0,0.0,0.0,1.8379,1.8395,1.8444,1.872,1.8996,1.9232,2.015,2.0594,2.0158,2.0816,2.1071,2.0726,2.0677,2.0783,2.097,2.1075,2.1205,2.1384,2.1636,2.1831,2.1936,2.2147,2.2302,2.2383,2.2253,2.2253,2.2383,2.2253,2.2253,2.2383,2.2383,2.2424,2.2472,2.2594,2.2618,2.2553,2.2621,2.2807,2.3274,2.2954,2.3038,2.308,2.2785,2.2588,2.2489,2.2618,2.2659,2.2659,2.274,2.3024,2.3182,2.2865,2.3066,2.3307,2.3143,2.3146,2.3211,2.3358,2.3862,2.4341,2.411,2.3977,2.3876,2.3633,2.3024,2.2472,2.2472,2.2472,2.2489,2.2529,2.2489,2.2489,2.2529,2.2578,2.2659,2.2789,2.2846,2.2971,2.3373,2.3691,2.4065,2.465,2.5111,2.559,2.5796,2.6082,2.6621,2.7306,2.7368,2.7065,0.0,0.0,0.0,0.0,0.0,0.0,0.0,0.0,0.0,0.0,0.0,0.0,0.0,0.0,0.0,0.0,0.0,0.0,0.0,0.0,0.0,0.0,1.8647,1.889,1.889,1.8964,1.9191,1.9451,2.04,2.0862,2.0418,2.1124,2.1414,2.1061,2.097,2.1083,2.1343,2.1343,2.1465,2.1725,2.1847,2.2001,2.2147,2.2294,2.2383,2.2472,2.2359,2.2359,2.2472,2.2359,2.2407,2.257,2.257,2.2618,2.27,2.2724,2.2765,2.283,0.0,0.0,0.0,0.0,2.3115,2.2925,2.2925,2.2752,2.2594,2.2675,2.2765,2.2846,2.296,2.3162,2.3339,2.3077,2.3203,2.3472,2.3314,2.3317,2.3406,2.3504,2.4269,2.4855,2.4502,2.4751,2.478,2.418,2.3808,0.0,2.3058,2.2851,2.2876,2.3024,2.2983,2.2975,2.2906,2.2789,2.283,2.2935,2.3244,2.3615,2.3775,2.4458,0.0,0.0,0.0,2.601,2.6491,2.6396,0.0,0.0,0.0,2.7277,2.6499,2.7065,0.0,0.0,2.6206,2.6127,0.0,0.0,0.0,0.0,0.0,0.0,0.0,0.0,0.0,0.0,0.0,0.0,0.0,0.0,0.0,0.0,1.8948,1.9272,1.9313,1.9337,1.9475,1.9808,2.0563,2.1063,2.0637,2.1218,2.1499,2.1173,2.1189,2.1343,2.1684,2.1684,0.0,0.0,0.0,2.2123,2.2472,2.2302,2.2318,2.2489,2.2472,2.2472,2.2472,2.2472,2.2553,2.2724,2.2724,2.283,2.2976,2.2846,2.2895,2.3065,2.3598,2.3817,2.3801,2.4216,2.3937,2.3338,2.3338,0.0,0.0,2.2781,2.2895,2.3041,2.3065,2.3041,2.3143,2.3041,2.3273,2.3379,2.3396,2.3406,2.3528,2.3528,2.4493,2.5233,2.4751,2.5426,2.5769,2.4682,2.4628,2.4671,2.3949,2.3645,2.3521,2.3851,2.3641,2.3423,2.329,2.3236,2.3236,2.3252,2.4007,0.0,2.4333,2.5413,2.598,2.5667,2.6085,2.6568,2.6834,2.6744,2.6646,2.6646,2.7561,2.7236,2.5581,2.6669,2.6798,2.5855,2.6748,2.6669,0.0,0.0,0.0,0.0,0.0,0.0,0.0,0.0,0.0,0.0,0.0,0.0,0.0,0.0,0.0,1.9029,1.9191,1.9362,1.9646,1.9817,1.9987,2.019,2.0514,2.0775,2.0994,2.1159,2.1314,2.153,2.1555,2.166,2.1871,2.1871,2.1912,2.1977,2.2082,2.2253,2.2472,2.2424,2.2513,2.2675,2.2529,0.0,2.2472,2.2472,2.2553,2.2724,2.2724,2.283,2.3,2.3106,2.3252,2.3398,2.3232,2.3126,2.322,2.3305,2.3162,2.3138,2.3138,2.3037,2.2976,2.3106,2.3171,2.3236,2.3382,2.3668,0.0,2.351,2.3692,2.3882,2.3551,2.3504,2.3528,2.3528,2.414,2.4855,2.5233,2.5307,2.5514,2.5769,2.5238,2.48,2.5266,2.4432,2.3631,2.3698,2.3207,2.2906,2.3025,2.3041,2.3106,2.3236,2.3882,2.4478,2.4937,2.5785,2.6345,2.6257,2.6184,2.6177,2.6253,2.6206,2.6177,2.6177,2.738,2.7266,2.6007,2.7143,2.7163,2.6054,2.7098,2.6985,0.0,0.0,0.0,0.0,0.0,0.0,0.0,0.0,0.0,0.0,0.0,1.8338,1.8436,0.0,1.8948,1.9216,1.9557,1.9825,1.9914,2.0239,2.0426,2.0328,2.0556,2.0832,2.11,2.1295,2.1465,2.1644,2.1741,2.1871,2.2066,2.2066,2.2107,2.2188,2.2277,2.2383,2.2472,2.2553,2.2635,2.2724,2.2724,2.274,2.274,2.274,2.283,2.3,2.3,2.3081,2.3276,2.3358,2.3406,2.3382,2.3293,2.3211,2.313,2.313,2.3065,2.3,2.3,2.3065,2.3146,2.3236,2.3317,2.3406,2.3504,2.3696,2.3783,2.3512,2.3696,2.3783,2.3512,2.3528,2.3528,2.3528,2.4011,2.4622,2.4975,2.5377,2.5785,2.5785,2.5552,2.5509,2.5835,2.5085,2.4277,2.4389,2.4044,2.3758,2.3355,2.3187,2.3187,2.3382,2.4061,2.4697,2.5039,2.5898,2.6504,2.6772,2.6356,2.6177,2.6281,2.6299,2.6299,2.6299,2.6971,2.7019,2.6432,2.6913,2.6865,2.6281,2.6633,2.6604,0.0,0.0,0.0,0.0,0.0,0.0,0.0,1.8103,1.8192,1.8054,1.8282,1.8525,1.8598,1.8964,1.9297,1.9394,1.9922,2.0288,2.0182,2.0564,2.0759,2.0507,2.0734,2.0994,2.1213,2.149,2.1684,2.1766,2.1896,2.2066,2.2237,2.2253,2.2318,2.2464,2.2513,2.2529,2.2578,2.27,2.2789,2.283,2.2935,2.3,2.3,2.3,2.3081,2.3252,2.3301,2.3406,2.3528,2.3528,2.3447,2.3317,2.3463,2.3447,2.3317,2.3317,2.3211,2.3106,2.3106,2.3187,2.3317,2.3317,2.3406,2.3528,2.3528,2.3528,2.3528,2.3528,2.3528,2.3528,2.3528,2.3528,2.3528,2.3528,2.389,2.4373,2.4493,2.5336,2.5928,2.5697,2.5785,2.6025,2.6299,2.5525,2.4955,2.5096,2.5012,2.4606,2.3526,2.3358,2.3358,2.3463,2.4291,2.4881,2.5268,2.5986,2.663,2.7056,2.6526,2.6281,2.6498,2.6498,2.6498,2.6498,2.6677,2.6753,2.6753,2.6555,2.6451,2.6451,2.6224,2.6129,1.7712,1.7581,1.7242,1.7686,1.7648,1.7616,0.0,1.829,1.842,1.8395,1.8558,1.8793,1.911,1.9216,1.941,1.9882,2.0158,2.0369,2.0515,2.0718,2.0897,2.1027,2.1075,2.123,2.1579,2.1636,2.179,2.2107,2.2147,2.2237,2.2424,2.2448,2.2448,2.2472,2.2618,2.2765,2.2935,2.296,2.3041,2.3195,2.3065,2.3,2.3,2.3,2.3081,2.326,2.3422,2.3512,2.3528,2.3528,2.3512,2.3504,2.3528,2.3512,2.3504,2.3504,2.3487,2.3463,2.3463,2.3487,2.3504,2.3504,2.3512,2.3528,2.3528,2.3528,2.3528,2.3528,2.3528,2.3528,2.3528,2.3528,2.3528,2.3528,2.3528,2.3761,2.4373,2.4622,2.4984,2.6057,2.5657,2.5687,2.7072,2.6089,2.507,2.4938,2.457,2.4036,2.3184,2.3317,2.3447,2.3301,2.3959,2.4792,2.5998,2.6327,2.663,2.7056,2.6649,2.6498,2.6706,2.6734,2.6734,2.6734,2.6753,2.6753,2.6753,2.6555,2.6451,2.6451,2.6224,2.6129,1.7639,1.77,1.7496,1.8065,1.8112,1.8056,1.8338,1.8476,1.8582,1.8476,1.8761,1.9086,1.9232,1.9597,1.9946,2.0174,2.0531,2.0783,2.0751,2.0986,2.1116,2.0986,2.1148,2.1384,2.1636,2.1766,2.1912,2.2172,2.2302,2.2383,2.2472,2.2553,2.2618,2.2618,2.2789,2.2911,2.3,2.3106,2.3195,2.3252,2.3293,2.3317,2.3317,2.3317,2.3341,2.3422,2.3487,2.3528,2.3528,2.3528,2.3528,2.3528,2.3528,2.3528,2.3528,2.3528,2.3528,2.3528,2.3528,2.3528,2.3528,2.3528,2.3528,2.3528,2.3528,2.3528,2.3528,2.3528,2.3528,2.3528,2.3528,2.3528,2.3528,2.3528,2.3528,2.3657,2.4373,2.4493,2.4855,2.6177,2.5785,2.5594,2.71,2.6492,2.5615,2.517,2.4734,2.411,2.3317,2.3341,2.342,2.3605,2.4621,2.5514,2.6117,2.6458,2.68,2.7226,2.6857,2.6725,2.6933,2.6952,2.6952,2.6952,2.7056,2.7131,2.7131,2.6781,2.663,2.663,2.6281,2.6129,1.7743,1.7769,1.7922,1.8121,1.8272,1.8335,1.8335,1.8608,1.8834,1.8704,1.9061,1.9419,1.9475,1.9938,2.0336,2.0385,2.0807,2.1083,2.0945,2.1148,2.1222,2.0962,2.1157,2.1384,2.1579,2.179,2.2017,2.2253,2.2383,2.2472,2.2472,2.2635,2.2724,2.2724,2.296,2.3065,2.3065,2.3236,2.3341,2.3341,2.3463,2.3528,2.3528,2.3528,2.3528,2.3528,2.3528,2.3528,2.3528,2.3528,2.3528,2.3528,2.3528,2.3528,2.3528,2.3528,2.3528,2.3528,2.3528,2.3569,2.3617,2.3617,2.3617,2.3617,2.3617,2.3569,2.3528,2.3528,2.3528,2.3528,2.3528,2.3569,2.3617,2.3617,2.3634,2.3788,2.4457,2.4457,2.4673,2.6177,2.5701,2.5528,2.7118,2.6667,2.5841,2.5356,2.4889,2.4219,2.3406,2.342,2.3688,2.391,2.5197,2.5998,2.5888,2.6405,2.6933,2.7348,2.7056,2.6933,2.715,2.715,2.715,2.715,2.7301,2.7377,2.7377,2.6952,2.6781,2.6829,2.6403,2.6252,1.7947,1.7924,1.8095,1.7599,1.7672,1.7935,1.7935,1.8598,1.924,1.924,1.9524,1.9825,2.0011,2.0198,2.0377,2.0556,2.0889,2.1124,2.1116,2.1124,2.1132,2.1124,2.1132,2.1205,2.1384,2.1725,2.2082,2.2424,2.2472,2.2472,2.2472,2.2635,2.2724,2.2724,2.3065,2.3252,2.3252,2.3422,2.3528,2.3528,2.3528,2.3528,2.3528,2.3528,2.3528,2.3528,2.3528,2.3528,2.3528,2.3528,2.3528,2.3528,2.3528,2.3528,2.3528,2.3528,2.3528,2.3528,2.3528,2.3658,2.3804,2.3804,2.3804,2.3804,2.3804,2.3674,2.3528,2.3528,2.3528,2.3528,2.3528,2.3658,2.3804,2.3804,2.3934,2.4254,2.4684,2.4276,2.4356,2.6093,2.5439,2.5087,2.7027,2.6307,2.5465,2.5465,2.4975,2.4135,2.3184,2.3748,2.4206,2.4206,2.5386,2.5888,2.5285,2.6179,2.6933,2.7348,2.7178,2.715,2.7348,2.7377,2.7377,2.7377,2.7377,2.7377,2.7377,2.6952,2.6857,2.7056,2.663,2.6555,1.7629,1.7644,1.7583,1.668,1.6546,1.6658,1.6871,1.7421,1.8021,1.8728,1.942,1.9666,1.9205,1.9838,2.0272,2.0133,2.0674,2.1165,2.1278,2.1295,2.1254,2.114,2.123,2.136,2.1555,2.1684,2.1896,2.2253,2.2277,2.2342,2.2464,2.274,2.2911,2.2911,2.3252,2.3447,2.3447,2.3504,2.3528,2.3528,2.3528,2.3528,2.3528,2.3528,2.3528,2.3528,2.3528,2.3528,2.3528,2.3528,2.3528,2.3528,2.3528,2.3528,2.3528,2.3528,2.3528,2.3528,2.3528,2.3658,2.3804,2.3804,2.3894,2.3975,2.3975,2.3934,2.3894,2.3894,2.3804,2.3739,2.3853,2.3845,2.3829,2.3959,2.4385,2.4877,2.5303,2.4894,2.4826,2.6196,2.5697,2.5465,2.6538,2.6408,2.5817,2.4984,2.4244,2.3849,2.3965,2.4597,2.512,2.512,2.6207,2.6667,2.6078,2.6721,2.7226,2.7377,2.7301,2.7301,2.7377,2.7377,2.7377,2.7377,2.7377,2.7377,2.7377,2.7103,2.7008,2.7074,2.6781,2.6677,1.7422,1.7419,1.7142,1.5824,1.5723,1.587,1.6062,1.6578,1.7241,1.8311,1.9049,1.9418,1.894,1.9434,1.9871,1.9723,2.021,2.0695,2.0919,2.1129,2.1181,2.1132,2.1278,2.1425,2.1555,2.1684,2.1912,2.2253,2.2302,2.2359,2.2553,2.283,2.3016,2.3081,2.3382,2.3528,2.3528,2.3528,2.3528,2.3528,2.3593,2.3634,2.3634,2.3699,2.3723,2.3723,2.3658,2.3634,2.3617,2.3552,2.3528,2.3528,2.3528,2.3528,2.3528,2.3528,2.3569,2.3634,2.3634,2.3739,2.391,2.3975,2.4064,2.417,2.417,2.4105,2.4064,2.4064,2.3975,2.391,2.404,2.4023,2.4015,2.4129,2.4575,2.5054,2.5406,2.4979,2.4911,2.587,2.5817,2.5697,2.6279,2.6177,2.5697,2.4622,2.389,2.3882,2.4751,2.5233,2.5594,2.5817,2.6787,2.7147,2.6408,2.7017,2.7377,2.7377,2.7377,2.7377,2.7377,2.7377,2.7377,2.7377,2.7377,2.7377,2.7377,2.7178,2.7103,2.7178,2.698,2.6904,1.7221,1.7133,1.6844,1.5206,1.5097,1.55,1.5507,1.6117,1.6886,1.788,1.8686,1.9142,1.8971,1.919,1.9378,1.9462,1.9746,1.9973,2.0318,2.0663,2.0945,2.1132,2.1295,2.1408,2.1425,2.1741,2.2107,2.2448,2.2472,2.2553,2.2724,2.2911,2.3081,2.3252,2.3422,2.3528,2.3528,2.3528,2.3528,2.3528,2.3699,2.3804,2.3804,2.3975,2.404,2.404,2.3869,2.3804,2.3788,2.3617,2.3552,2.3552,2.3552,2.3552,2.3552,2.3552,2.3674,2.3829,2.3829,2.3934,2.4105,2.4275,2.434,2.4356,2.4356,2.4235,2.4088,2.4088,2.408,2.408,2.408,2.421,2.4332,2.4356,2.447,2.4746,2.5012,2.4574,2.4467,2.532,2.5483,2.5594,2.6307,2.5826,2.5233,2.4502,2.389,2.4011,2.5336,2.5465,2.5697,2.6408,2.7017,2.7147,2.6538,2.7017,2.7377,2.7377,2.7377,2.7377,2.7377,2.7377,2.7377,2.7377,2.7377,2.7377,2.7377,2.7178,2.7207,2.7377,2.7178,2.7207,1.6639,1.6783,1.6487,1.4728,1.4204,1.4123,1.4632,1.4734,1.5327,1.7144,1.8199,1.8691,1.8121,1.894,1.9655,1.9543,2.0165,2.069,2.1052,2.1161,2.1319,2.1514,2.1555,2.1701,2.1961,2.2066,2.2277,2.2635,2.2529,2.2553,2.2724,2.3016,2.3211,2.3252,2.3422,2.3528,2.3528,2.3528,2.3528,2.3528,2.3569,2.3674,2.3804,2.3845,2.3869,2.3869,2.3829,2.3723,2.3617,2.3699,2.3739,2.3739,2.3869,2.3934,2.3934,2.3934,2.3959,2.4023,2.4145,2.4227,2.4275,2.4316,2.4421,2.4527,2.4527,2.4486,2.4462,2.4462,2.4356,2.4292,2.4421,2.4397,2.4381,2.4511,2.4946,2.5298,2.5189,2.5138,2.5054,2.5072,2.5041,2.5139,2.5612,2.5207,2.4502,2.3882,2.4011,2.4502,2.5345,2.5465,2.5946,2.7017,2.7248,2.7377,2.7128,2.7248,2.7248,2.6639,2.7147,2.7128,2.6639,2.7147,2.7377,2.7377,2.7377,2.7377,2.7377,2.733,2.733,2.7377,2.733,2.733,1.629,1.6313,1.6015,1.4342,1.3714,1.3714,1.4144,1.4244,1.4626,1.6456,1.7473,1.7858,1.7397,1.8274,1.8869,1.8692,1.9384,2.002,2.0443,2.0787,2.1127,2.1636,2.179,2.2001,2.2277,2.2383,2.2529,2.283,2.2683,2.2683,2.2935,2.3146,2.3341,2.3487,2.3512,2.3569,2.3658,2.3658,2.3658,2.3658,2.3723,2.3829,2.3934,2.408,2.4145,2.4145,2.408,2.3975,2.3894,2.391,2.391,2.3934,2.4023,2.4064,2.4064,2.4064,2.4105,2.4186,2.4292,2.4381,2.4446,2.4446,2.4511,2.4592,2.4592,2.4592,2.4592,2.4592,2.4527,2.4462,2.4568,2.4527,2.4462,2.4568,2.5097,2.5558,2.5364,2.5313,2.5229,2.4983,2.4831,2.4826,2.5001,2.4751,2.4244,2.3657,2.3761,2.4373,2.5336,2.5697,2.6307,2.7248,2.7377,2.7377,2.7377,2.7377,2.7147,2.6408,2.7017,2.7147,2.6408,2.7017,2.7377,2.7377,2.7377,2.7377,2.7377,2.7377,2.7377,2.7377,2.7377,2.7377,1.6074,1.6073,1.576,1.4158,1.3718,1.368,1.418,1.4227,1.4559,1.5982,1.6724,1.7063,1.6921,1.7543,1.7864,1.7651,1.8269,1.8986,1.9488,2.0239,2.0954,2.1701,2.2001,2.2277,2.2489,2.2635,2.2805,2.3016,2.2895,2.2935,2.3236,2.3301,2.3487,2.3829,2.3682,2.3674,2.3845,2.3845,2.3845,2.3845,2.3999,2.408,2.4105,2.4421,2.4551,2.4551,2.4397,2.4316,2.4292,2.4145,2.4105,2.4105,2.4129,2.4129,2.4129,2.4129,2.4235,2.4381,2.4381,2.4462,2.4592,2.4592,2.4592,2.4592,2.4592,2.4592,2.4592,2.4592,2.4592,2.4592,2.4592,2.4592,2.4592,2.4592,2.5097,2.5433,2.5381,2.5364,2.5254,2.4899,2.4848,2.4659,2.4603,2.444,2.4181,2.3714,2.3577,2.4036,2.5259,2.5946,2.6538,2.7377,2.7377,2.7377,2.7377,2.7377,2.7147,2.6454,2.6916,2.7017,2.6454,2.7017,2.7257,2.7377,2.7377,2.7377,2.7377,2.7377,2.7377,2.7377,2.7377,2.7377,1.6346,1.6369,1.6125,1.4732,1.3991,1.3891,1.4707,1.4402,1.4363,1.6062,1.6793,1.7099,1.707,1.7712,1.838,1.8358,1.9167,1.9985,2.0496,2.1152,2.163,2.2066,2.2147,2.2318,2.2635,2.27,2.2846,2.3195,2.3195,2.3195,2.3252,2.3552,2.3804,2.4023,2.3975,2.3975,2.4023,2.4023,2.4023,2.4023,2.404,2.4145,2.4292,2.4356,2.4381,2.4381,2.4356,2.4251,2.4129,2.4235,2.4292,2.4292,2.4446,2.4511,2.4511,2.4511,2.4527,2.4551,2.4551,2.4568,2.4592,2.4592,2.4592,2.4592,2.4592,2.4592,2.4592,2.4592,2.4592,2.4592,2.4592,2.4592,2.4592,2.4592,2.4726,2.4962,2.5433,2.5558,2.5491,2.5271,2.4732,2.4558,2.4852,2.4342,2.3935,2.3959,2.4342,2.4713,2.4852,2.5303,2.6057,2.7248,2.7377,2.7377,2.7377,2.7377,2.7221,2.6655,2.6629,2.6611,2.6646,2.6629,2.6888,2.7377,2.7377,2.7377,2.7377,2.7377,2.7377,2.7377,2.7377,2.7377,1.6521,1.629,1.5871,1.4879,1.4114,1.3874,1.4722,1.4675,1.4763,1.6004,1.6556,1.68,1.6724,1.7362,1.7937,1.7782,1.8744,1.9508,1.9692,2.0597,2.1343,2.1693,2.2121,2.257,2.2846,2.296,2.3146,2.3512,2.3552,2.3552,2.3552,2.3894,2.408,2.4064,2.4235,2.43,2.421,2.421,2.421,2.421,2.421,2.4251,2.4332,2.4421,2.4462,2.4462,2.4462,2.4421,2.434,2.4446,2.4462,2.4486,2.4551,2.4592,2.4592,2.4592,2.4592,2.4592,2.4592,2.4592,2.4592,2.4592,2.4592,2.4592,2.4592,2.4592,2.4592,2.4592,2.4592,2.4592,2.4592,2.4592,2.4592,2.4592,2.4836,2.5231,2.5475,2.5609,2.5433,2.4865,2.4473,2.44,2.4476,2.4229,2.3975,2.404,2.4147,2.4406,2.4764,2.4966,2.5465,2.6768,2.7342,2.7547,2.7547,2.7651,2.7493,2.6864,2.6673,2.6627,2.6718,2.6527,2.6759,2.7377,2.7377,2.7424,2.7547,2.7547,2.7547,2.7547,2.7547,2.7481,1.6563,1.6296,1.5741,1.4926,1.4243,1.3968,1.4674,1.4886,1.5106,1.6058,1.6408,1.6537,1.6422,1.703,1.7356,1.7063,1.8051,1.8867,1.8736,2.0019,2.103,2.1224,2.209,2.2688,2.2796,2.3163,2.3406,2.3788,2.3869,2.391,2.391,2.4145,2.4251,2.417,2.4446,2.4527,2.4397,2.4397,2.4397,2.4397,2.4397,2.4397,2.4397,2.4527,2.4592,2.4592,2.4592,2.4592,2.4592,2.4592,2.4592,2.4592,2.4592,2.4592,2.4592,2.4592,2.4592,2.4592,2.4592,2.4592,2.4592,2.4592,2.4592,2.4592,2.4592,2.4592,2.4592,2.4592,2.4592,2.4592,2.4592,2.4592,2.4592,2.4592,2.5097,2.5601,2.5475,2.5475,2.5324,2.4555,2.4397,2.434,2.421,2.4145,2.4129,2.417,2.404,2.4041,2.4637,2.4633,2.5139,2.6192,2.7009,2.7465,2.7521,2.7793,2.7746,2.7265,2.6941,2.6718,2.6849,2.6629,2.6759,2.7377,2.7377,2.7452,2.7623,2.7623,2.7753,2.7883,2.7883,2.7807,1.6711,1.6853,1.6548,1.5085,1.4631,1.4522,1.5002,1.488,1.5068,1.6433,1.6707,1.6727,1.6714,1.6842,1.707,1.6978,1.8051,1.8904,1.8982,2.054,2.1462,2.0961,2.1891,2.2627,2.2361,2.2878,2.3406,2.3788,2.4105,2.4292,2.4292,2.417,2.4235,2.4527,2.4576,2.4592,2.4568,2.4568,2.4568,2.4568,2.4568,2.4568,2.4568,2.4592,2.4592,2.4592,2.4592,2.4592,2.4592,2.4592,2.4592,2.4592,2.4592,2.4592,2.4592,2.4592,2.4592,2.4592,2.4592,2.4592,2.4592,2.4592,2.4592,2.4592,2.4592,2.4592,2.4592,2.4592,2.4592,2.4592,2.4592,2.4592,2.4592,2.4592,2.5097,2.5475,2.4853,2.5231,2.534,2.4702,2.4568,2.4568,2.4551,2.4421,2.4356,2.4527,2.4397,2.4292,2.44,2.4898,2.5443,2.5992,2.6453,2.6922,2.7087,2.7614,2.8001,2.7869,2.7203,2.6952,2.7567,2.6888,2.6759,2.7377,2.7377,2.7377,2.7405,2.7405,2.7654,2.8244,2.8244,2.8701,1.7156,1.6937,1.6274,1.5633,1.5069,1.4739,1.503,1.5063,1.5243,1.64,1.6761,1.6863,1.6768,1.6876,1.6978,1.6978,1.7657,1.8166,1.8058,1.954,2.0496,2.0015,2.1225,2.1931,2.178,2.2398,2.3214,2.3934,2.4186,2.4381,2.4486,2.4421,2.4446,2.4592,2.4592,2.4592,2.4592,2.4592,2.4592,2.4592,2.4592,2.4592,2.4592,2.4592,2.4592,2.4592,2.4592,2.4592,2.4592,2.4592,2.4592,2.4592,2.4592,2.4592,2.4592,2.4592,2.4592,2.4592,2.4592,2.4592,2.4592,2.4592,2.4592,2.4592,2.4592,2.4592,2.4592,2.4592,2.4592,2.4592,2.4592,2.4592,2.4592,2.4592,2.4853,2.4962,2.4718,2.4853,2.4962,2.4592,2.4592,2.4592,2.4592,2.4527,2.4511,2.4592,2.4446,2.4332,2.4332,2.4492,2.469,2.4964,2.5895,2.6609,2.7202,2.7187,2.7081,2.6964,2.615,2.5983,2.6494,2.6165,2.6177,2.6768,2.7248,2.7452,2.7575,2.7937,2.8347,2.8706,2.8735,2.8886,1.6853,1.695,1.6495,1.6028,1.5578,1.5253,1.5474,1.5425,1.5594,1.6467,1.6829,1.6944,1.6836,1.691,1.6978,0.0,1.7503,1.7706,1.7486,1.8747,1.9702,1.9178,2.033,2.1085,2.0982,2.2039,2.3063,2.3801,2.4167,2.4446,2.4511,2.4568,2.4592,2.4592,2.4592,2.4592,2.4592,2.4592,2.4592,2.4592,2.4592,2.4592,2.4592,2.4592,2.4592,2.4592,2.4592,2.4592,2.4592,2.4592,2.4592,2.4592,2.4592,2.4592,2.4592,2.4592,2.4592,2.4592,2.4592,2.4592,2.4592,2.4592,2.4592,2.4592,2.4592,2.4592,2.4592,2.4592,2.4592,2.4592,2.4592,2.4592,2.4592,2.4592,2.4592,2.4592,2.4592,2.4592,2.4592,2.4592,2.4592,2.4592,2.4592,2.4592,2.4592,2.4592,2.4486,2.4421,2.4421,2.43,2.44,2.4639,2.5406,2.6022,2.6779,2.6663,2.6528,2.6344,2.5762,2.5484,2.5834,2.583,2.5973,2.65,2.7045,2.7452,2.7604,2.8134,2.8473,2.8891,2.896,2.9019,1.5857,1.6866,1.7599,1.6253,1.6124,1.635,1.635,1.6229,1.6165,1.6839,1.6978,1.6978,1.6978,1.6978,1.6978,1.6978,0.0,1.7706,1.7486,1.8517,1.9119,1.8387,1.9583,2.0326,2.0228,2.1925,2.3075,2.3075,2.4013,2.4511,2.4356,2.4511,2.4592,2.4592,2.4592,2.4592,2.4592,2.4592,2.4592,2.4592,2.4592,2.4592,2.4592,2.4592,2.4592,2.4592,2.4592,2.4592,2.4592,2.4592,2.4592,2.4592,2.4592,2.4592,2.4592,2.4592,2.4592,2.4592,2.4592,2.4592,2.4592,2.4592,2.4592,2.4592,2.4592,2.4592,2.4592,2.4592,2.4592,2.4592,2.4592,2.4592,2.4592,2.4592,2.4592,2.4592,2.4592,2.4592,2.4592,2.4592,2.4592,2.4592,2.4592,2.4592,2.4592,2.4592,2.4592,2.4592,2.4592,2.4592,2.4836,2.5475,2.497,2.4836,2.5601,2.6247,2.6528,2.6344,2.6133,2.6036,2.6036,2.6264,2.65,2.6718,2.712,2.7377,2.7377,2.7604,2.8061,2.8657,2.8891,2.9097,1.615,1.6653,1.689,1.641,1.6372,1.635,1.635,1.6202,1.6289,1.6866,1.6978,1.6978,1.6978,1.6978,1.6978,1.6978,1.7188,1.7223,1.7107,1.7974,1.8572,1.8366,1.98,2.1031,2.1797,2.2305,2.2951,2.3693,2.3896,2.4063,2.4503,2.4568,2.4592,2.4592,2.4592,2.4592,2.4592,2.4592,2.4592,2.4592,2.4592,2.4592,2.4592,2.4592,2.4592,2.4592,2.4592,2.4592,2.4592,2.4592,2.4592,2.4592,2.4592,2.4592,2.4592,2.4592,2.4592,2.4592,2.4592,2.4592,2.4592,2.4592,2.4681,2.4763,2.4633,2.4592,2.4592,2.4592,2.4592,2.4592,2.4592,2.4592,2.4592,2.4592,2.4592,2.4592,2.4592,2.4592,2.4592,2.4592,2.4592,2.4592,2.4592,2.4592,2.4592,2.4592,2.4592,2.4592,2.4592,2.4592,2.4726,2.4836,2.4726,2.4836,2.5601,2.534,2.5148,2.4964,2.4906,2.4748,2.4515,2.5364,2.5927,2.6102,2.7139,2.7679,2.7802,2.8365,2.8706,2.9097,2.9322,2.9459,1.5683,1.6296,1.6766,1.655,1.6554,1.6663,1.6663,1.6551,1.6558,1.6873,1.6978,1.6978,1.6978,1.6768,1.6768,1.6978,1.6768,1.6788,1.7053,1.7639,1.8156,1.8675,2.0074,2.12,2.1827,2.2111,2.2623,2.3512,2.359,2.3953,2.4592,2.4592,2.4592,2.4592,2.4592,2.4592,2.4592,2.4592,2.4592,2.4592,2.4592,2.4592,2.4592,2.4592,2.4592,2.4592,2.4592,2.4592,0.0,2.4592,2.4592,2.4592,2.4592,2.4592,2.4592,2.4592,2.4592,2.4592,2.4592,2.4592,2.4592,2.4592,2.4722,2.4868,2.4803,2.4698,2.4592,2.4592,2.4592,2.4592,2.4592,2.4592,2.4592,2.4592,2.4592,2.4592,2.4592,2.4592,2.4592,2.4592,2.4592,2.4592,2.4592,2.4592,2.4592,2.4592,2.4592,2.4592,2.4592,2.4592,2.4592,2.4592,2.4592,2.4726,2.5231,2.4853,2.4551,2.4446,2.4381,2.4275,2.4105,2.4941,2.5642,2.5948,2.6986,2.7615,2.8001,2.8444,2.8854,2.9057,2.9182,2.924,0.0,1.5993,1.7278,1.6632,1.6849,1.7175,1.7175,1.7073,0.0,1.6978,1.6978,1.6978,1.6978,1.6558,1.6341,1.6873,1.6453,1.6393,1.7069,1.7494,1.8143,1.9405,2.0496,2.1041,2.0715,2.1544,2.2241,2.2658,2.3187,2.3953,2.4592,2.4592,2.4592,2.4592,2.4592,2.4592,2.4592,2.4592,2.4592,2.4592,2.4592,2.4592,2.4592,2.4592,2.4592,2.4592,2.4592,2.4592,2.4592,2.4592,2.4592,2.4592,2.4592,2.4592,2.4592,2.4616,2.4616,2.4616,2.4616,2.4616,2.4633,2.4657,2.4763,2.4933,2.5104,2.4909,2.4616,2.4616,2.4592,2.4592,2.4592,2.4592,2.4592,2.4592,2.4592,2.4592,2.4616,2.4592,2.4592,2.4633,2.4616,2.4592,2.4616,2.4592,2.4592,2.4592,2.4592,2.4592,2.4592,2.4592,2.4592,2.4592,2.4592,2.4592,2.4592,2.4592,2.4592,2.4592,2.4446,2.4421,2.4568,2.4881,2.54,2.6317,2.6891,2.7425,2.8048,2.8246,2.8445,2.8624,2.8624,2.8624,1.5959,0.0,1.7087,1.6869,1.6954,1.7032,0.0,1.7005,1.6978,1.6978,1.6978,1.6978,1.6978,1.6558,1.6341,1.6873,1.6453,1.6393,1.7069,1.8281,1.9484,2.0459,2.1399,2.1901,2.21,2.2355,2.2694,2.3151,2.3385,2.3953,2.4592,2.4592,2.4592,2.4592,2.4592,2.4592,2.4592,2.4592,2.4592,2.4592,2.4592,2.4592,2.4592,2.4592,2.4592,2.4592,2.4592,2.4592,2.4592,2.4592,2.4592,2.4592,2.4592,2.4592,2.4616,2.4746,2.4803,2.4803,2.4803,2.4892,2.5039,2.5169,2.5144,2.5104,2.529,2.5079,2.4803,2.4803,2.4698,2.4592,2.4592,2.4592,2.4592,2.4592,2.4592,2.4633,2.4787,2.4698,2.4681,2.4949,2.4787,2.4633,2.4787,2.4681,2.4592,2.4592,2.4592,2.4592,2.4592,2.4592,2.4592,2.4592,2.4592,2.4592,2.4592,2.4592,2.4592,2.4592,2.4551,2.4486,2.4397,2.4948,2.5537,2.6317,2.7554,2.8339,2.8473,2.852,2.8568,2.8624,2.8624,2.8624,1.6558,1.6768,1.6978,1.6978,1.6978,1.6978,1.6978,1.6978,1.6978,1.6978,1.6978,1.6998,1.7066,1.6598,1.6387,1.7055,1.6697,1.6563,1.7446,1.8706,1.9828,2.0452,2.1375,2.1976,2.2313,2.2453,2.2717,2.3331,2.3542,2.3953,2.4592,2.4592,2.4592,2.4592,2.4592,2.4592,2.4592,2.4592,2.4592,2.4592,2.4592,2.4592,2.4592,2.4592,2.4592,2.4592,2.4592,2.4592,2.4592,2.4592,2.4592,2.4592,2.4681,2.4681,2.4633,2.4892,2.4892,2.4763,2.4852,2.4933,2.5063,2.5315,2.5339,2.529,2.5461,2.5339,2.5079,2.4917,2.4746,2.4616,2.4698,2.4722,2.4738,2.4828,2.4844,2.4868,2.4974,2.4909,2.4892,2.4998,2.4852,2.4722,2.4746,2.4657,2.4592,2.4592,2.4592,2.4592,2.4592,2.4592,2.4592,2.4592,2.4592,2.4592,2.4592,2.4592,2.4592,2.4592,2.4592,2.4551,2.4462,2.4839,2.5449,2.6458,2.7808,2.8624,2.8624,2.8624,2.8624,2.8624,2.8624,2.8624,1.6978,1.6978,1.6978,1.6978,1.6978,1.6978,1.6978,1.6998,1.7005,1.6985,1.7019,1.7073,1.7148,1.667,1.6478,1.7237,1.6908,1.6952,1.7945,1.8958,1.9669,2.0074,2.1046,2.1734,2.2025,2.2343,2.2782,2.3558,2.3708,2.3953,2.4592,2.4592,2.4592,2.4592,2.4592,2.4592,2.4592,2.4592,2.4592,2.4592,2.4592,2.4592,2.4592,2.4592,2.4592,2.4592,2.4592,2.4592,2.4592,2.4592,2.4592,2.4616,2.4763,2.4746,2.4681,2.4998,2.4933,2.4738,2.4933,2.4974,2.4998,2.5339,2.5445,2.5461,2.5632,2.555,2.5339,2.5039,2.4828,2.4722,2.4868,2.4909,2.4957,2.5104,2.5144,2.5144,2.5185,2.5169,2.512,2.5014,2.4933,2.4828,2.4698,2.4633,2.4592,2.4592,2.4592,2.4592,2.4592,2.4592,2.4592,2.4592,2.4592,2.4592,2.4592,2.4592,2.4592,2.4592,2.4592,2.4592,2.4592,2.4726,2.5365,2.6616,2.7872,2.849,2.8624,2.8624,2.8624,2.8624,2.8624,2.8624,1.6978,1.6978,1.6978,1.6978,1.6978,1.6978,1.6978,1.7073,1.7127,1.7005,1.7182,1.7283,1.7053,1.677,1.6674,1.7136,1.7528,1.777,1.8233,1.923,1.9985,1.9939,2.1068,2.1809,2.1868,2.2656,2.3285,2.3558,2.4087,2.4466,2.4592,2.4592,2.4592,2.4592,2.4592,2.4592,2.4592,2.4592,2.4592,2.4592,2.4592,2.4592,2.4592,2.4592,2.4592,2.4592,2.4592,2.4592,2.4592,2.4592,2.4592,2.4592,2.4616,2.4722,2.4828,2.4892,2.5063,2.5299,2.5485,2.5445,2.5355,2.5575,2.5632,2.5632,2.568,2.555,2.538,2.5339,2.5185,2.5063,2.5104,2.5104,2.5104,2.5144,2.5144,2.5185,2.5339,2.525,2.5225,2.551,2.5185,2.4909,2.5039,2.4803,2.4592,2.4592,2.4592,2.4592,2.4592,2.4592,2.4592,2.4592,2.4592,2.4592,2.4592,2.4592,2.4592,2.4592,2.4592,2.4592,2.4592,2.5105,2.587,2.6616,2.737,2.7988,2.8624,2.8624,2.8624,2.8624,2.8624,2.8624,1.6978,1.6978,1.6978,1.6978,1.6978,1.6978,1.6978,1.7032,1.708,1.7093,1.7202,1.7176,1.6796,1.6895,1.7122,1.7541,1.786,1.8179,1.8409,1.8912,1.9386,1.9546,2.0211,2.1009,2.1824,2.2378,2.3113,2.3944,2.4417,2.4592,2.4592,2.4592,2.4592,2.4592,2.4592,2.4592,2.4592,2.4592,2.4592,2.4592,2.4592,2.4592,2.4592,2.4592,2.4592,2.4592,2.4592,2.4592,2.4592,2.4592,2.4592,2.4592,2.4698,2.4787,2.4892,2.4974,2.5185,2.542,2.551,2.5461,2.542,2.5615,2.568,2.568,2.568,2.5615,2.555,2.555,2.5355,2.5169,2.525,2.5274,2.5315,2.5404,2.5445,2.5461,2.5526,2.5485,2.5445,2.551,2.5339,2.5144,2.5144,2.4998,2.4892,2.4892,2.4803,2.4746,2.4746,2.4657,2.4592,2.4592,2.4592,2.4592,2.4592,2.4681,2.4698,2.4592,2.4592,2.4592,2.4592,2.5231,2.5978,2.6616,2.7236,2.7979,2.8624,2.8624,2.8624,2.8624,2.8624,2.8624,1.6978,1.7005,1.7032,1.7032,1.7032,1.7032,1.7032,1.7087,1.7161,1.7229,1.7304,1.7257,1.6867,1.7149,1.7623,1.7914,1.8199,1.8423,1.862,1.8762,1.9076,1.9461,1.9736,2.045,2.1939,2.2363,2.3036,2.4207,2.4486,2.4592,2.4592,2.4592,2.4592,2.4592,2.4592,2.4592,2.4592,2.4592,2.4592,2.4592,2.4592,2.4592,2.4592,2.4592,2.4592,2.4592,2.4592,2.4592,2.4592,2.4592,2.4592,2.4616,2.4803,2.4892,2.4957,2.5185,2.5315,2.5404,2.5445,2.5461,2.5485,2.5632,2.568,2.568,2.568,2.568,2.568,2.568,2.5485,2.529,2.542,2.5461,2.551,2.5632,2.568,2.568,2.568,2.568,2.5632,2.5485,2.542,2.5355,2.5225,2.5169,2.5144,2.5144,2.5014,2.4917,2.4868,2.4746,2.4633,2.4592,2.4592,2.4616,2.4657,2.4828,2.4852,2.4681,2.4657,2.4633,2.4592,2.5097,2.5735,2.6616,2.7101,2.7747,2.8624,2.8624,2.8624,2.8624,2.8624,2.8624,1.6978,1.708,1.7175,1.7175,1.7175,1.7175,1.7175,1.7399,1.7561,1.7433,1.7623,1.7738,1.7358,1.765,1.7935,1.8233,1.8409,1.862,1.8918,1.9081,1.9468,2.0225,2.0395,2.1166,2.255,2.299,2.3409,2.4191,2.4486,2.4592,2.4592,2.4592,2.4592,2.4592,2.4592,2.4592,2.4592,2.4592,2.4592,2.4592,2.4592,2.4592,2.4592,2.4592,2.4592,2.4592,2.4592,2.4592,2.4592,2.4592,2.4592,2.4616,2.4803,2.4974,2.5169,2.551,2.5526,2.542,2.5591,2.5656,2.5656,2.568,2.568,2.568,2.568,2.568,2.568,2.568,2.5656,2.5632,2.5656,2.5656,2.5656,2.568,2.568,2.568,2.568,2.568,2.568,2.5656,2.5526,2.5404,2.538,2.525,2.5144,2.5144,2.512,2.5063,2.4892,2.4852,2.4787,2.4616,2.4592,2.4657,2.4828,2.5014,2.5039,2.4868,2.4852,2.4763,2.4592,2.4592,2.5231,2.6616,2.6616,2.7361,2.8624,2.8624,2.8624,2.8624,2.8624,2.8624,1.6978,1.7019,1.708,1.7168,1.7263,1.7331,1.7331,1.75,1.765,1.7684,1.786,1.7968,1.786,1.7588,1.763,1.8167,1.8599,1.885,1.8972,1.9203,1.9605,2.0268,2.0537,2.113,2.2541,2.2826,2.3228,2.4145,2.434,2.4486,2.4592,2.4592,2.4592,2.4592,2.4592,2.4592,2.4592,2.4592,2.4592,2.4592,2.4592,2.4592,2.4592,2.4592,2.4592,2.4592,2.4592,2.4592,2.4592,2.4592,2.4592,2.4616,2.4933,2.5079,2.5185,2.555,2.5632,2.5591,2.5656,2.568,2.568,2.568,2.568,2.568,2.568,2.568,2.568,2.568,2.568,2.568,2.568,2.568,2.568,2.568,2.568,2.568,2.568,2.568,2.568,2.568,2.5615,2.5575,2.5575,2.5526,2.5485,2.5485,2.538,2.5274,2.5209,2.5104,2.5014,2.4949,2.4933,2.5014,2.5185,2.5274,2.5225,2.5063,2.4933,2.4787,2.4592,2.4592,2.497,2.5978,2.6356,2.6993,2.7979,2.8355,2.8624,2.8624,2.8624,2.8624,1.6978,1.7046,1.7134,1.7182,1.7378,1.7561,1.7561,1.7684,1.7826,1.7989,1.8091,1.8158,1.8158,1.7868,1.7802,1.8255,1.8728,1.9131,1.9289,1.9621,2.0048,2.094,2.1035,2.1471,2.2811,2.2854,2.3126,2.3975,2.421,2.4381,2.4511,2.4568,2.4592,2.4592,2.4592,2.4592,2.4592,2.4592,2.4592,2.4592,2.4592,2.4592,2.4592,2.4592,2.4592,2.4592,2.4592,2.4592,2.4592,2.4592,2.4633,2.4722,2.5079,2.5225,2.5274,2.5575,2.568,2.568,2.568,2.568,2.568,2.568,2.568,2.568,2.568,2.568,2.568,2.568,2.568,2.568,2.568,2.568,2.568,2.568,2.568,2.568,2.568,2.568,2.568,2.568,2.568,2.568,2.568,2.568,2.568,2.568,2.5575,2.5461,2.5404,2.529,2.5209,2.5144,2.5185,2.5274,2.5396,2.5404,2.5339,2.5161,2.5014,2.4852,2.4592,2.4592,2.4962,2.5609,2.6247,2.6993,2.7612,2.8248,2.8624,2.8624,2.8624,2.8624,1.6873,1.7195,1.7385,1.7236,1.7534,1.786,1.786,1.7989,1.8145,1.8287,1.8321,1.8321,1.8321,1.8443,1.8531,1.8531,1.8796,1.9289,2.0124,2.0295,2.0926,2.2417,2.1956,2.2077,2.3399,2.3082,2.3086,2.3804,2.4145,2.4332,2.4332,2.4511,2.4592,2.4592,2.4592,2.4592,2.4592,2.4592,2.4592,2.4592,2.4592,2.4592,2.4592,2.4592,2.4592,2.4592,2.4592,2.4592,2.4592,2.4592,2.4698,2.4909,2.525,2.5404,2.542,2.5615,2.568,2.568,2.568,2.568,2.568,2.568,2.568,2.568,2.568,2.568,2.568,2.568,2.568,2.568,2.568,2.568,2.568,2.568,2.568,2.568,2.568,2.568,2.568,2.568,2.568,2.568,2.568,2.568,2.568,2.568,2.568,2.5615,2.542,2.5404,2.5339,2.5169,2.529,2.5404,2.5404,2.5404,2.5339,2.5169,2.5144,2.4974,2.4616,2.4592,2.4861,2.5601,2.6247,2.6993,2.7612,2.8248,2.8624,2.8624,2.8624,2.8624,1.7127,1.7195,1.7304,1.7473,1.7616,1.7792,1.8111,1.8213,1.8321,1.8586,1.8552,1.8464,1.8464,1.8586,1.8694,1.8694,1.904,1.9312,1.9592,2.0211,2.0986,2.1986,2.226,2.2787,2.3885,2.3827,2.3785,2.417,2.4275,2.4381,2.4511,2.4568,2.4592,2.4592,2.4592,2.4592,2.4592,2.4592,2.4592,2.4592,2.4592,2.4592,2.4592,2.4592,2.4592,2.4592,2.4592,2.4592,2.4592,2.4592,2.4633,2.4722,2.5079,2.5225,2.525,2.5567,2.568,2.568,2.568,2.568,2.568,2.568,2.568,2.568,2.568,2.568,2.568,2.568,2.568,2.568,2.568,2.568,2.568,2.568,2.568,2.568,2.568,2.568,2.568,2.568,2.568,2.568,2.568,2.568,2.568,2.568,2.568,2.5656,2.5591,2.5591,2.5575,2.5526,2.5575,2.5591,2.5591,2.5591,2.5526,2.5339,2.5315,2.5169,2.4803,2.4909,2.511,2.5246,2.6253,2.6936,2.7072,2.8062,2.8624,2.8624,2.8624,2.8624,1.6684,1.6936,1.7236,1.7419,1.7602,1.7846,1.8301,1.8498,1.862,1.8742,1.8742,1.8708,1.8708,1.8796,1.8871,1.8918,1.9217,1.9554,2.0155,2.0644,2.1424,2.255,2.2933,2.3379,2.404,2.4064,2.4105,2.421,2.4292,2.4381,2.4486,2.4551,2.4592,2.4592,2.4592,2.4592,2.4592,2.4592,2.4592,2.4592,2.4592,2.4592,2.4592,2.4592,2.4592,2.4592,2.4592,2.4592,2.4592,2.4681,2.4657,2.4633,2.5079,2.5209,2.5185,2.555,2.568,2.568,2.568,2.568,2.568,2.568,2.568,2.568,2.568,2.568,2.568,2.568,2.568,2.568,2.568,2.568,2.568,2.568,2.568,2.568,2.568,2.568,2.568,2.568,2.568,2.568,2.568,2.568,2.568,2.568,2.568,2.568,2.568,2.568,2.568,2.568,2.568,2.568,2.568,2.5615,2.5526,2.5404,2.5404,2.5299,2.5079,2.512,2.5144,2.5144,2.6322,2.7012,2.7012,2.8293,2.887,2.887,2.887,2.887,1.5971,1.6591,1.7222,1.7156,1.7602,1.8036,1.8477,1.8796,1.8972,1.8816,1.8905,1.9006,1.9006,1.9027,1.9081,1.9203,1.9345,1.9928,2.1137,2.1503,2.2138,2.3552,2.3829,2.391,2.408,2.4105,2.4129,2.4129,2.4292,2.4397,2.4397,2.4551,2.4633,2.4633,2.4633,2.4616,2.4616,2.4592,2.4592,2.4592,2.4592,2.4592,2.4592,2.4592,2.4592,2.4592,2.4592,2.4592,2.4616,2.4787,2.4746,2.4633,2.5169,2.5274,2.5185,2.555,2.568,2.568,2.568,2.568,2.568,2.568,2.568,2.568,2.568,2.568,2.568,2.5697,2.5697,2.568,2.5697,2.5697,2.5697,2.568,2.568,2.568,2.568,2.568,2.568,2.568,2.568,2.568,2.568,2.568,2.568,2.568,2.568,2.568,2.568,2.568,2.568,2.568,2.568,2.568,2.568,2.5526,2.542,2.542,2.542,2.542,2.542,2.5274,2.5185,2.5185,2.6459,2.7223,2.7223,2.8617,2.9248,2.9248,2.9248,2.9248,1.6023,1.6677,1.7345,1.7255,1.7795,1.8477,1.8816,1.9027,1.9115,1.8972,1.9061,1.9149,1.9149,1.9257,1.9345,1.9379,1.9877,2.0444,2.0701,2.1699,2.2556,2.3228,2.3761,2.4129,2.4446,2.4486,2.4527,2.4681,2.4738,2.4828,2.4949,2.4998,2.5014,2.5014,2.4892,2.4803,2.4803,2.4657,2.4592,2.4592,2.4592,2.4592,2.4592,2.4592,2.4592,2.4592,2.4592,2.4592,2.4592,2.4633,2.4633,2.4633,2.5039,2.5185,2.5185,2.555,2.568,2.568,2.568,2.568,2.568,2.568,2.568,2.568,2.568,2.568,2.5697,2.5843,2.5786,2.5697,2.5843,2.5867,2.5843,2.5721,2.568,2.568,2.568,2.568,2.568,2.568,2.568,2.568,2.568,2.568,2.568,2.568,2.568,2.568,2.568,2.568,2.568,2.568,2.568,2.568,2.568,2.5632,2.5615,2.5615,2.5615,2.5615,2.5615,2.5591,2.5567,2.5567,2.6854,2.7407,2.7407,2.8553,2.9248,2.9248,2.9248,2.9248,1.5643,1.6124,1.6672,1.7169,1.7907,1.8586,1.883,1.9047,1.9183,1.9115,1.9203,1.9305,1.9305,1.9379,1.9447,1.9535,2.0095,2.0751,2.0986,2.1956,2.2815,2.3522,2.3933,2.421,2.4551,2.4592,2.4633,2.4722,2.4828,2.4909,2.5014,2.5104,2.5104,2.5014,2.4917,2.4828,2.4746,2.4633,2.4592,2.4592,2.4592,2.4592,2.4592,2.4592,2.4592,2.4592,2.4592,2.4592,2.4592,2.4592,2.4633,2.4763,2.5039,2.5185,2.529,2.5575,2.568,2.568,2.568,2.568,2.5697,2.5761,2.5802,2.5826,2.5908,2.5867,2.5826,2.5908,2.5802,2.5697,2.5786,2.5802,2.5786,2.5697,2.5737,2.5786,2.5697,2.568,2.568,2.568,2.568,2.568,2.568,2.568,2.568,2.568,2.568,2.568,2.568,2.568,2.568,2.568,2.568,2.568,2.568,2.568,2.568,2.568,2.568,2.568,2.568,2.568,2.568,2.568,2.7017,2.7609,2.7618,2.8959,2.9541,2.9541,2.9541,2.9541,1.5123,1.5386,1.5931,1.7053,1.7873,1.8498,1.8762,1.8993,1.9183,1.9237,1.9359,1.9468,1.9468,1.9468,1.9522,1.9644,2.0272,2.0986,2.1471,2.2327,2.3043,2.4015,2.4064,2.421,2.4551,2.4592,2.4616,2.4633,2.4803,2.4909,2.4909,2.512,2.5144,2.4933,2.4909,2.4828,2.4633,2.4616,2.4592,2.4592,2.4592,2.4592,2.4592,2.4592,2.4592,2.4592,2.4592,2.4592,2.4592,2.4592,2.4698,2.4892,2.5079,2.525,2.542,2.5615,2.568,2.568,2.568,2.568,2.5697,2.5843,2.5891,2.5932,2.6103,2.6038,2.5908,2.5997,2.5851,2.5697,2.5761,2.5761,2.5761,2.5721,2.5867,2.5956,2.5721,2.568,2.568,2.568,2.568,2.568,2.568,2.568,2.568,2.568,2.568,2.568,2.568,2.568,2.568,2.568,2.568,2.568,2.568,2.568,2.568,2.568,2.568,2.568,2.568,2.568,2.568,2.568,2.6988,2.7636,2.7776,2.9087,2.9731,2.9872,2.9872,2.9872,1.4519,1.4977,1.5848,1.7155,1.7607,1.8059,1.8801,1.8993,1.9094,1.9345,1.9522,1.9624,1.9624,1.9624,1.9644,1.9664,2.063,2.1471,2.1593,2.269,2.3529,2.4023,2.4064,2.421,2.4551,2.4592,2.4657,2.4828,2.4998,2.5104,2.5104,2.542,2.5445,2.512,2.5104,2.5014,2.4828,2.4681,2.4592,2.4592,2.4592,2.4592,2.4592,2.4592,2.4592,2.4592,2.4592,2.4592,2.4592,2.4592,2.4698,2.4892,2.5079,2.525,2.542,2.5615,2.568,2.568,2.568,2.568,2.568,2.5697,2.5721,2.5737,2.5908,2.5843,2.5802,2.6273,2.6038,2.5745,2.6062,2.6143,2.6103,2.5932,2.6143,2.6249,2.5786,2.568,2.568,2.568,2.568,2.568,2.568,2.568,2.568,2.568,2.568,2.568,2.568,2.568,2.568,2.568,2.568,2.568,2.568,2.568,2.568,2.568,2.568,2.568,2.568,2.568,2.568,2.568,2.6462,2.7111,2.7776,2.8554,2.9339,2.9872,2.9872,2.9872,1.4365,1.5335,1.6526,1.6452,1.7052,1.7858,1.8234,1.8697,1.9027,1.9149,1.9379,1.9556,1.9644,1.9664,1.9664,1.9664,2.0751,2.1593,2.1593,2.269,2.3658,2.4023,2.4064,2.421,2.4551,2.4592,2.4633,2.4698,2.4892,2.4998,2.4998,2.5234,2.525,2.4998,2.4998,2.4909,2.4722,2.4633,2.4592,2.4592,2.4592,2.4592,2.4592,2.4592,2.4592,2.4592,2.4592,2.4592,2.4592,2.4698,2.4852,2.5039,2.5209,2.5396,2.5575,2.5656,2.568,2.568,2.568,2.5737,2.5826,2.5826,2.5956,2.6127,2.6208,2.6103,2.6021,2.6249,2.6021,2.5721,2.5867,2.5973,2.6038,2.5948,2.6127,2.6249,2.6021,2.5891,2.5786,2.5697,2.5761,2.5786,2.5697,2.5761,2.5786,2.5697,2.568,2.568,2.568,2.568,2.568,2.568,2.568,2.5721,2.5802,2.5737,2.5761,2.5956,2.5786,2.5721,2.5826,2.5721,2.568,2.568,2.6322,2.7102,2.7776,2.8423,2.9199,2.9872,2.9872,2.9872,1.4265,1.5418,1.6346,1.5864,1.6531,1.7416,1.764,1.8351,1.8938,1.8993,1.9203,1.9413,1.9576,1.9644,1.9664,1.9664,2.0751,2.1593,2.1593,2.269,2.3658,2.4023,2.4064,2.421,2.4551,2.4592,2.4592,2.4592,2.4763,2.4852,2.4803,2.5014,2.5039,2.4803,2.4892,2.4828,2.4592,2.4592,2.4592,2.4592,2.4592,2.4592,2.4592,2.4633,2.4633,2.4592,2.4592,2.4592,2.4616,2.4787,2.4974,2.5169,2.5339,2.551,2.568,2.568,2.568,2.568,2.568,2.5786,2.5932,2.5932,2.6143,2.6403,2.6403,2.6273,2.6143,2.6184,2.5956,2.5697,2.5786,2.5908,2.6013,2.6062,2.6208,2.6314,2.6233,2.6103,2.5948,2.5786,2.5891,2.5948,2.5761,2.5891,2.5956,2.5826,2.5802,2.5802,2.5745,2.5786,2.5786,2.568,2.5761,2.5851,2.5932,2.5867,2.5932,2.6184,2.5908,2.5802,2.5932,2.5761,2.5697,2.5737,2.6224,2.6857,2.7776,2.8283,2.8947,2.9872,2.9872,2.9872,1.432,1.4518,1.4735,1.5292,1.6056,1.6931,1.7518,1.8198,1.8816,1.8959,1.9115,1.9257,1.9413,1.9556,1.9664,1.9664,2.0751,2.1593,2.1593,2.269,2.3658,2.4023,2.4064,2.421,2.4551,2.4592,2.4592,2.4592,2.4763,2.4787,2.4616,2.4949,2.4974,2.4616,2.4949,2.4949,2.4592,2.4592,2.4592,2.4592,2.4592,2.4592,2.4592,2.4787,2.4763,2.4592,2.4592,2.4592,2.4616,2.4787,2.4974,2.5169,2.5339,2.551,2.568,2.568,2.568,2.568,2.568,2.5786,2.5932,2.5932,2.6062,2.6233,2.6233,2.6103,2.5973,2.6168,2.5956,2.5761,2.6103,2.6184,2.6233,2.6403,2.6566,2.6614,2.6273,2.6208,2.6143,2.5948,2.6062,2.6143,2.5948,2.6078,2.6184,2.6184,2.6184,2.6119,2.5932,2.6078,2.6062,2.5721,2.5973,2.6119,2.5948,2.6078,2.6184,2.6208,2.6013,2.5932,2.5932,2.5761,2.5761,2.5908,2.5761,2.6462,2.7776,2.7776,2.8554,2.9872,2.9872,2.9872,1.4986,1.5243,1.5401,1.4932,1.5587,1.6487,1.6881,1.7889,1.8654,1.8816,1.904,1.9217,1.9271,1.9488,1.9664,1.9664,2.0751,2.1593,2.1593,2.269,2.3658,2.4023,2.4064,2.421,2.4551,2.4592,2.4592,2.4592,2.4657,2.4657,2.4592,2.4722,2.4722,2.4592,2.4722,2.4722,2.4592,2.4592,2.4592,2.4592,2.4592,2.4592,2.4592,2.4787,2.4828,2.4787,2.4892,2.4892,2.4787,2.4974,2.5144,2.5339,2.551,2.5615,2.568,2.568,2.568,2.568,2.568,2.5867,2.6078,2.5973,2.6208,2.6509,2.6273,2.6168,2.6119,2.6184,2.6038,2.5891,2.6143,2.6298,2.6419,2.659,2.6695,2.6695,2.6566,2.646,2.6314,2.6143,2.6249,2.6314,2.6143,2.6249,2.6338,2.6233,2.6208,2.6184,2.6119,2.6168,2.6168,2.6038,2.6127,2.6233,2.6273,2.6233,2.6314,2.6525,2.6168,2.5997,2.6103,2.5932,2.5867,2.5932,2.5997,2.663,2.7961,2.7846,2.8554,2.9872,2.9872,2.9872,1.5711,1.5682,1.5682,1.4921,1.554,1.6426,1.6646,1.7659,1.864,1.8742,1.8993,1.9203,1.9203,1.9447,1.9664,1.9664,2.0751,2.1593,2.1593,2.269,2.3634,2.3934,2.4023,2.4186,2.4486,2.4551,2.4592,2.4592,2.4592,2.4592,2.4592,2.4592,2.4616,2.4681,2.4633,2.4616,2.4681,2.4616,2.4592,2.4592,2.4592,2.4633,2.4698,2.4868,2.4957,2.4974,2.5144,2.512,2.4974,2.5169,2.529,2.542,2.5615,2.568,2.568,2.568,2.568,2.568,2.5737,2.5956,2.6184,2.6127,2.6395,2.6671,2.6379,2.6298,2.6273,2.6233,2.6119,2.6062,2.6249,2.6419,2.659,2.672,2.6736,2.6736,2.6736,2.6631,2.6509,2.6338,2.6444,2.6509,2.6314,2.6444,2.6525,2.6403,2.6379,2.6354,2.6298,2.6354,2.6338,2.6233,2.6314,2.6403,2.6468,2.6419,2.6484,2.672,2.6338,2.6168,2.6298,2.6119,2.6062,2.6103,2.6168,2.6847,2.8233,2.7978,2.8644,2.9976,2.99,2.9872,0.0,0.0,0.0,1.5364,1.5949,1.6523,1.6664,1.7839,1.8762,1.8762,1.9006,1.9203,1.9203,1.9447,1.9664,1.9664,2.0751,2.1593,2.1593,2.269,2.3593,2.3788,2.3959,2.4129,2.4316,2.4486,2.4592,2.4592,2.4592,2.4592,2.4592,2.4592,2.4681,2.4852,2.4681,2.4681,2.4868,2.4681,2.4592,2.4592,2.4592,2.4681,2.4868,2.5063,2.5144,2.5144,2.5339,2.5315,2.5169,2.5339,2.5404,2.542,2.5615,2.568,2.568,2.568,2.568,2.5697,2.5867,2.6062,2.6249,2.6403,2.659,2.6695,2.6525,2.6468,2.6419,2.6273,2.6208,2.6249,2.6419,2.6614,2.6736,2.6736,2.6736,2.6736,2.6736,2.6736,2.6671,2.6509,2.6614,2.6671,2.6509,2.6614,2.6736,2.6736,2.6736,2.6671,2.6484,2.6631,2.6614,2.6249,2.6525,2.6671,2.6484,2.6631,2.6736,2.6736,2.6566,2.6468,2.6468,2.6314,2.6298,2.6468,2.6314,2.698,2.8628,2.8259,2.8729,3.0174,2.9966,2.9872,1.7123,0.0,0.0,0.0,0.0,0.0,1.7219,1.7905,1.8654,1.8884,1.9081,1.9237,1.9345,1.9522,1.9664,1.9664,2.0394,2.1108,2.1471,2.2327,2.3109,2.3658,2.3959,2.4129,2.4316,2.4486,2.4592,2.4592,2.4592,2.4592,2.4592,2.4592,2.4616,2.4681,2.4616,2.4616,2.4681,2.4616,2.4592,2.4592,2.4592,2.4616,2.4681,2.4998,2.5144,2.5169,2.5461,2.5575,2.5526,2.5445,2.5485,2.5615,2.5656,2.568,2.568,2.568,2.5761,2.5867,2.5908,2.6143,2.6403,2.6444,2.659,2.6695,2.6525,2.6468,2.6468,2.6403,2.6403,2.6444,2.6614,2.6695,2.6736,2.6736,2.6736,2.6736,2.6736,2.6736,2.672,2.6671,2.6695,2.672,2.6671,2.6695,2.6736,2.6736,2.6736,2.672,2.6671,2.672,2.6695,2.6614,2.6671,2.672,2.6671,2.672,2.6736,2.6736,2.6566,2.6468,2.6468,2.6419,2.6419,2.6468,2.6549,2.7305,2.8831,2.8462,2.8846,3.0174,2.9966,2.9872,1.784,1.7667,1.7287,1.6922,0.0,0.0,1.7569,1.8112,1.8694,1.8938,1.9094,1.9257,1.9393,1.9805,2.0022,2.0022,2.063,2.1115,2.1593,2.2494,2.3318,2.378,2.4015,2.421,2.4332,2.4486,2.4592,2.4592,2.4592,2.4592,2.4592,2.4592,2.4592,2.4592,2.4592,2.4592,2.4592,2.4592,2.4592,2.4592,2.4681,2.4738,2.4828,2.512,2.529,2.538,2.5591,2.568,2.568,2.5567,2.5575,2.568,2.568,2.568,2.568,2.5761,2.5843,2.5948,2.6103,2.6298,2.6484,2.6549,2.6655,2.672,2.6614,2.6574,2.6574,2.6574,2.6574,2.6614,2.672,2.6736,2.6736,2.6736,2.6736,2.6736,2.6736,2.6736,2.6736,2.6736,2.6736,2.6736,2.6736,2.6736,2.6736,2.6736,2.6736,2.6736,2.6736,2.6736,2.6736,2.6736,2.6736,2.6736,2.6736,2.6736,2.6736,2.6736,2.6631,2.6574,2.6574,2.6574,2.6574,2.6574,2.6671,2.7413,2.8927,2.8628,2.899,3.0174,3.0146,2.9901,1.8565,1.8007,1.7586,1.7702,1.7754,0.0,1.7891,1.84,1.883,1.8993,1.9128,1.9271,1.9434,2.0174,2.063,2.0751,2.1236,2.1721,2.1721,2.2831,2.3682,2.3804,2.4121,2.4332,2.4332,2.4486,2.4592,2.4592,2.4592,2.4592,2.4592,2.4592,2.4592,2.4592,2.4592,2.4592,2.4592,2.4592,2.4592,2.4592,2.4787,2.4957,2.512,2.5315,2.5485,2.5656,2.568,2.568,2.568,2.568,2.568,2.568,2.568,2.568,2.5697,2.5867,2.5948,2.6013,2.6354,2.6484,2.6525,2.6671,2.6736,2.6736,2.6736,2.6736,2.6736,2.6736,2.6736,2.6736,2.6736,2.6736,2.6736,2.6736,2.6736,2.6736,2.6736,2.6736,2.6736,2.6736,2.6736,2.6736,2.6736,2.6736,2.6736,2.6736,2.6736,2.6736,2.6736,2.6736,2.6736,2.6736,2.6736,2.6736,2.6736,2.6736,2.6736,2.6736,2.6736,2.6736,2.6736,2.6736,2.6736,2.6736,2.6881,2.7559,2.8927,2.8861,2.9384,3.025,3.042,2.9871,1.8742,1.8687,1.8538,1.8329,1.8403,0.0,1.8369,1.8639,1.8993,1.9128,1.9271,1.9554,2.0181,2.0487,2.0758,2.1365,2.1956,2.2433,2.2433,2.2709,2.3193,2.3682,2.4121,2.4332,2.4332,2.4486,2.4592,2.4592,2.4592,2.4592,2.4592,2.4592,2.4592,2.4592,2.4592,2.4592,2.4592,2.4592,2.4592,2.4592,2.4787,2.4892,2.4933,2.525,2.542,2.5461,2.5615,2.568,2.568,2.568,2.568,2.568,2.568,2.568,2.5697,2.5867,2.6013,2.6184,2.6403,2.6566,2.6695,2.672,2.6736,2.6736,2.6736,2.6736,2.6736,2.6736,2.6736,2.6736,2.6736,2.6736,2.6736,2.6736,2.6736,2.6736,2.6736,2.6736,2.6736,2.6736,2.6736,2.6736,2.6736,2.6736,2.6736,2.6736,2.6736,2.6736,2.6736,2.6736,2.6736,2.6736,2.6736,2.6736,2.6736,2.6736,2.6736,2.6736,2.6736,2.6736,2.6736,2.6736,2.6736,2.6736,2.7824,2.8663,2.8927,2.9954,3.0481,3.0665,3.0543,2.9946,1.8782,1.8762,1.8742,1.8674,1.8762,0.0,0.0,1.8938,1.9128,1.9291,1.9605,2.0069,2.0487,2.1115,2.1744,2.2077,2.2807,2.3212,2.3299,2.3379,2.359,2.4056,2.4292,2.4462,2.4462,2.4551,2.4592,2.4592,2.4592,2.4592,2.4592,2.4592,2.4592,2.4592,2.4592,2.4592,2.4592,2.4592,2.4633,2.4738,2.4909,2.5063,2.5144,2.542,2.5526,2.555,2.5632,2.568,2.568,2.568,2.568,2.568,2.5761,2.5802,2.5826,2.5997,2.6184,2.6354,2.6444,2.659,2.6736,2.6736,2.6736,2.6736,2.6736,2.6736,2.6736,2.6736,2.6736,2.6736,2.6736,2.6736,2.6736,2.6736,2.6736,2.6736,2.6736,2.6736,2.6736,2.6736,2.6736,2.6736,2.6736,2.6736,2.6736,2.6736,2.6736,2.6736,2.6736,2.6736,2.6736,2.6736,2.6736,2.6736,2.6736,2.6736,2.6736,2.6736,2.6736,2.6736,2.6736,2.6736,2.6736,2.6736,2.8115,2.8927,2.8927,3.0318,3.0892,3.0788,3.0788,3.0244,1.8782,1.8796,1.883,1.8816,1.8918,1.9027,0.0,0.0,0.0,1.9413,1.9928,2.048,2.0715,2.1744,2.267,2.2933,2.347,2.391,2.408,2.4129,2.417,2.4316,2.4486,2.4592,2.4592,2.4592,2.4592,2.4592,2.4592,2.4592,2.4592,2.4592,2.4592,2.4592,2.4592,2.4592,2.4592,2.4592,2.4681,2.4828,2.5039,2.5209,2.5355,2.5575,2.568,2.568,2.568,2.568,2.568,2.568,2.568,2.5697,2.5867,2.5932,2.5948,2.6184,2.6338,2.6468,2.6509,2.6614,2.6736,2.6736,2.6736,2.6736,2.6736,2.6736,2.6736,2.6736,2.6736,2.6736,2.6736,2.6736,2.6736,2.6736,2.6736,2.6736,2.6736,2.6736,2.6736,2.6736,2.6736,2.6736,2.6736,2.6736,2.6736,2.6736,2.6736,2.6736,2.6736,2.6736,2.6736,2.6736,2.6736,2.6736,2.6736,2.6736,2.6736,2.6736,2.6736,2.6736,2.6736,2.6736,2.6736,2.6736,2.8115,2.8927,2.8927,3.0438,3.1015,3.0864,3.1043,3.0515,1.8871,1.8959,1.9115,1.8993,1.9081,1.9183,1.9183,0.0,1.9413,1.9434,0.0,2.0715,2.1343,0.0,0.0,2.3552,2.3934,2.4105,2.4275,2.4316,2.4316,2.4332,2.4486,2.4592,2.4592,2.4592,2.4592,2.4592,2.4592,2.4592,2.4592,2.4592,2.4592,2.4592,2.4592,2.4592,2.4592,2.4592,2.4592,2.4633,2.4974,2.5144,2.5185,2.5526,2.568,2.568,2.568,2.568,2.568,2.568,2.568,2.5697,2.5867,2.5932,2.5973,2.6314,2.6444,2.6484,2.6655,2.672,2.6736,2.6736,2.6736,2.6736,2.6736,2.6736,2.6736,2.6736,2.6736,2.6736,2.6736,2.6736,2.6736,2.6736,2.6736,2.6736,2.6736,2.6736,2.6736,2.6736,2.6736,2.6736,2.6736,2.6736,2.6736,2.6736,2.6736,2.6736,2.6736,2.6736,2.6736,2.6736,2.6736,2.6736,2.6736,2.6736,2.6736,2.6736,2.6736,2.6736,2.6736,2.6736,2.6736,2.6736,2.8115,2.8927,2.8927,3.0438,3.1091,3.1091,3.1119,3.0589,2.0167,1.9909,1.954,1.9636,1.9537,1.9574,1.9838,2.0048,2.016,2.0644,0.0,0.0,0.0,0.0,0.0,0.0,2.417,2.4275,2.4462,2.4486,2.4486,2.4486,2.4551,2.4592,2.4592,2.4592,2.4592,2.4592,2.4592,2.4592,2.4592,2.4592,2.4592,2.4592,2.4592,2.4592,2.4592,2.4592,2.4698,2.4909,2.5079,2.525,2.5461,2.5615,2.568,2.568,2.568,2.568,2.568,2.568,2.5737,2.5843,2.6013,2.6103,2.6119,2.6379,2.6525,2.6614,2.659,2.6655,2.6736,2.6736,2.6736,2.6736,2.6736,2.6736,2.6736,2.6736,2.6736,2.6736,2.6736,2.6825,2.6866,2.676,2.6825,2.6866,2.676,2.6736,2.6736,2.6736,2.6736,2.6777,2.689,2.6801,2.6736,2.6736,2.6736,2.6736,2.6736,2.6736,2.6736,2.6736,2.6736,2.6736,2.6736,2.6736,2.6736,2.6736,2.6736,2.6736,2.6736,2.6736,2.6736,2.6736,2.8115,2.8927,2.8927,3.0438,3.1119,3.1119,3.1119,3.0917,2.1232,2.0844,2.0077,2.0246,2.0125,2.0036,2.0374,2.0658,2.0986,2.1471,2.2123,0.0,0.0,0.0,2.404,2.4292,0.0,2.4446,2.4576,2.4592,2.4592,2.4592,2.4592,2.4592,2.4592,2.4592,2.4592,2.4592,2.4592,2.4592,2.4592,2.4592,2.4592,2.4592,2.4592,2.4592,2.4592,2.4592,2.4763,2.5063,2.512,2.5315,2.5615,2.5656,2.568,2.568,2.568,2.568,2.568,2.568,2.5786,2.5948,2.6143,2.6233,2.6298,2.6484,2.6631,2.672,2.659,2.6631,2.6736,2.6736,2.6736,2.6736,2.6736,2.6777,2.6825,2.6825,2.6842,2.689,2.689,2.6947,2.6972,2.6842,2.689,2.6907,2.676,2.6736,2.676,2.6801,2.6777,2.6801,2.7037,2.6931,2.6825,2.6825,2.6825,2.6801,2.6736,2.6736,2.6736,2.6736,2.6736,2.6736,2.6736,2.6736,2.6736,2.6736,2.6736,2.6736,2.6736,2.6736,2.6736,2.6736,2.8115,2.8927,2.8927,3.0438,3.1119,3.1119,3.1119,3.1119,2.1546,2.1341,2.1,2.0808,2.0722,2.0685,2.0644,2.1115,2.1593,2.1593,2.2222,2.2826,2.2826,2.3586,2.4316,2.4332,2.4486,0.0,0.0,2.4592,2.4592,2.4592,2.4592,2.4592,2.4592,2.4592,2.4592,2.4592,2.4592,2.4592,2.4592,2.4592,2.4592,2.4592,2.4592,2.4592,2.4592,2.4592,2.4698,2.4892,2.5063,2.5225,2.542,2.5591,2.568,2.568,2.568,2.568,2.568,2.568,2.5786,2.5948,2.6143,2.6314,2.6484,2.6655,2.6736,2.6736,2.6736,2.6736,2.6736,2.6736,2.6736,2.6736,2.6736,2.6866,2.7012,2.7012,2.7126,2.7248,2.7248,2.7142,2.7012,2.7012,2.6866,2.6736,2.6736,2.6736,2.6785,2.6972,2.6866,2.6842,2.7207,2.7126,2.7012,2.7012,2.7012,2.6947,2.676,2.6736,2.6736,2.6736,2.6736,2.6736,2.6736,2.6736,2.6736,2.6736,2.6736,2.6736,2.6736,2.6736,2.6736,2.6736,2.8115,2.8927,2.8927,3.0438,3.1119,3.1119,3.1119,3.1119,2.3138,2.2816,2.2213,2.228,2.2122,2.1999,2.2219,2.242,2.2781,2.3142,2.3443,2.3638,2.3757,2.4118,2.4381,2.4486,2.4551,2.4592,0.0,2.4592,2.4592,2.4592,2.4592,2.4592,2.4592,2.4592,2.4592,2.4592,2.4592,2.4592,2.4592,2.4592,2.4592,2.4592,2.4592,2.4657,2.4787,2.4657,2.4803,2.5234,2.5169,2.529,2.5591,2.5656,2.568,2.568,2.568,2.568,2.568,2.5802,2.5956,2.6127,2.6314,2.6484,2.6655,2.672,2.6736,2.6736,2.6736,2.6736,2.6736,2.6736,2.6736,2.676,2.689,2.689,2.689,2.7126,2.7142,2.7126,2.7248,2.7313,2.7313,2.7077,2.7142,2.7183,2.6825,2.6842,2.6907,2.6842,2.6777,2.6825,2.7061,2.7142,2.7142,2.7037,2.7118,2.7077,2.6777,2.6842,2.6866,2.676,2.6736,2.6736,2.6736,2.6736,2.6736,2.6736,2.6736,2.6736,2.6736,2.6736,2.6736,2.6736,2.8115,2.8927,2.8927,3.0438,3.1119,3.1119,3.1119,3.1119,2.4261,2.3896,2.3327,2.3331,2.3213,2.2992,2.3231,2.337,2.357,2.4056,2.4105,2.4186,2.4316,2.4381,2.4462,2.4576,2.4592,2.4592,0.0,2.4592,2.4592,2.4592,2.4592,2.4592,2.4592,2.4592,2.4592,2.4592,2.4592,2.4592,2.4592,2.4592,2.4592,2.4592,2.4592,2.4657,2.4763,2.4722,2.4892,2.5315,2.525,2.5396,2.568,2.568,2.568,2.568,2.568,2.568,2.5697,2.5867,2.6038,2.6233,2.6403,2.6574,2.6736,2.6736,2.6736,2.6736,2.6736,2.6736,2.6736,2.6736,2.6736,2.676,2.689,2.6931,2.6972,2.7207,2.7288,2.7313,2.7443,2.7459,2.7394,2.7167,2.7183,2.7167,2.6825,2.6825,2.6907,2.6842,2.6777,2.6825,2.7061,2.7207,2.7207,2.7037,2.7167,2.7142,2.6777,2.6842,2.6866,2.676,2.6736,2.6736,2.6736,2.6801,2.6801,2.6736,2.6801,2.6801,2.6736,2.6736,2.676,2.6842,2.8132,2.8971,2.9041,3.0466,3.1119,3.1119,3.1119,3.1119]}]]